<?xml version='1.0' encoding='UTF-8'?><gpx version="1.1" creator="JPX - https://github.com/jenetics/jpx" xmlns="http://www.topografix.com/GPX/1/1"><trk><trkseg><trkpt lat="45.676286" lon="8.2089622"><ele>441.20000000000005</ele><time>2026-04-12T08:34:07.759Z</time></trkpt><trkpt lat="45.676257" lon="8.2091425"><ele>440.40000000000003</ele><time>2026-04-12T08:34:09.759Z</time></trkpt><trkpt lat="45.6762345" lon="8.2092684"><ele>439.59999999999997</ele><time>2026-04-12T08:34:10.759Z</time></trkpt><trkpt lat="45.6762103" lon="8.2094022"><ele>438.79999999999995</ele><time>2026-04-12T08:34:11.759Z</time></trkpt><trkpt lat="45.6761816" lon="8.2095543"><ele>438.0</ele><time>2026-04-12T08:34:12.759Z</time></trkpt><trkpt lat="45.6761535" lon="8.2097006"><ele>439.0</ele><time>2026-04-12T08:34:13.759Z</time></trkpt><trkpt lat="45.6761259" lon="8.2098531"><ele>439.99999999999994</ele><time>2026-04-12T08:34:14.759Z</time></trkpt><trkpt lat="45.6760939" lon="8.2100147"><ele>440.99999999999994</ele><time>2026-04-12T08:34:15.759Z</time></trkpt><trkpt lat="45.6760597" lon="8.2101682"><ele>442.0</ele><time>2026-04-12T08:34:16.759Z</time></trkpt><trkpt lat="45.6760298" lon="8.2103051"><ele>443.0</ele><time>2026-04-12T08:34:17.759Z</time></trkpt><trkpt lat="45.6760017" lon="8.2104326"><ele>440.16666666666663</ele><time>2026-04-12T08:34:18.758Z</time></trkpt><trkpt lat="45.6759743" lon="8.2105536"><ele>437.3333333333333</ele><time>2026-04-12T08:34:19.759Z</time></trkpt><trkpt lat="45.6759464" lon="8.210675"><ele>434.5</ele><time>2026-04-12T08:34:20.759Z</time></trkpt><trkpt lat="45.6759178" lon="8.2108001"><ele>431.66666666666663</ele><time>2026-04-12T08:34:21.759Z</time></trkpt><trkpt lat="45.675888" lon="8.2109209"><ele>428.8333333333333</ele><time>2026-04-12T08:34:22.759Z</time></trkpt><trkpt lat="45.6758592" lon="8.2110426"><ele>426.0</ele><time>2026-04-12T08:34:23.759Z</time></trkpt><trkpt lat="45.6758353" lon="8.211172"><ele>426.0</ele><time>2026-04-12T08:34:24.759Z</time></trkpt><trkpt lat="45.675817" lon="8.2113057"><ele>426.0</ele><time>2026-04-12T08:34:25.757Z</time></trkpt><trkpt lat="45.6758007" lon="8.2114415"><ele>426.0</ele><time>2026-04-12T08:34:26.759Z</time></trkpt><trkpt lat="45.6757941" lon="8.2115824"><ele>426.0</ele><time>2026-04-12T08:34:27.758Z</time></trkpt><trkpt lat="45.6757933" lon="8.2117342"><ele>426.0</ele><time>2026-04-12T08:34:28.759Z</time></trkpt><trkpt lat="45.6757949" lon="8.2118774"><ele>426.0</ele><time>2026-04-12T08:34:29.759Z</time></trkpt><trkpt lat="45.6757982" lon="8.2120229"><ele>426.0</ele><time>2026-04-12T08:34:30.758Z</time></trkpt><trkpt lat="45.6758132" lon="8.2121731"><ele>426.0</ele><time>2026-04-12T08:34:31.759Z</time></trkpt><trkpt lat="45.6758417" lon="8.2123278"><ele>426.0</ele><time>2026-04-12T08:34:32.759Z</time></trkpt><trkpt lat="45.675879" lon="8.212488"><ele>426.0</ele><time>2026-04-12T08:34:33.759Z</time></trkpt><trkpt lat="45.6759169" lon="8.2126506"><ele>425.5</ele><time>2026-04-12T08:34:34.759Z</time></trkpt><trkpt lat="45.6759528" lon="8.212811"><ele>425.0</ele><time>2026-04-12T08:34:35.758Z</time></trkpt><trkpt lat="45.6759864" lon="8.2129705"><ele>424.5</ele><time>2026-04-12T08:34:36.759Z</time></trkpt><trkpt lat="45.6760204" lon="8.2131323"><ele>424.0</ele><time>2026-04-12T08:34:37.759Z</time></trkpt><trkpt lat="45.6760562" lon="8.2132947"><ele>423.25</ele><time>2026-04-12T08:34:38.759Z</time></trkpt><trkpt lat="45.676094" lon="8.2134632"><ele>422.5</ele><time>2026-04-12T08:34:39.759Z</time></trkpt><trkpt lat="45.676134" lon="8.2136312"><ele>421.75</ele><time>2026-04-12T08:34:40.759Z</time></trkpt><trkpt lat="45.676172" lon="8.2138019"><ele>421.0</ele><time>2026-04-12T08:34:41.759Z</time></trkpt><trkpt lat="45.676198" lon="8.2139835"><ele>423.5</ele><time>2026-04-12T08:34:42.758Z</time></trkpt><trkpt lat="45.6762152" lon="8.2141742"><ele>426.0</ele><time>2026-04-12T08:34:43.759Z</time></trkpt><trkpt lat="45.6762236" lon="8.2143777"><ele>428.5</ele><time>2026-04-12T08:34:44.759Z</time></trkpt><trkpt lat="45.6762278" lon="8.2145805"><ele>431.0</ele><time>2026-04-12T08:34:45.759Z</time></trkpt><trkpt lat="45.6762285" lon="8.2147867"><ele>431.0</ele><time>2026-04-12T08:34:46.76Z</time></trkpt><trkpt lat="45.6762259" lon="8.2149809"><ele>431.0</ele><time>2026-04-12T08:34:47.76Z</time></trkpt><trkpt lat="45.6762184" lon="8.2151617"><ele>431.0</ele><time>2026-04-12T08:34:48.759Z</time></trkpt><trkpt lat="45.6762043" lon="8.2153351"><ele>431.0</ele><time>2026-04-12T08:34:49.759Z</time></trkpt><trkpt lat="45.676189" lon="8.2155002"><ele>431.20000000000005</ele><time>2026-04-12T08:34:50.76Z</time></trkpt><trkpt lat="45.6761744" lon="8.2156629"><ele>431.40000000000003</ele><time>2026-04-12T08:34:51.76Z</time></trkpt><trkpt lat="45.6761597" lon="8.2158082"><ele>431.6</ele><time>2026-04-12T08:34:52.759Z</time></trkpt><trkpt lat="45.6761425" lon="8.215953"><ele>431.8</ele><time>2026-04-12T08:34:53.76Z</time></trkpt><trkpt lat="45.6761273" lon="8.2160772"><ele>432.0</ele><time>2026-04-12T08:34:54.759Z</time></trkpt><trkpt lat="45.676112" lon="8.2161938"><ele>429.3333333333333</ele><time>2026-04-12T08:34:55.759Z</time></trkpt><trkpt lat="45.6760979" lon="8.2163133"><ele>426.66666666666663</ele><time>2026-04-12T08:34:56.76Z</time></trkpt><trkpt lat="45.6760788" lon="8.2164406"><ele>424.0</ele><time>2026-04-12T08:34:57.758Z</time></trkpt><trkpt lat="45.6760615" lon="8.2165638"><ele>421.3333333333333</ele><time>2026-04-12T08:34:58.76Z</time></trkpt><trkpt lat="45.676045" lon="8.2166774"><ele>418.66666666666663</ele><time>2026-04-12T08:34:59.76Z</time></trkpt><trkpt lat="45.6760251" lon="8.2167803"><ele>416.0</ele><time>2026-04-12T08:35:00.759Z</time></trkpt><trkpt lat="45.6760411" lon="8.2169174"><ele>418.66666666666663</ele><time>2026-04-12T08:35:02.76Z</time></trkpt><trkpt lat="45.67612" lon="8.2168895"><ele>421.3333333333333</ele><time>2026-04-12T08:35:04.759Z</time></trkpt><trkpt lat="45.6761639" lon="8.2168126"><ele>424.0</ele><time>2026-04-12T08:35:05.759Z</time></trkpt><trkpt lat="45.6762051" lon="8.2167339"><ele>426.66666666666663</ele><time>2026-04-12T08:35:06.759Z</time></trkpt><trkpt lat="45.6762509" lon="8.2166373"><ele>429.3333333333333</ele><time>2026-04-12T08:35:07.76Z</time></trkpt><trkpt lat="45.6763024" lon="8.216514"><ele>432.0</ele><time>2026-04-12T08:35:08.759Z</time></trkpt><trkpt lat="45.6763515" lon="8.2163831"><ele>432.0</ele><time>2026-04-12T08:35:09.761Z</time></trkpt><trkpt lat="45.6763953" lon="8.2162578"><ele>432.0</ele><time>2026-04-12T08:35:10.76Z</time></trkpt><trkpt lat="45.6764406" lon="8.2161165"><ele>432.0</ele><time>2026-04-12T08:35:11.759Z</time></trkpt><trkpt lat="45.6764913" lon="8.2159582"><ele>432.0</ele><time>2026-04-12T08:35:12.759Z</time></trkpt><trkpt lat="45.6765484" lon="8.2157834"><ele>431.75</ele><time>2026-04-12T08:35:13.76Z</time></trkpt><trkpt lat="45.6766046" lon="8.2156175"><ele>431.5</ele><time>2026-04-12T08:35:14.76Z</time></trkpt><trkpt lat="45.676663" lon="8.2154613"><ele>431.25</ele><time>2026-04-12T08:35:15.759Z</time></trkpt><trkpt lat="45.6767274" lon="8.2153086"><ele>431.0</ele><time>2026-04-12T08:35:16.76Z</time></trkpt><trkpt lat="45.6767975" lon="8.2151509"><ele>431.0</ele><time>2026-04-12T08:35:17.759Z</time></trkpt><trkpt lat="45.676867" lon="8.2149957"><ele>431.0</ele><time>2026-04-12T08:35:18.759Z</time></trkpt><trkpt lat="45.6769288" lon="8.2148561"><ele>431.0</ele><time>2026-04-12T08:35:19.759Z</time></trkpt><trkpt lat="45.6769845" lon="8.214733"><ele>431.0</ele><time>2026-04-12T08:35:20.759Z</time></trkpt><trkpt lat="45.6770323" lon="8.2146223"><ele>431.0</ele><time>2026-04-12T08:35:21.759Z</time></trkpt><trkpt lat="45.6770841" lon="8.2145251"><ele>434.0</ele><time>2026-04-12T08:35:22.76Z</time></trkpt><trkpt lat="45.6771348" lon="8.2144179"><ele>437.0</ele><time>2026-04-12T08:35:23.76Z</time></trkpt><trkpt lat="45.6771754" lon="8.2142875"><ele>440.0</ele><time>2026-04-12T08:35:24.759Z</time></trkpt><trkpt lat="45.6772052" lon="8.2141354"><ele>443.0</ele><time>2026-04-12T08:35:25.759Z</time></trkpt><trkpt lat="45.677226" lon="8.2139761"><ele>446.0</ele><time>2026-04-12T08:35:26.759Z</time></trkpt><trkpt lat="45.677243" lon="8.2138177"><ele>446.0</ele><time>2026-04-12T08:35:27.76Z</time></trkpt><trkpt lat="45.6772576" lon="8.2136629"><ele>446.0</ele><time>2026-04-12T08:35:28.76Z</time></trkpt><trkpt lat="45.6772857" lon="8.2135134"><ele>446.0</ele><time>2026-04-12T08:35:29.759Z</time></trkpt><trkpt lat="45.6773396" lon="8.2133798"><ele>446.0</ele><time>2026-04-12T08:35:30.758Z</time></trkpt><trkpt lat="45.6774191" lon="8.2132636"><ele>446.0</ele><time>2026-04-12T08:35:31.759Z</time></trkpt><trkpt lat="45.677498" lon="8.2131342"><ele>445.5</ele><time>2026-04-12T08:35:32.76Z</time></trkpt><trkpt lat="45.6775673" lon="8.212983"><ele>445.0</ele><time>2026-04-12T08:35:33.759Z</time></trkpt><trkpt lat="45.6776273" lon="8.2128326"><ele>444.5</ele><time>2026-04-12T08:35:34.76Z</time></trkpt><trkpt lat="45.6776927" lon="8.2127067"><ele>444.0</ele><time>2026-04-12T08:35:35.76Z</time></trkpt><trkpt lat="45.6777663" lon="8.2126027"><ele>446.75</ele><time>2026-04-12T08:35:36.759Z</time></trkpt><trkpt lat="45.6778551" lon="8.2125164"><ele>449.5</ele><time>2026-04-12T08:35:37.76Z</time></trkpt><trkpt lat="45.67798" lon="8.2124928"><ele>452.25</ele><time>2026-04-12T08:35:38.758Z</time></trkpt><trkpt lat="45.6780941" lon="8.2124488"><ele>455.0</ele><time>2026-04-12T08:35:39.758Z</time></trkpt><trkpt lat="45.6782309" lon="8.2124366"><ele>455.0</ele><time>2026-04-12T08:35:40.759Z</time></trkpt><trkpt lat="45.6783592" lon="8.2124178"><ele>455.0</ele><time>2026-04-12T08:35:41.759Z</time></trkpt><trkpt lat="45.678503" lon="8.2123919"><ele>455.0</ele><time>2026-04-12T08:35:42.76Z</time></trkpt><trkpt lat="45.6786501" lon="8.2123598"><ele>455.0</ele><time>2026-04-12T08:35:43.76Z</time></trkpt><trkpt lat="45.6787862" lon="8.212316"><ele>454.75</ele><time>2026-04-12T08:35:44.759Z</time></trkpt><trkpt lat="45.6789184" lon="8.2122503"><ele>454.5</ele><time>2026-04-12T08:35:45.759Z</time></trkpt><trkpt lat="45.6790585" lon="8.2121722"><ele>454.25</ele><time>2026-04-12T08:35:46.76Z</time></trkpt><trkpt lat="45.6792039" lon="8.2121062"><ele>454.0</ele><time>2026-04-12T08:35:47.759Z</time></trkpt><trkpt lat="45.6793474" lon="8.2120749"><ele>455.2</ele><time>2026-04-12T08:35:48.76Z</time></trkpt><trkpt lat="45.6794756" lon="8.2120632"><ele>456.4</ele><time>2026-04-12T08:35:49.76Z</time></trkpt><trkpt lat="45.6795898" lon="8.2120531"><ele>457.6</ele><time>2026-04-12T08:35:50.758Z</time></trkpt><trkpt lat="45.6796861" lon="8.2120306"><ele>458.8</ele><time>2026-04-12T08:35:51.758Z</time></trkpt><trkpt lat="45.6797574" lon="8.2120016"><ele>460.0</ele><time>2026-04-12T08:35:52.76Z</time></trkpt><trkpt lat="45.679829" lon="8.2120017"><ele>460.0</ele><time>2026-04-12T08:35:53.759Z</time></trkpt><trkpt lat="45.6798841" lon="8.2120976"><ele>460.0</ele><time>2026-04-12T08:35:55.76Z</time></trkpt><trkpt lat="45.679785" lon="8.2121775"><ele>460.0</ele><time>2026-04-12T08:35:57.76Z</time></trkpt><trkpt lat="45.6797038" lon="8.2121987"><ele>460.0</ele><time>2026-04-12T08:35:58.76Z</time></trkpt><trkpt lat="45.6796064" lon="8.2122249"><ele>460.0</ele><time>2026-04-12T08:35:59.759Z</time></trkpt><trkpt lat="45.6795126" lon="8.2122573"><ele>458.5</ele><time>2026-04-12T08:36:00.76Z</time></trkpt><trkpt lat="45.679402" lon="8.212299"><ele>457.0</ele><time>2026-04-12T08:36:01.759Z</time></trkpt><trkpt lat="45.6792934" lon="8.2123588"><ele>455.5</ele><time>2026-04-12T08:36:02.76Z</time></trkpt><trkpt lat="45.6791994" lon="8.2124548"><ele>454.0</ele><time>2026-04-12T08:36:03.759Z</time></trkpt><trkpt lat="45.6791178" lon="8.212586"><ele>458.25</ele><time>2026-04-12T08:36:04.759Z</time></trkpt><trkpt lat="45.6790321" lon="8.2127158"><ele>462.5</ele><time>2026-04-12T08:36:05.76Z</time></trkpt><trkpt lat="45.6789315" lon="8.2128231"><ele>466.75</ele><time>2026-04-12T08:36:06.76Z</time></trkpt><trkpt lat="45.6788132" lon="8.2129069"><ele>471.0</ele><time>2026-04-12T08:36:07.759Z</time></trkpt><trkpt lat="45.6786918" lon="8.2129601"><ele>471.25</ele><time>2026-04-12T08:36:08.76Z</time></trkpt><trkpt lat="45.678564" lon="8.2130049"><ele>471.5</ele><time>2026-04-12T08:36:09.759Z</time></trkpt><trkpt lat="45.6784488" lon="8.2130529"><ele>471.75</ele><time>2026-04-12T08:36:10.76Z</time></trkpt><trkpt lat="45.6783581" lon="8.2131445"><ele>472.0</ele><time>2026-04-12T08:36:11.76Z</time></trkpt><trkpt lat="45.6782975" lon="8.2132857"><ele>472.0</ele><time>2026-04-12T08:36:12.76Z</time></trkpt><trkpt lat="45.6782574" lon="8.2134519"><ele>472.0</ele><time>2026-04-12T08:36:13.758Z</time></trkpt><trkpt lat="45.6782255" lon="8.2136372"><ele>472.0</ele><time>2026-04-12T08:36:14.759Z</time></trkpt><trkpt lat="45.6781948" lon="8.2138239"><ele>472.0</ele><time>2026-04-12T08:36:15.76Z</time></trkpt><trkpt lat="45.6781563" lon="8.2140074"><ele>474.0</ele><time>2026-04-12T08:36:16.759Z</time></trkpt><trkpt lat="45.6780999" lon="8.214149"><ele>476.00000000000006</ele><time>2026-04-12T08:36:17.76Z</time></trkpt><trkpt lat="45.6780742" lon="8.2143066"><ele>478.00000000000006</ele><time>2026-04-12T08:36:18.76Z</time></trkpt><trkpt lat="45.6780819" lon="8.2144545"><ele>480.0</ele><time>2026-04-12T08:36:19.759Z</time></trkpt><trkpt lat="45.6781271" lon="8.2145741"><ele>482.0</ele><time>2026-04-12T08:36:20.759Z</time></trkpt><trkpt lat="45.6782067" lon="8.2146504"><ele>482.0</ele><time>2026-04-12T08:36:21.759Z</time></trkpt><trkpt lat="45.6782977" lon="8.2146897"><ele>482.00000000000006</ele><time>2026-04-12T08:36:22.759Z</time></trkpt><trkpt lat="45.6783944" lon="8.214682"><ele>482.00000000000006</ele><time>2026-04-12T08:36:23.759Z</time></trkpt><trkpt lat="45.6784789" lon="8.2146152"><ele>482.0</ele><time>2026-04-12T08:36:24.76Z</time></trkpt><trkpt lat="45.678566" lon="8.2145281"><ele>482.0</ele><time>2026-04-12T08:36:25.76Z</time></trkpt><trkpt lat="45.6786603" lon="8.2144423"><ele>483.8</ele><time>2026-04-12T08:36:26.759Z</time></trkpt><trkpt lat="45.6787577" lon="8.2143585"><ele>485.6</ele><time>2026-04-12T08:36:27.758Z</time></trkpt><trkpt lat="45.6788592" lon="8.2142955"><ele>487.40000000000003</ele><time>2026-04-12T08:36:28.76Z</time></trkpt><trkpt lat="45.6789685" lon="8.2142639"><ele>489.20000000000005</ele><time>2026-04-12T08:36:29.759Z</time></trkpt><trkpt lat="45.6790753" lon="8.2142491"><ele>491.0</ele><time>2026-04-12T08:36:30.76Z</time></trkpt><trkpt lat="45.6791718" lon="8.2142388"><ele>490.99999999999994</ele><time>2026-04-12T08:36:31.759Z</time></trkpt><trkpt lat="45.6792578" lon="8.2142344"><ele>491.0</ele><time>2026-04-12T08:36:32.76Z</time></trkpt><trkpt lat="45.6793335" lon="8.2142262"><ele>491.0</ele><time>2026-04-12T08:36:33.76Z</time></trkpt><trkpt lat="45.6794014" lon="8.2142207"><ele>491.0</ele><time>2026-04-12T08:36:34.76Z</time></trkpt><trkpt lat="45.679475" lon="8.2142136"><ele>490.99999999999994</ele><time>2026-04-12T08:36:35.759Z</time></trkpt><trkpt lat="45.6795609" lon="8.2142075"><ele>491.0</ele><time>2026-04-12T08:36:36.76Z</time></trkpt><trkpt lat="45.6796523" lon="8.2142004"><ele>492.0</ele><time>2026-04-12T08:36:37.76Z</time></trkpt><trkpt lat="45.6797418" lon="8.2142029"><ele>493.0</ele><time>2026-04-12T08:36:38.759Z</time></trkpt><trkpt lat="45.6798305" lon="8.2142256"><ele>494.0</ele><time>2026-04-12T08:36:39.76Z</time></trkpt><trkpt lat="45.6799183" lon="8.2142856"><ele>495.0</ele><time>2026-04-12T08:36:40.76Z</time></trkpt><trkpt lat="45.6800032" lon="8.2143711"><ele>496.0</ele><time>2026-04-12T08:36:41.76Z</time></trkpt><trkpt lat="45.6800903" lon="8.2144587"><ele>496.0</ele><time>2026-04-12T08:36:42.759Z</time></trkpt><trkpt lat="45.6801849" lon="8.2145404"><ele>496.0</ele><time>2026-04-12T08:36:43.76Z</time></trkpt><trkpt lat="45.6802848" lon="8.2145968"><ele>496.0</ele><time>2026-04-12T08:36:44.759Z</time></trkpt><trkpt lat="45.6803917" lon="8.2146141"><ele>496.0</ele><time>2026-04-12T08:36:45.759Z</time></trkpt><trkpt lat="45.6805047" lon="8.2146203"><ele>496.0</ele><time>2026-04-12T08:36:46.76Z</time></trkpt><trkpt lat="45.6806192" lon="8.2146197"><ele>496.0</ele><time>2026-04-12T08:36:47.76Z</time></trkpt><trkpt lat="45.6807352" lon="8.2146271"><ele>496.0</ele><time>2026-04-12T08:36:48.76Z</time></trkpt><trkpt lat="45.680836" lon="8.2146648"><ele>496.0</ele><time>2026-04-12T08:36:49.759Z</time></trkpt><trkpt lat="45.6809241" lon="8.2147209"><ele>496.0</ele><time>2026-04-12T08:36:50.76Z</time></trkpt><trkpt lat="45.6810133" lon="8.2147877"><ele>496.0</ele><time>2026-04-12T08:36:51.76Z</time></trkpt><trkpt lat="45.6811075" lon="8.214847"><ele>497.1666666666667</ele><time>2026-04-12T08:36:52.76Z</time></trkpt><trkpt lat="45.6812023" lon="8.2149003"><ele>498.33333333333337</ele><time>2026-04-12T08:36:53.76Z</time></trkpt><trkpt lat="45.6812897" lon="8.2149586"><ele>499.5</ele><time>2026-04-12T08:36:54.759Z</time></trkpt><trkpt lat="45.6813622" lon="8.2150138"><ele>500.66666666666663</ele><time>2026-04-12T08:36:55.758Z</time></trkpt><trkpt lat="45.6814197" lon="8.2150845"><ele>501.8333333333333</ele><time>2026-04-12T08:36:56.76Z</time></trkpt><trkpt lat="45.6814574" lon="8.2151639"><ele>503.0</ele><time>2026-04-12T08:36:57.759Z</time></trkpt><trkpt lat="45.6815151" lon="8.215267"><ele>503.0</ele><time>2026-04-12T08:36:59.759Z</time></trkpt><trkpt lat="45.6816071" lon="8.2151897"><ele>502.99999999999994</ele><time>2026-04-12T08:37:01.76Z</time></trkpt><trkpt lat="45.6816529" lon="8.2150865"><ele>502.99999999999994</ele><time>2026-04-12T08:37:02.76Z</time></trkpt><trkpt lat="45.681708" lon="8.2149741"><ele>503.0</ele><time>2026-04-12T08:37:03.759Z</time></trkpt><trkpt lat="45.6817704" lon="8.2148678"><ele>503.0</ele><time>2026-04-12T08:37:04.759Z</time></trkpt><trkpt lat="45.6818445" lon="8.2147597"><ele>502.0</ele><time>2026-04-12T08:37:05.76Z</time></trkpt><trkpt lat="45.6819424" lon="8.2146712"><ele>501.0</ele><time>2026-04-12T08:37:06.76Z</time></trkpt><trkpt lat="45.6820331" lon="8.2145691"><ele>500.0</ele><time>2026-04-12T08:37:07.759Z</time></trkpt><trkpt lat="45.6821248" lon="8.2144827"><ele>499.0</ele><time>2026-04-12T08:37:08.759Z</time></trkpt><trkpt lat="45.6822181" lon="8.2143909"><ele>499.0</ele><time>2026-04-12T08:37:09.76Z</time></trkpt><trkpt lat="45.6823095" lon="8.214305"><ele>499.0</ele><time>2026-04-12T08:37:10.76Z</time></trkpt><trkpt lat="45.6824001" lon="8.2142265"><ele>499.0</ele><time>2026-04-12T08:37:11.759Z</time></trkpt><trkpt lat="45.6824822" lon="8.2141504"><ele>499.0</ele><time>2026-04-12T08:37:12.76Z</time></trkpt><trkpt lat="45.682556" lon="8.2140763"><ele>499.0</ele><time>2026-04-12T08:37:13.76Z</time></trkpt><trkpt lat="45.6826236" lon="8.2140098"><ele>498.8571428571429</ele><time>2026-04-12T08:37:14.76Z</time></trkpt><trkpt lat="45.6826839" lon="8.2139658"><ele>498.7142857142857</ele><time>2026-04-12T08:37:15.759Z</time></trkpt><trkpt lat="45.682751" lon="8.213945"><ele>498.57142857142856</ele><time>2026-04-12T08:37:16.76Z</time></trkpt><trkpt lat="45.6828218" lon="8.2139527"><ele>498.42857142857144</ele><time>2026-04-12T08:37:17.759Z</time></trkpt><trkpt lat="45.6828962" lon="8.2139438"><ele>498.2857142857142</ele><time>2026-04-12T08:37:18.759Z</time></trkpt><trkpt lat="45.6829649" lon="8.2139313"><ele>498.1428571428571</ele><time>2026-04-12T08:37:19.76Z</time></trkpt><trkpt lat="45.6830327" lon="8.2139211"><ele>498.0</ele><time>2026-04-12T08:37:20.759Z</time></trkpt><trkpt lat="45.6831229" lon="8.2138917"><ele>498.3333333333333</ele><time>2026-04-12T08:37:22.759Z</time></trkpt><trkpt lat="45.6831965" lon="8.2138934"><ele>498.66666666666663</ele><time>2026-04-12T08:37:24.759Z</time></trkpt><trkpt lat="45.6832247" lon="8.2137979"><ele>499.0</ele><time>2026-04-12T08:37:26.759Z</time></trkpt><trkpt lat="45.6832211" lon="8.2136411"><ele>499.3333333333333</ele><time>2026-04-12T08:37:28.76Z</time></trkpt><trkpt lat="45.68322" lon="8.2135439"><ele>499.66666666666663</ele><time>2026-04-12T08:37:29.759Z</time></trkpt><trkpt lat="45.6832212" lon="8.2134329"><ele>500.0</ele><time>2026-04-12T08:37:30.76Z</time></trkpt><trkpt lat="45.68322" lon="8.2133267"><ele>499.99999999999994</ele><time>2026-04-12T08:37:31.759Z</time></trkpt><trkpt lat="45.6832203" lon="8.2132242"><ele>500.0</ele><time>2026-04-12T08:37:32.759Z</time></trkpt><trkpt lat="45.6832119" lon="8.2131303"><ele>500.0</ele><time>2026-04-12T08:37:33.76Z</time></trkpt><trkpt lat="45.6831905" lon="8.2130302"><ele>500.0</ele><time>2026-04-12T08:37:34.759Z</time></trkpt><trkpt lat="45.6831792" lon="8.2129229"><ele>499.99999999999994</ele><time>2026-04-12T08:37:35.76Z</time></trkpt><trkpt lat="45.6831815" lon="8.2128057"><ele>500.0</ele><time>2026-04-12T08:37:36.759Z</time></trkpt><trkpt lat="45.683198" lon="8.2126837"><ele>499.8333333333333</ele><time>2026-04-12T08:37:37.758Z</time></trkpt><trkpt lat="45.6832225" lon="8.2125683"><ele>499.66666666666663</ele><time>2026-04-12T08:37:38.759Z</time></trkpt><trkpt lat="45.6832504" lon="8.2124487"><ele>499.5</ele><time>2026-04-12T08:37:39.759Z</time></trkpt><trkpt lat="45.6832816" lon="8.2123339"><ele>499.33333333333337</ele><time>2026-04-12T08:37:40.76Z</time></trkpt><trkpt lat="45.6833162" lon="8.2122351"><ele>499.1666666666667</ele><time>2026-04-12T08:37:41.76Z</time></trkpt><trkpt lat="45.683348" lon="8.2121423"><ele>499.0</ele><time>2026-04-12T08:37:42.759Z</time></trkpt><trkpt lat="45.6833975" lon="8.2120049"><ele>499.33333333333337</ele><time>2026-04-12T08:37:44.758Z</time></trkpt><trkpt lat="45.6834494" lon="8.2118924"><ele>499.6666666666667</ele><time>2026-04-12T08:37:46.76Z</time></trkpt><trkpt lat="45.683487" lon="8.2118122"><ele>500.0</ele><time>2026-04-12T08:37:48.76Z</time></trkpt><trkpt lat="45.6835014" lon="8.2117116"><ele>500.33333333333337</ele><time>2026-04-12T08:37:50.759Z</time></trkpt><trkpt lat="45.6834977" lon="8.2115899"><ele>500.6666666666667</ele><time>2026-04-12T08:37:52.76Z</time></trkpt><trkpt lat="45.683502" lon="8.2114849"><ele>501.0</ele><time>2026-04-12T08:37:54.759Z</time></trkpt><trkpt lat="45.6835344" lon="8.21139"><ele>502.6666666666667</ele><time>2026-04-12T08:37:57.759Z</time></trkpt><trkpt lat="45.6835444" lon="8.2112978"><ele>504.33333333333337</ele><time>2026-04-12T08:40:01.76Z</time></trkpt><trkpt lat="45.6835916" lon="8.2111398"><ele>506.0</ele><time>2026-04-12T08:40:03.759Z</time></trkpt><trkpt lat="45.6836168" lon="8.211036"><ele>507.6666666666667</ele><time>2026-04-12T08:40:04.76Z</time></trkpt><trkpt lat="45.6836415" lon="8.2109348"><ele>509.33333333333337</ele><time>2026-04-12T08:40:05.759Z</time></trkpt><trkpt lat="45.6836643" lon="8.2108434"><ele>511.0</ele><time>2026-04-12T08:40:06.76Z</time></trkpt><trkpt lat="45.6837192" lon="8.2107158"><ele>511.1666666666667</ele><time>2026-04-12T08:40:08.76Z</time></trkpt><trkpt lat="45.6837771" lon="8.2106674"><ele>511.33333333333337</ele><time>2026-04-12T08:40:09.76Z</time></trkpt><trkpt lat="45.6838842" lon="8.2105848"><ele>511.5</ele><time>2026-04-12T08:40:11.758Z</time></trkpt><trkpt lat="45.6839452" lon="8.2105592"><ele>511.66666666666663</ele><time>2026-04-12T08:40:12.76Z</time></trkpt><trkpt lat="45.6840123" lon="8.2105093"><ele>511.8333333333333</ele><time>2026-04-12T08:40:13.76Z</time></trkpt><trkpt lat="45.6840768" lon="8.210459"><ele>512.0</ele><time>2026-04-12T08:40:14.76Z</time></trkpt><trkpt lat="45.6841371" lon="8.2104257"><ele>511.99999999999994</ele><time>2026-04-12T08:40:15.76Z</time></trkpt><trkpt lat="45.6842191" lon="8.2104517"><ele>512.0</ele><time>2026-04-12T08:40:17.759Z</time></trkpt><trkpt lat="45.6842755" lon="8.210512"><ele>512.0</ele><time>2026-04-12T08:40:18.76Z</time></trkpt><trkpt lat="45.6843883" lon="8.2105987"><ele>512.0</ele><time>2026-04-12T08:40:20.76Z</time></trkpt><trkpt lat="45.6844537" lon="8.2106538"><ele>511.99999999999994</ele><time>2026-04-12T08:40:21.761Z</time></trkpt><trkpt lat="45.6845204" lon="8.2107072"><ele>512.0</ele><time>2026-04-12T08:40:22.758Z</time></trkpt><trkpt lat="45.6845836" lon="8.2107693"><ele>515.6666666666666</ele><time>2026-04-12T08:40:23.76Z</time></trkpt><trkpt lat="45.6846901" lon="8.2108454"><ele>519.3333333333333</ele><time>2026-04-12T08:40:25.761Z</time></trkpt><trkpt lat="45.684748" lon="8.2109031"><ele>523.0</ele><time>2026-04-12T08:40:26.76Z</time></trkpt><trkpt lat="45.6848167" lon="8.2109827"><ele>526.6666666666666</ele><time>2026-04-12T08:40:27.76Z</time></trkpt><trkpt lat="45.6848783" lon="8.2110414"><ele>530.3333333333334</ele><time>2026-04-12T08:40:28.759Z</time></trkpt><trkpt lat="45.6849437" lon="8.2111081"><ele>534.0</ele><time>2026-04-12T08:40:29.759Z</time></trkpt><trkpt lat="45.6850084" lon="8.2111411"><ele>534.0</ele><time>2026-04-12T08:40:30.759Z</time></trkpt><trkpt lat="45.6850917" lon="8.2112261"><ele>534.0</ele><time>2026-04-12T08:40:32.76Z</time></trkpt><trkpt lat="45.6851998" lon="8.211282"><ele>534.0</ele><time>2026-04-12T08:40:34.761Z</time></trkpt><trkpt lat="45.6852664" lon="8.2113106"><ele>534.0</ele><time>2026-04-12T08:40:35.757Z</time></trkpt><trkpt lat="45.6853486" lon="8.2113854"><ele>534.0</ele><time>2026-04-12T08:40:37.76Z</time></trkpt><trkpt lat="45.6853808" lon="8.2114743"><ele>534.6</ele><time>2026-04-12T08:40:38.76Z</time></trkpt><trkpt lat="45.6854325" lon="8.2115744"><ele>535.2</ele><time>2026-04-12T08:40:40.759Z</time></trkpt><trkpt lat="45.685502" lon="8.2116879"><ele>535.8000000000001</ele><time>2026-04-12T08:40:42.759Z</time></trkpt><trkpt lat="45.6855854" lon="8.2117633"><ele>536.4</ele><time>2026-04-12T08:40:44.76Z</time></trkpt><trkpt lat="45.6855996" lon="8.2116281"><ele>537.0</ele><time>2026-04-12T08:40:48.759Z</time></trkpt><trkpt lat="45.6856096" lon="8.2114613"><ele>537.8000000000001</ele><time>2026-04-12T08:40:50.759Z</time></trkpt><trkpt lat="45.6856252" lon="8.2112997"><ele>538.6</ele><time>2026-04-12T08:40:52.76Z</time></trkpt><trkpt lat="45.685575" lon="8.2111815"><ele>539.4000000000001</ele><time>2026-04-12T08:40:54.76Z</time></trkpt><trkpt lat="45.6855208" lon="8.2111083"><ele>540.2</ele><time>2026-04-12T08:40:56.759Z</time></trkpt><trkpt lat="45.6854664" lon="8.211029"><ele>541.0</ele><time>2026-04-12T08:40:58.759Z</time></trkpt><trkpt lat="45.6854759" lon="8.2108938"><ele>541.0</ele><time>2026-04-12T08:41:00.759Z</time></trkpt><trkpt lat="45.6855215" lon="8.2107477"><ele>541.0</ele><time>2026-04-12T08:41:02.76Z</time></trkpt><trkpt lat="45.6855373" lon="8.2106461"><ele>541.0</ele><time>2026-04-12T08:41:03.759Z</time></trkpt><trkpt lat="45.6855528" lon="8.210557"><ele>541.0</ele><time>2026-04-12T08:41:04.759Z</time></trkpt><trkpt lat="45.6855838" lon="8.2104618"><ele>541.0</ele><time>2026-04-12T08:41:05.76Z</time></trkpt><trkpt lat="45.6856593" lon="8.2103262"><ele>541.0</ele><time>2026-04-12T08:41:07.759Z</time></trkpt><trkpt lat="45.6857122" lon="8.2101628"><ele>540.8333333333334</ele><time>2026-04-12T08:41:09.759Z</time></trkpt><trkpt lat="45.6857641" lon="8.2100769"><ele>540.6666666666667</ele><time>2026-04-12T08:41:10.76Z</time></trkpt><trkpt lat="45.6858047" lon="8.2099639"><ele>540.5</ele><time>2026-04-12T08:41:11.76Z</time></trkpt><trkpt lat="45.6858517" lon="8.209901"><ele>540.3333333333334</ele><time>2026-04-12T08:41:12.76Z</time></trkpt><trkpt lat="45.685899" lon="8.2098343"><ele>540.1666666666666</ele><time>2026-04-12T08:41:13.76Z</time></trkpt><trkpt lat="45.6859951" lon="8.2097642"><ele>540.0</ele><time>2026-04-12T08:41:15.76Z</time></trkpt><trkpt lat="45.6860674" lon="8.2096808"><ele>540.3333333333334</ele><time>2026-04-12T08:41:17.76Z</time></trkpt><trkpt lat="45.6860996" lon="8.209601"><ele>540.6666666666666</ele><time>2026-04-12T08:41:19.76Z</time></trkpt><trkpt lat="45.6861138" lon="8.2094734"><ele>541.0</ele><time>2026-04-12T08:41:21.759Z</time></trkpt><trkpt lat="45.6861101" lon="8.2093577"><ele>541.3333333333333</ele><time>2026-04-12T08:41:23.76Z</time></trkpt><trkpt lat="45.6861581" lon="8.2092442"><ele>541.6666666666666</ele><time>2026-04-12T08:41:25.759Z</time></trkpt><trkpt lat="45.6861827" lon="8.2091083"><ele>542.0</ele><time>2026-04-12T08:41:27.76Z</time></trkpt><trkpt lat="45.6862069" lon="8.2089882"><ele>542.0</ele><time>2026-04-12T08:41:29.76Z</time></trkpt><trkpt lat="45.6862281" lon="8.2089017"><ele>542.0</ele><time>2026-04-12T08:41:30.759Z</time></trkpt><trkpt lat="45.6862803" lon="8.208715"><ele>542.0</ele><time>2026-04-12T08:41:32.76Z</time></trkpt><trkpt lat="45.686301" lon="8.2086268"><ele>542.0</ele><time>2026-04-12T08:41:33.759Z</time></trkpt><trkpt lat="45.6863286" lon="8.2085152"><ele>542.0</ele><time>2026-04-12T08:41:34.76Z</time></trkpt><trkpt lat="45.6863625" lon="8.2084238"><ele>542.0</ele><time>2026-04-12T08:41:35.758Z</time></trkpt><trkpt lat="45.6864014" lon="8.2083408"><ele>542.0</ele><time>2026-04-12T08:41:36.76Z</time></trkpt><trkpt lat="45.6864569" lon="8.208223"><ele>542.0</ele><time>2026-04-12T08:41:38.76Z</time></trkpt><trkpt lat="45.6865085" lon="8.2080665"><ele>542.0</ele><time>2026-04-12T08:41:40.76Z</time></trkpt><trkpt lat="45.6864988" lon="8.2079592"><ele>542.0</ele><time>2026-04-12T08:41:41.76Z</time></trkpt><trkpt lat="45.6865101" lon="8.2078664"><ele>542.0</ele><time>2026-04-12T08:41:42.76Z</time></trkpt><trkpt lat="45.68653" lon="8.2077763"><ele>542.0</ele><time>2026-04-12T08:41:43.76Z</time></trkpt><trkpt lat="45.6865626" lon="8.2076825"><ele>544.0</ele><time>2026-04-12T08:41:44.759Z</time></trkpt><trkpt lat="45.6866053" lon="8.2075902"><ele>546.0</ele><time>2026-04-12T08:41:45.76Z</time></trkpt><trkpt lat="45.6866515" lon="8.2075155"><ele>548.0</ele><time>2026-04-12T08:41:46.759Z</time></trkpt><trkpt lat="45.6866853" lon="8.207439"><ele>550.0</ele><time>2026-04-12T08:41:47.76Z</time></trkpt><trkpt lat="45.6867394" lon="8.2073004"><ele>552.0</ele><time>2026-04-12T08:41:49.76Z</time></trkpt><trkpt lat="45.6867725" lon="8.2071631"><ele>554.0</ele><time>2026-04-12T08:41:51.759Z</time></trkpt><trkpt lat="45.686816" lon="8.2070337"><ele>556.6</ele><time>2026-04-12T08:41:53.76Z</time></trkpt><trkpt lat="45.6868582" lon="8.2069079"><ele>559.2</ele><time>2026-04-12T08:41:55.76Z</time></trkpt><trkpt lat="45.6869162" lon="8.2068063"><ele>561.8000000000001</ele><time>2026-04-12T08:41:57.76Z</time></trkpt><trkpt lat="45.6869602" lon="8.2067023"><ele>564.4</ele><time>2026-04-12T08:41:59.759Z</time></trkpt><trkpt lat="45.6869932" lon="8.2065521"><ele>567.0</ele><time>2026-04-12T08:42:01.76Z</time></trkpt><trkpt lat="45.6870538" lon="8.2064472"><ele>569.3333333333334</ele><time>2026-04-12T08:42:03.76Z</time></trkpt><trkpt lat="45.6871095" lon="8.2063587"><ele>571.6666666666666</ele><time>2026-04-12T08:42:05.76Z</time></trkpt><trkpt lat="45.6871259" lon="8.2062401"><ele>574.0</ele><time>2026-04-12T08:42:08.76Z</time></trkpt><trkpt lat="45.6870831" lon="8.2063231"><ele>576.3333333333333</ele><time>2026-04-12T08:42:18.76Z</time></trkpt><trkpt lat="45.6870498" lon="8.2062383"><ele>578.6666666666666</ele><time>2026-04-12T08:42:33.76Z</time></trkpt><trkpt lat="45.6870373" lon="8.2061097"><ele>581.0</ele><time>2026-04-12T08:42:37.76Z</time></trkpt><trkpt lat="45.6870211" lon="8.2060075"><ele>581.0</ele><time>2026-04-12T08:42:40.76Z</time></trkpt><trkpt lat="45.6870159" lon="8.2059055"><ele>581.0</ele><time>2026-04-12T08:42:43.759Z</time></trkpt><trkpt lat="45.6870529" lon="8.2058178"><ele>581.0</ele><time>2026-04-12T08:42:45.76Z</time></trkpt><trkpt lat="45.6871375" lon="8.2057437"><ele>581.0</ele><time>2026-04-12T08:42:47.76Z</time></trkpt><trkpt lat="45.6872017" lon="8.2056564"><ele>581.0</ele><time>2026-04-12T08:42:49.76Z</time></trkpt><trkpt lat="45.6872843" lon="8.2056041"><ele>581.0</ele><time>2026-04-12T08:42:51.76Z</time></trkpt><trkpt lat="45.6873166" lon="8.2055033"><ele>582.0</ele><time>2026-04-12T08:42:53.76Z</time></trkpt><trkpt lat="45.6873802" lon="8.2054486"><ele>583.0</ele><time>2026-04-12T08:42:57.759Z</time></trkpt><trkpt lat="45.6874404" lon="8.2053405"><ele>584.0</ele><time>2026-04-12T08:43:00.759Z</time></trkpt><trkpt lat="45.6874634" lon="8.2052282"><ele>585.0</ele><time>2026-04-12T08:43:02.76Z</time></trkpt><trkpt lat="45.6875246" lon="8.2051201"><ele>586.0</ele><time>2026-04-12T08:43:05.76Z</time></trkpt><trkpt lat="45.687617" lon="8.2051301"><ele>587.0</ele><time>2026-04-12T08:43:09.76Z</time></trkpt><trkpt lat="45.6876987" lon="8.2051496"><ele>587.0</ele><time>2026-04-12T08:43:11.76Z</time></trkpt><trkpt lat="45.6878038" lon="8.2051414"><ele>587.0</ele><time>2026-04-12T08:43:13.76Z</time></trkpt><trkpt lat="45.6878843" lon="8.2051534"><ele>587.0</ele><time>2026-04-12T08:43:15.76Z</time></trkpt><trkpt lat="45.6879906" lon="8.2050714"><ele>587.0</ele><time>2026-04-12T08:43:18.76Z</time></trkpt><trkpt lat="45.6880618" lon="8.2049484"><ele>587.0</ele><time>2026-04-12T08:43:20.76Z</time></trkpt><trkpt lat="45.6881514" lon="8.2048671"><ele>586.4</ele><time>2026-04-12T08:43:22.76Z</time></trkpt><trkpt lat="45.6882792" lon="8.2047893"><ele>585.8000000000001</ele><time>2026-04-12T08:43:24.76Z</time></trkpt><trkpt lat="45.688369" lon="8.2047427"><ele>585.2</ele><time>2026-04-12T08:43:25.761Z</time></trkpt><trkpt lat="45.6884522" lon="8.2046945"><ele>584.6</ele><time>2026-04-12T08:43:26.759Z</time></trkpt><trkpt lat="45.6885354" lon="8.2046531"><ele>584.0</ele><time>2026-04-12T08:43:27.76Z</time></trkpt><trkpt lat="45.68865" lon="8.2046175"><ele>584.0</ele><time>2026-04-12T08:43:29.76Z</time></trkpt><trkpt lat="45.6887248" lon="8.2045799"><ele>584.0</ele><time>2026-04-12T08:43:32.76Z</time></trkpt><trkpt lat="45.6887706" lon="8.2044918"><ele>584.0</ele><time>2026-04-12T08:43:34.76Z</time></trkpt><trkpt lat="45.6888401" lon="8.2043974"><ele>584.0</ele><time>2026-04-12T08:43:36.76Z</time></trkpt><trkpt lat="45.6889184" lon="8.2043342"><ele>584.0</ele><time>2026-04-12T08:43:38.76Z</time></trkpt><trkpt lat="45.6889798" lon="8.2043102"><ele>584.0</ele><time>2026-04-12T08:43:39.759Z</time></trkpt><trkpt lat="45.6890931" lon="8.2042998"><ele>584.0</ele><time>2026-04-12T08:43:41.76Z</time></trkpt><trkpt lat="45.6892173" lon="8.2043162"><ele>584.0</ele><time>2026-04-12T08:43:43.761Z</time></trkpt><trkpt lat="45.6893128" lon="8.2042846"><ele>584.0</ele><time>2026-04-12T08:43:45.76Z</time></trkpt><trkpt lat="45.6893588" lon="8.2042034"><ele>584.0</ele><time>2026-04-12T08:43:47.76Z</time></trkpt><trkpt lat="45.689379" lon="8.2041062"><ele>584.0</ele><time>2026-04-12T08:43:49.76Z</time></trkpt><trkpt lat="45.6894422" lon="8.2040864"><ele>584.0</ele><time>2026-04-12T08:43:51.76Z</time></trkpt><trkpt lat="45.6895503" lon="8.2041535"><ele>586.6</ele><time>2026-04-12T08:43:53.76Z</time></trkpt><trkpt lat="45.6895975" lon="8.2042951"><ele>589.2</ele><time>2026-04-12T08:43:55.76Z</time></trkpt><trkpt lat="45.6896111" lon="8.2044452"><ele>591.8000000000001</ele><time>2026-04-12T08:43:57.76Z</time></trkpt><trkpt lat="45.689693" lon="8.2044944"><ele>594.4</ele><time>2026-04-12T08:44:00.76Z</time></trkpt><trkpt lat="45.6897776" lon="8.2043723"><ele>597.0</ele><time>2026-04-12T08:44:02.76Z</time></trkpt><trkpt lat="45.6898379" lon="8.2042675"><ele>597.0</ele><time>2026-04-12T08:44:03.76Z</time></trkpt><trkpt lat="45.6899007" lon="8.2041747"><ele>597.0</ele><time>2026-04-12T08:44:04.76Z</time></trkpt><trkpt lat="45.6899485" lon="8.2040311"><ele>597.0</ele><time>2026-04-12T08:44:05.76Z</time></trkpt><trkpt lat="45.6900093" lon="8.2038864"><ele>597.0</ele><time>2026-04-12T08:44:06.76Z</time></trkpt><trkpt lat="45.6900741" lon="8.2037597"><ele>597.0</ele><time>2026-04-12T08:44:07.76Z</time></trkpt><trkpt lat="45.6901441" lon="8.2036321"><ele>597.5</ele><time>2026-04-12T08:44:08.76Z</time></trkpt><trkpt lat="45.6902169" lon="8.2035186"><ele>598.0</ele><time>2026-04-12T08:44:09.76Z</time></trkpt><trkpt lat="45.6902666" lon="8.2034242"><ele>598.5</ele><time>2026-04-12T08:44:10.76Z</time></trkpt><trkpt lat="45.6903116" lon="8.2033195"><ele>599.0</ele><time>2026-04-12T08:44:11.759Z</time></trkpt><trkpt lat="45.6903523" lon="8.2032081"><ele>599.5</ele><time>2026-04-12T08:44:12.76Z</time></trkpt><trkpt lat="45.6903835" lon="8.2031064"><ele>600.0</ele><time>2026-04-12T08:44:13.76Z</time></trkpt><trkpt lat="45.6904211" lon="8.2030207"><ele>601.5</ele><time>2026-04-12T08:44:14.761Z</time></trkpt><trkpt lat="45.6904617" lon="8.202924"><ele>603.0</ele><time>2026-04-12T08:44:15.76Z</time></trkpt><trkpt lat="45.6905023" lon="8.2028214"><ele>604.5</ele><time>2026-04-12T08:44:16.76Z</time></trkpt><trkpt lat="45.6905453" lon="8.2027316"><ele>606.0</ele><time>2026-04-12T08:44:17.76Z</time></trkpt><trkpt lat="45.6906179" lon="8.202637"><ele>607.5</ele><time>2026-04-12T08:44:19.76Z</time></trkpt><trkpt lat="45.6907025" lon="8.2026673"><ele>609.0</ele><time>2026-04-12T08:44:21.76Z</time></trkpt><trkpt lat="45.6907647" lon="8.2027819"><ele>609.0</ele><time>2026-04-12T08:44:23.759Z</time></trkpt><trkpt lat="45.6908106" lon="8.2028654"><ele>609.0</ele><time>2026-04-12T08:44:24.76Z</time></trkpt><trkpt lat="45.6908744" lon="8.2029642"><ele>609.0</ele><time>2026-04-12T08:44:25.76Z</time></trkpt><trkpt lat="45.6909446" lon="8.2030705"><ele>609.0</ele><time>2026-04-12T08:44:26.76Z</time></trkpt><trkpt lat="45.6910009" lon="8.2031679"><ele>609.0</ele><time>2026-04-12T08:44:27.76Z</time></trkpt><trkpt lat="45.6910626" lon="8.2032586"><ele>609.0</ele><time>2026-04-12T08:44:28.76Z</time></trkpt><trkpt lat="45.6911377" lon="8.2033365"><ele>607.6</ele><time>2026-04-12T08:44:29.76Z</time></trkpt><trkpt lat="45.6912193" lon="8.2034137"><ele>606.2</ele><time>2026-04-12T08:44:30.76Z</time></trkpt><trkpt lat="45.6913222" lon="8.2034765"><ele>604.8000000000001</ele><time>2026-04-12T08:44:31.76Z</time></trkpt><trkpt lat="45.6914232" lon="8.2035361"><ele>603.4</ele><time>2026-04-12T08:44:32.759Z</time></trkpt><trkpt lat="45.6914995" lon="8.2035708"><ele>602.0</ele><time>2026-04-12T08:44:33.76Z</time></trkpt><trkpt lat="45.6915668" lon="8.2035714"><ele>602.0</ele><time>2026-04-12T08:44:34.76Z</time></trkpt><trkpt lat="45.6916336" lon="8.2035178"><ele>602.0</ele><time>2026-04-12T08:44:35.76Z</time></trkpt><trkpt lat="45.6917" lon="8.2034565"><ele>602.0</ele><time>2026-04-12T08:44:36.76Z</time></trkpt><trkpt lat="45.6917394" lon="8.2033687"><ele>602.0</ele><time>2026-04-12T08:44:37.76Z</time></trkpt><trkpt lat="45.6917792" lon="8.2032815"><ele>602.0</ele><time>2026-04-12T08:44:38.76Z</time></trkpt><trkpt lat="45.6917832" lon="8.2031871"><ele>602.0</ele><time>2026-04-12T08:44:39.759Z</time></trkpt><trkpt lat="45.6918033" lon="8.2031013"><ele>602.0</ele><time>2026-04-12T08:44:40.76Z</time></trkpt><trkpt lat="45.6919079" lon="8.203057"><ele>602.3333333333333</ele><time>2026-04-12T08:44:42.759Z</time></trkpt><trkpt lat="45.6919912" lon="8.2031501"><ele>602.6666666666666</ele><time>2026-04-12T08:44:44.76Z</time></trkpt><trkpt lat="45.6920496" lon="8.2031951"><ele>603.0</ele><time>2026-04-12T08:44:45.76Z</time></trkpt><trkpt lat="45.6921784" lon="8.2031751"><ele>603.3333333333334</ele><time>2026-04-12T08:44:47.758Z</time></trkpt><trkpt lat="45.6922427" lon="8.2031457"><ele>603.6666666666667</ele><time>2026-04-12T08:44:48.76Z</time></trkpt><trkpt lat="45.6923184" lon="8.2031067"><ele>604.0</ele><time>2026-04-12T08:44:49.761Z</time></trkpt><trkpt lat="45.692409" lon="8.203089"><ele>604.0</ele><time>2026-04-12T08:44:50.76Z</time></trkpt><trkpt lat="45.6924902" lon="8.2030754"><ele>604.0</ele><time>2026-04-12T08:44:51.76Z</time></trkpt><trkpt lat="45.6925561" lon="8.2030955"><ele>604.0</ele><time>2026-04-12T08:44:52.761Z</time></trkpt><trkpt lat="45.6926107" lon="8.2032256"><ele>604.0</ele><time>2026-04-12T08:44:54.76Z</time></trkpt><trkpt lat="45.6926112" lon="8.2033212"><ele>604.0</ele><time>2026-04-12T08:44:55.76Z</time></trkpt><trkpt lat="45.6925433" lon="8.2034797"><ele>604.0</ele><time>2026-04-12T08:44:57.76Z</time></trkpt><trkpt lat="45.6924998" lon="8.203546"><ele>604.0</ele><time>2026-04-12T08:44:58.759Z</time></trkpt><trkpt lat="45.6924057" lon="8.203673"><ele>604.0</ele><time>2026-04-12T08:45:00.76Z</time></trkpt><trkpt lat="45.6923801" lon="8.2037721"><ele>604.0</ele><time>2026-04-12T08:45:01.76Z</time></trkpt><trkpt lat="45.6923626" lon="8.2039047"><ele>604.0</ele><time>2026-04-12T08:45:02.761Z</time></trkpt><trkpt lat="45.6923448" lon="8.2040277"><ele>604.0</ele><time>2026-04-12T08:45:03.76Z</time></trkpt><trkpt lat="45.692339" lon="8.2041378"><ele>602.6</ele><time>2026-04-12T08:45:04.76Z</time></trkpt><trkpt lat="45.6923869" lon="8.2043166"><ele>601.2</ele><time>2026-04-12T08:45:06.76Z</time></trkpt><trkpt lat="45.6924284" lon="8.2044061"><ele>599.8000000000001</ele><time>2026-04-12T08:45:07.76Z</time></trkpt><trkpt lat="45.6925025" lon="8.2045229"><ele>598.4</ele><time>2026-04-12T08:45:09.76Z</time></trkpt><trkpt lat="45.6925969" lon="8.2044821"><ele>597.0</ele><time>2026-04-12T08:45:11.76Z</time></trkpt><trkpt lat="45.6926573" lon="8.2044385"><ele>597.0</ele><time>2026-04-12T08:45:12.76Z</time></trkpt><trkpt lat="45.6927306" lon="8.2043796"><ele>597.0</ele><time>2026-04-12T08:45:13.759Z</time></trkpt><trkpt lat="45.6928305" lon="8.2043301"><ele>597.0</ele><time>2026-04-12T08:45:14.76Z</time></trkpt><trkpt lat="45.6929252" lon="8.2042787"><ele>597.0</ele><time>2026-04-12T08:45:15.76Z</time></trkpt><trkpt lat="45.6930148" lon="8.2041947"><ele>597.0</ele><time>2026-04-12T08:45:16.76Z</time></trkpt><trkpt lat="45.693103" lon="8.204119"><ele>597.5</ele><time>2026-04-12T08:45:17.76Z</time></trkpt><trkpt lat="45.6931833" lon="8.2040686"><ele>598.0</ele><time>2026-04-12T08:45:18.76Z</time></trkpt><trkpt lat="45.6932744" lon="8.2040617"><ele>598.5</ele><time>2026-04-12T08:45:19.76Z</time></trkpt><trkpt lat="45.6933596" lon="8.2040739"><ele>599.0</ele><time>2026-04-12T08:45:20.761Z</time></trkpt><trkpt lat="45.6934419" lon="8.2040651"><ele>599.5</ele><time>2026-04-12T08:45:21.76Z</time></trkpt><trkpt lat="45.6935211" lon="8.2040053"><ele>600.0</ele><time>2026-04-12T08:45:22.759Z</time></trkpt><trkpt lat="45.6935857" lon="8.2039472"><ele>601.1666666666666</ele><time>2026-04-12T08:45:23.76Z</time></trkpt><trkpt lat="45.693647" lon="8.2039183"><ele>602.3333333333334</ele><time>2026-04-12T08:45:24.76Z</time></trkpt><trkpt lat="45.693779" lon="8.2039275"><ele>603.5</ele><time>2026-04-12T08:45:26.76Z</time></trkpt><trkpt lat="45.6938534" lon="8.203945"><ele>604.6666666666667</ele><time>2026-04-12T08:45:27.76Z</time></trkpt><trkpt lat="45.6939316" lon="8.2039661"><ele>605.8333333333334</ele><time>2026-04-12T08:45:28.759Z</time></trkpt><trkpt lat="45.6940053" lon="8.2039831"><ele>607.0</ele><time>2026-04-12T08:45:29.76Z</time></trkpt><trkpt lat="45.69407" lon="8.2041019"><ele>607.0</ele><time>2026-04-12T08:45:31.76Z</time></trkpt><trkpt lat="45.6940256" lon="8.2041839"><ele>607.0</ele><time>2026-04-12T08:45:32.76Z</time></trkpt><trkpt lat="45.6939194" lon="8.2042993"><ele>607.0</ele><time>2026-04-12T08:45:34.761Z</time></trkpt><trkpt lat="45.6938384" lon="8.2043528"><ele>607.0</ele><time>2026-04-12T08:45:35.76Z</time></trkpt><trkpt lat="45.6937655" lon="8.2044271"><ele>607.0</ele><time>2026-04-12T08:45:36.76Z</time></trkpt><trkpt lat="45.6936852" lon="8.2045276"><ele>607.0</ele><time>2026-04-12T08:45:37.76Z</time></trkpt><trkpt lat="45.6936207" lon="8.2046159"><ele>607.0</ele><time>2026-04-12T08:45:38.76Z</time></trkpt><trkpt lat="45.693566" lon="8.2046896"><ele>607.0</ele><time>2026-04-12T08:45:39.76Z</time></trkpt><trkpt lat="45.6935283" lon="8.2047688"><ele>607.0</ele><time>2026-04-12T08:45:40.76Z</time></trkpt><trkpt lat="45.6934581" lon="8.2048727"><ele>607.0</ele><time>2026-04-12T08:45:42.76Z</time></trkpt><trkpt lat="45.6933761" lon="8.2048983"><ele>607.0</ele><time>2026-04-12T08:45:44.761Z</time></trkpt><trkpt lat="45.6932907" lon="8.2049624"><ele>602.6</ele><time>2026-04-12T08:45:46.761Z</time></trkpt><trkpt lat="45.6932203" lon="8.2050963"><ele>598.2</ele><time>2026-04-12T08:45:48.76Z</time></trkpt><trkpt lat="45.6931812" lon="8.2051793"><ele>593.8</ele><time>2026-04-12T08:45:49.76Z</time></trkpt><trkpt lat="45.6931331" lon="8.2052753"><ele>589.4</ele><time>2026-04-12T08:45:50.76Z</time></trkpt><trkpt lat="45.6930776" lon="8.2053829"><ele>585.0</ele><time>2026-04-12T08:45:51.759Z</time></trkpt><trkpt lat="45.6930272" lon="8.2054855"><ele>585.0</ele><time>2026-04-12T08:45:52.761Z</time></trkpt><trkpt lat="45.6929776" lon="8.2055961"><ele>585.0</ele><time>2026-04-12T08:45:53.76Z</time></trkpt><trkpt lat="45.6929253" lon="8.2056966"><ele>585.0</ele><time>2026-04-12T08:45:54.761Z</time></trkpt><trkpt lat="45.6928765" lon="8.2058109"><ele>585.0</ele><time>2026-04-12T08:45:55.761Z</time></trkpt><trkpt lat="45.6928408" lon="8.2059217"><ele>585.0</ele><time>2026-04-12T08:45:56.76Z</time></trkpt><trkpt lat="45.6928023" lon="8.206039"><ele>585.0</ele><time>2026-04-12T08:45:57.76Z</time></trkpt><trkpt lat="45.6927706" lon="8.2061666"><ele>583.5</ele><time>2026-04-12T08:45:58.761Z</time></trkpt><trkpt lat="45.6927453" lon="8.2062969"><ele>582.0</ele><time>2026-04-12T08:45:59.761Z</time></trkpt><trkpt lat="45.6927145" lon="8.2064225"><ele>580.5</ele><time>2026-04-12T08:46:00.76Z</time></trkpt><trkpt lat="45.6926823" lon="8.2065344"><ele>579.0</ele><time>2026-04-12T08:46:01.76Z</time></trkpt><trkpt lat="45.692659" lon="8.2066521"><ele>577.5</ele><time>2026-04-12T08:46:02.76Z</time></trkpt><trkpt lat="45.6926471" lon="8.2067656"><ele>576.0</ele><time>2026-04-12T08:46:03.759Z</time></trkpt><trkpt lat="45.6926334" lon="8.2068801"><ele>575.6666666666666</ele><time>2026-04-12T08:46:04.76Z</time></trkpt><trkpt lat="45.6926222" lon="8.2070085"><ele>575.3333333333334</ele><time>2026-04-12T08:46:05.76Z</time></trkpt><trkpt lat="45.6926009" lon="8.2071183"><ele>575.0</ele><time>2026-04-12T08:46:06.761Z</time></trkpt><trkpt lat="45.6925717" lon="8.2072208"><ele>574.6666666666667</ele><time>2026-04-12T08:46:07.76Z</time></trkpt><trkpt lat="45.6925374" lon="8.2073014"><ele>574.3333333333334</ele><time>2026-04-12T08:46:08.76Z</time></trkpt><trkpt lat="45.6924968" lon="8.2074565"><ele>574.0</ele><time>2026-04-12T08:46:10.761Z</time></trkpt><trkpt lat="45.6924719" lon="8.2076336"><ele>573.8571428571429</ele><time>2026-04-12T08:46:12.76Z</time></trkpt><trkpt lat="45.6924634" lon="8.2077276"><ele>573.7142857142858</ele><time>2026-04-12T08:46:13.76Z</time></trkpt><trkpt lat="45.6924535" lon="8.2078279"><ele>573.5714285714286</ele><time>2026-04-12T08:46:14.76Z</time></trkpt><trkpt lat="45.6924349" lon="8.20793"><ele>573.4285714285714</ele><time>2026-04-12T08:46:15.76Z</time></trkpt><trkpt lat="45.6924149" lon="8.2080308"><ele>573.2857142857143</ele><time>2026-04-12T08:46:16.76Z</time></trkpt><trkpt lat="45.6923896" lon="8.2081383"><ele>573.1428571428571</ele><time>2026-04-12T08:46:17.76Z</time></trkpt><trkpt lat="45.6923608" lon="8.2082347"><ele>573.0</ele><time>2026-04-12T08:46:18.761Z</time></trkpt><trkpt lat="45.6923291" lon="8.2083335"><ele>572.6666666666666</ele><time>2026-04-12T08:46:19.76Z</time></trkpt><trkpt lat="45.6922956" lon="8.2084352"><ele>572.3333333333334</ele><time>2026-04-12T08:46:20.76Z</time></trkpt><trkpt lat="45.6922604" lon="8.2085336"><ele>572.0</ele><time>2026-04-12T08:46:21.759Z</time></trkpt><trkpt lat="45.6922276" lon="8.2086424"><ele>571.6666666666667</ele><time>2026-04-12T08:46:22.76Z</time></trkpt><trkpt lat="45.6921928" lon="8.2087549"><ele>571.3333333333334</ele><time>2026-04-12T08:46:23.761Z</time></trkpt><trkpt lat="45.6921547" lon="8.2088718"><ele>571.0</ele><time>2026-04-12T08:46:24.76Z</time></trkpt><trkpt lat="45.6921232" lon="8.2089858"><ele>569.6666666666667</ele><time>2026-04-12T08:46:25.76Z</time></trkpt><trkpt lat="45.6920932" lon="8.2090993"><ele>568.3333333333334</ele><time>2026-04-12T08:46:26.76Z</time></trkpt><trkpt lat="45.6920753" lon="8.2092315"><ele>567.0</ele><time>2026-04-12T08:46:27.76Z</time></trkpt><trkpt lat="45.6920856" lon="8.2093327"><ele>565.6666666666666</ele><time>2026-04-12T08:46:28.759Z</time></trkpt><trkpt lat="45.6921131" lon="8.2094275"><ele>564.3333333333333</ele><time>2026-04-12T08:46:29.761Z</time></trkpt><trkpt lat="45.6921654" lon="8.2094952"><ele>563.0</ele><time>2026-04-12T08:46:30.76Z</time></trkpt><trkpt lat="45.6922492" lon="8.2094473"><ele>563.0</ele><time>2026-04-12T08:46:31.76Z</time></trkpt><trkpt lat="45.6923076" lon="8.2093877"><ele>563.0</ele><time>2026-04-12T08:46:32.76Z</time></trkpt><trkpt lat="45.6923638" lon="8.2093384"><ele>563.0</ele><time>2026-04-12T08:46:33.76Z</time></trkpt><trkpt lat="45.6924097" lon="8.2092684"><ele>563.0</ele><time>2026-04-12T08:46:34.76Z</time></trkpt><trkpt lat="45.6924463" lon="8.2091871"><ele>563.0</ele><time>2026-04-12T08:46:35.762Z</time></trkpt><trkpt lat="45.6924971" lon="8.2091165"><ele>563.0</ele><time>2026-04-12T08:46:36.76Z</time></trkpt><trkpt lat="45.6926083" lon="8.2090499"><ele>563.0</ele><time>2026-04-12T08:46:38.76Z</time></trkpt><trkpt lat="45.692683" lon="8.2090434"><ele>563.0</ele><time>2026-04-12T08:46:39.759Z</time></trkpt><trkpt lat="45.6927845" lon="8.2090931"><ele>563.0</ele><time>2026-04-12T08:46:40.759Z</time></trkpt><trkpt lat="45.6928823" lon="8.2091288"><ele>563.0</ele><time>2026-04-12T08:46:41.76Z</time></trkpt><trkpt lat="45.69297" lon="8.2091717"><ele>563.0</ele><time>2026-04-12T08:46:42.76Z</time></trkpt><trkpt lat="45.6930302" lon="8.2092622"><ele>562.1666666666666</ele><time>2026-04-12T08:46:43.76Z</time></trkpt><trkpt lat="45.6930968" lon="8.2093665"><ele>561.3333333333333</ele><time>2026-04-12T08:46:44.76Z</time></trkpt><trkpt lat="45.6931426" lon="8.2094696"><ele>560.5</ele><time>2026-04-12T08:46:45.76Z</time></trkpt><trkpt lat="45.6931754" lon="8.2095825"><ele>559.6666666666666</ele><time>2026-04-12T08:46:46.76Z</time></trkpt><trkpt lat="45.6931828" lon="8.2096852"><ele>558.8333333333334</ele><time>2026-04-12T08:46:47.76Z</time></trkpt><trkpt lat="45.6931595" lon="8.209783"><ele>558.0</ele><time>2026-04-12T08:46:48.759Z</time></trkpt><trkpt lat="45.6931171" lon="8.2098681"><ele>555.6</ele><time>2026-04-12T08:46:49.761Z</time></trkpt><trkpt lat="45.6930162" lon="8.2098967"><ele>553.1999999999999</ele><time>2026-04-12T08:46:50.76Z</time></trkpt><trkpt lat="45.692928" lon="8.2099315"><ele>550.8</ele><time>2026-04-12T08:46:51.759Z</time></trkpt><trkpt lat="45.6928564" lon="8.2099558"><ele>548.4</ele><time>2026-04-12T08:46:52.759Z</time></trkpt><trkpt lat="45.6927797" lon="8.2100513"><ele>546.0</ele><time>2026-04-12T08:46:54.76Z</time></trkpt><trkpt lat="45.6928411" lon="8.2101565"><ele>546.0</ele><time>2026-04-12T08:46:56.76Z</time></trkpt><trkpt lat="45.6929632" lon="8.2101591"><ele>546.0</ele><time>2026-04-12T08:46:58.76Z</time></trkpt><trkpt lat="45.6930372" lon="8.2101499"><ele>546.0</ele><time>2026-04-12T08:46:59.76Z</time></trkpt><trkpt lat="45.693109" lon="8.2101506"><ele>546.0</ele><time>2026-04-12T08:47:00.759Z</time></trkpt><trkpt lat="45.693185" lon="8.2101533"><ele>546.0</ele><time>2026-04-12T08:47:01.76Z</time></trkpt><trkpt lat="45.6932698" lon="8.2101797"><ele>546.0</ele><time>2026-04-12T08:47:02.759Z</time></trkpt><trkpt lat="45.6933454" lon="8.2101555"><ele>546.0</ele><time>2026-04-12T08:47:03.759Z</time></trkpt><trkpt lat="45.6934135" lon="8.2101516"><ele>546.0</ele><time>2026-04-12T08:47:04.76Z</time></trkpt><trkpt lat="45.6935245" lon="8.2102383"><ele>546.0</ele><time>2026-04-12T08:47:06.76Z</time></trkpt><trkpt lat="45.6935482" lon="8.2103328"><ele>546.0</ele><time>2026-04-12T08:47:07.761Z</time></trkpt><trkpt lat="45.6935506" lon="8.2104357"><ele>546.0</ele><time>2026-04-12T08:47:08.761Z</time></trkpt><trkpt lat="45.6935417" lon="8.2105436"><ele>546.0</ele><time>2026-04-12T08:47:09.76Z</time></trkpt><trkpt lat="45.6935179" lon="8.2106472"><ele>545.5</ele><time>2026-04-12T08:47:10.76Z</time></trkpt><trkpt lat="45.6935061" lon="8.2107565"><ele>545.0</ele><time>2026-04-12T08:47:11.76Z</time></trkpt><trkpt lat="45.6935041" lon="8.2108679"><ele>544.5</ele><time>2026-04-12T08:47:12.76Z</time></trkpt><trkpt lat="45.6935237" lon="8.2109669"><ele>544.0</ele><time>2026-04-12T08:47:13.76Z</time></trkpt><trkpt lat="45.6936266" lon="8.2110501"><ele>543.5</ele><time>2026-04-12T08:47:15.76Z</time></trkpt><trkpt lat="45.693698" lon="8.2110487"><ele>543.0</ele><time>2026-04-12T08:47:16.76Z</time></trkpt><trkpt lat="45.6937766" lon="8.2110336"><ele>543.0</ele><time>2026-04-12T08:47:17.76Z</time></trkpt><trkpt lat="45.6938652" lon="8.2110069"><ele>543.0</ele><time>2026-04-12T08:47:18.76Z</time></trkpt><trkpt lat="45.6939501" lon="8.2109659"><ele>543.0</ele><time>2026-04-12T08:47:19.76Z</time></trkpt><trkpt lat="45.6940299" lon="8.2109217"><ele>543.0</ele><time>2026-04-12T08:47:20.76Z</time></trkpt><trkpt lat="45.6941034" lon="8.2108847"><ele>543.0</ele><time>2026-04-12T08:47:21.761Z</time></trkpt><trkpt lat="45.6941788" lon="8.2108953"><ele>543.0</ele><time>2026-04-12T08:47:22.76Z</time></trkpt><trkpt lat="45.6942353" lon="8.2109459"><ele>543.0</ele><time>2026-04-12T08:47:23.76Z</time></trkpt><trkpt lat="45.6942528" lon="8.2110334"><ele>543.0</ele><time>2026-04-12T08:47:24.76Z</time></trkpt><trkpt lat="45.6942512" lon="8.2111434"><ele>543.0</ele><time>2026-04-12T08:47:25.76Z</time></trkpt><trkpt lat="45.6942325" lon="8.2112602"><ele>543.0</ele><time>2026-04-12T08:47:26.759Z</time></trkpt><trkpt lat="45.6942143" lon="8.2113855"><ele>543.0</ele><time>2026-04-12T08:47:27.76Z</time></trkpt><trkpt lat="45.6941938" lon="8.2115126"><ele>543.0</ele><time>2026-04-12T08:47:28.761Z</time></trkpt><trkpt lat="45.6941604" lon="8.2116429"><ele>543.8</ele><time>2026-04-12T08:47:29.759Z</time></trkpt><trkpt lat="45.6941152" lon="8.2117568"><ele>544.5999999999999</ele><time>2026-04-12T08:47:30.76Z</time></trkpt><trkpt lat="45.6940565" lon="8.2118552"><ele>545.4000000000001</ele><time>2026-04-12T08:47:31.759Z</time></trkpt><trkpt lat="45.6939897" lon="8.2119455"><ele>546.2</ele><time>2026-04-12T08:47:32.76Z</time></trkpt><trkpt lat="45.6939163" lon="8.2120272"><ele>547.0</ele><time>2026-04-12T08:47:33.761Z</time></trkpt><trkpt lat="45.6938453" lon="8.2121077"><ele>547.0</ele><time>2026-04-12T08:47:34.761Z</time></trkpt><trkpt lat="45.6937751" lon="8.2121844"><ele>547.0</ele><time>2026-04-12T08:47:35.76Z</time></trkpt><trkpt lat="45.6937101" lon="8.2122666"><ele>547.0</ele><time>2026-04-12T08:47:36.76Z</time></trkpt><trkpt lat="45.6936426" lon="8.2123414"><ele>547.0</ele><time>2026-04-12T08:47:37.761Z</time></trkpt><trkpt lat="45.6935757" lon="8.2124243"><ele>547.0</ele><time>2026-04-12T08:47:38.759Z</time></trkpt><trkpt lat="45.6935113" lon="8.2124981"><ele>547.0</ele><time>2026-04-12T08:47:39.76Z</time></trkpt><trkpt lat="45.6934467" lon="8.2125589"><ele>547.8000000000001</ele><time>2026-04-12T08:47:40.76Z</time></trkpt><trkpt lat="45.6933977" lon="8.2126536"><ele>548.6</ele><time>2026-04-12T08:47:42.76Z</time></trkpt><trkpt lat="45.6934884" lon="8.2126615"><ele>549.4000000000001</ele><time>2026-04-12T08:47:45.761Z</time></trkpt><trkpt lat="45.6935919" lon="8.2125768"><ele>550.2</ele><time>2026-04-12T08:47:47.76Z</time></trkpt><trkpt lat="45.6936928" lon="8.2124797"><ele>551.0</ele><time>2026-04-12T08:47:49.759Z</time></trkpt><trkpt lat="45.6937802" lon="8.212397"><ele>551.0</ele><time>2026-04-12T08:47:51.76Z</time></trkpt><trkpt lat="45.693876" lon="8.2123487"><ele>551.0</ele><time>2026-04-12T08:47:53.76Z</time></trkpt><trkpt lat="45.6939769" lon="8.2123134"><ele>551.0</ele><time>2026-04-12T08:47:55.76Z</time></trkpt><trkpt lat="45.6940472" lon="8.212287"><ele>551.0</ele><time>2026-04-12T08:47:56.76Z</time></trkpt><trkpt lat="45.6941198" lon="8.2122604"><ele>551.0</ele><time>2026-04-12T08:47:57.761Z</time></trkpt><trkpt lat="45.6941952" lon="8.212227"><ele>551.0</ele><time>2026-04-12T08:47:58.761Z</time></trkpt><trkpt lat="45.6942738" lon="8.2121803"><ele>550.2</ele><time>2026-04-12T08:47:59.76Z</time></trkpt><trkpt lat="45.6943618" lon="8.2121334"><ele>549.4000000000001</ele><time>2026-04-12T08:48:00.76Z</time></trkpt><trkpt lat="45.6944508" lon="8.2120747"><ele>548.6</ele><time>2026-04-12T08:48:01.76Z</time></trkpt><trkpt lat="45.6945428" lon="8.2120055"><ele>547.8000000000001</ele><time>2026-04-12T08:48:02.76Z</time></trkpt><trkpt lat="45.6946338" lon="8.2119463"><ele>547.0</ele><time>2026-04-12T08:48:03.76Z</time></trkpt><trkpt lat="45.6947256" lon="8.2118974"><ele>549.4</ele><time>2026-04-12T08:48:04.76Z</time></trkpt><trkpt lat="45.6948139" lon="8.2118482"><ele>551.8000000000001</ele><time>2026-04-12T08:48:05.761Z</time></trkpt><trkpt lat="45.6949128" lon="8.2118457"><ele>554.2</ele><time>2026-04-12T08:48:06.759Z</time></trkpt><trkpt lat="45.695019" lon="8.2118125"><ele>556.6</ele><time>2026-04-12T08:48:07.759Z</time></trkpt><trkpt lat="45.6951196" lon="8.2117534"><ele>559.0</ele><time>2026-04-12T08:48:08.76Z</time></trkpt><trkpt lat="45.6952227" lon="8.2116897"><ele>561.0</ele><time>2026-04-12T08:48:09.76Z</time></trkpt><trkpt lat="45.6953242" lon="8.2116195"><ele>563.0</ele><time>2026-04-12T08:48:10.76Z</time></trkpt><trkpt lat="45.6954289" lon="8.2115663"><ele>565.0</ele><time>2026-04-12T08:48:11.76Z</time></trkpt><trkpt lat="45.6955391" lon="8.2115197"><ele>567.0</ele><time>2026-04-12T08:48:12.761Z</time></trkpt><trkpt lat="45.6956548" lon="8.2115144"><ele>567.0</ele><time>2026-04-12T08:48:13.761Z</time></trkpt><trkpt lat="45.6957715" lon="8.211535"><ele>567.0</ele><time>2026-04-12T08:48:14.76Z</time></trkpt><trkpt lat="45.6958951" lon="8.2115452"><ele>567.0</ele><time>2026-04-12T08:48:15.76Z</time></trkpt><trkpt lat="45.6960254" lon="8.2115337"><ele>567.0</ele><time>2026-04-12T08:48:16.76Z</time></trkpt><trkpt lat="45.6961457" lon="8.2114981"><ele>569.4</ele><time>2026-04-12T08:48:17.761Z</time></trkpt><trkpt lat="45.6962574" lon="8.2114564"><ele>571.8000000000001</ele><time>2026-04-12T08:48:18.76Z</time></trkpt><trkpt lat="45.6963574" lon="8.2114343"><ele>574.2</ele><time>2026-04-12T08:48:19.761Z</time></trkpt><trkpt lat="45.6964445" lon="8.2114301"><ele>576.6</ele><time>2026-04-12T08:48:20.76Z</time></trkpt><trkpt lat="45.6965095" lon="8.2114613"><ele>579.0</ele><time>2026-04-12T08:48:21.76Z</time></trkpt><trkpt lat="45.6965492" lon="8.2116163"><ele>579.0</ele><time>2026-04-12T08:48:23.759Z</time></trkpt><trkpt lat="45.6965081" lon="8.2117144"><ele>579.0</ele><time>2026-04-12T08:48:24.76Z</time></trkpt><trkpt lat="45.6964699" lon="8.2118121"><ele>579.0</ele><time>2026-04-12T08:48:25.761Z</time></trkpt><trkpt lat="45.6964342" lon="8.2119248"><ele>579.0</ele><time>2026-04-12T08:48:26.76Z</time></trkpt><trkpt lat="45.696407" lon="8.2120493"><ele>579.0</ele><time>2026-04-12T08:48:27.76Z</time></trkpt><trkpt lat="45.6964203" lon="8.212165"><ele>579.0</ele><time>2026-04-12T08:48:28.76Z</time></trkpt><trkpt lat="45.6964291" lon="8.2122748"><ele>576.6</ele><time>2026-04-12T08:48:29.76Z</time></trkpt><trkpt lat="45.6964955" lon="8.2123325"><ele>574.2</ele><time>2026-04-12T08:48:30.761Z</time></trkpt><trkpt lat="45.6965734" lon="8.2123819"><ele>571.8000000000001</ele><time>2026-04-12T08:48:31.76Z</time></trkpt><trkpt lat="45.696656" lon="8.212428"><ele>569.4</ele><time>2026-04-12T08:48:32.76Z</time></trkpt><trkpt lat="45.6967565" lon="8.212427"><ele>567.0</ele><time>2026-04-12T08:48:33.76Z</time></trkpt><trkpt lat="45.6968601" lon="8.2124091"><ele>568.4</ele><time>2026-04-12T08:48:34.761Z</time></trkpt><trkpt lat="45.6969576" lon="8.212346"><ele>569.8000000000001</ele><time>2026-04-12T08:48:35.761Z</time></trkpt><trkpt lat="45.6970341" lon="8.2122507"><ele>571.2</ele><time>2026-04-12T08:48:36.759Z</time></trkpt><trkpt lat="45.6971148" lon="8.2121534"><ele>572.6</ele><time>2026-04-12T08:48:37.761Z</time></trkpt><trkpt lat="45.6971968" lon="8.2120768"><ele>574.0</ele><time>2026-04-12T08:48:38.76Z</time></trkpt><trkpt lat="45.6972863" lon="8.2120231"><ele>577.6</ele><time>2026-04-12T08:48:39.76Z</time></trkpt><trkpt lat="45.6973854" lon="8.211984"><ele>581.2</ele><time>2026-04-12T08:48:40.76Z</time></trkpt><trkpt lat="45.6974802" lon="8.211954"><ele>584.8000000000001</ele><time>2026-04-12T08:48:41.76Z</time></trkpt><trkpt lat="45.6975709" lon="8.2119434"><ele>588.4</ele><time>2026-04-12T08:48:42.76Z</time></trkpt><trkpt lat="45.6976418" lon="8.2119394"><ele>592.0</ele><time>2026-04-12T08:48:43.761Z</time></trkpt><trkpt lat="45.6977452" lon="8.2118833"><ele>592.0</ele><time>2026-04-12T08:48:45.76Z</time></trkpt><trkpt lat="45.6977292" lon="8.2117539"><ele>592.0</ele><time>2026-04-12T08:48:47.761Z</time></trkpt><trkpt lat="45.6976008" lon="8.2117506"><ele>592.0</ele><time>2026-04-12T08:48:49.76Z</time></trkpt><trkpt lat="45.6975131" lon="8.2117598"><ele>592.0</ele><time>2026-04-12T08:48:50.761Z</time></trkpt><trkpt lat="45.6974256" lon="8.2117636"><ele>592.0</ele><time>2026-04-12T08:48:51.76Z</time></trkpt><trkpt lat="45.697336" lon="8.2117656"><ele>592.0</ele><time>2026-04-12T08:48:52.759Z</time></trkpt><trkpt lat="45.6972553" lon="8.2117396"><ele>592.0</ele><time>2026-04-12T08:48:53.76Z</time></trkpt><trkpt lat="45.6971829" lon="8.21169"><ele>592.0</ele><time>2026-04-12T08:48:54.759Z</time></trkpt><trkpt lat="45.697118" lon="8.2116156"><ele>592.0</ele><time>2026-04-12T08:48:55.759Z</time></trkpt><trkpt lat="45.6970716" lon="8.2115482"><ele>592.0</ele><time>2026-04-12T08:48:56.76Z</time></trkpt><trkpt lat="45.6970646" lon="8.2114185"><ele>592.0</ele><time>2026-04-12T08:48:58.759Z</time></trkpt><trkpt lat="45.6971378" lon="8.2114273"><ele>592.0</ele><time>2026-04-12T08:49:00.76Z</time></trkpt><trkpt lat="45.6972258" lon="8.2115513"><ele>592.0</ele><time>2026-04-12T08:49:02.761Z</time></trkpt><trkpt lat="45.6973657" lon="8.2115479"><ele>592.0</ele><time>2026-04-12T08:49:04.761Z</time></trkpt><trkpt lat="45.6974518" lon="8.2115195"><ele>592.0</ele><time>2026-04-12T08:49:05.761Z</time></trkpt><trkpt lat="45.6975314" lon="8.2114853"><ele>592.0</ele><time>2026-04-12T08:49:06.759Z</time></trkpt><trkpt lat="45.6976112" lon="8.211432"><ele>595.0</ele><time>2026-04-12T08:49:07.761Z</time></trkpt><trkpt lat="45.6976805" lon="8.211364"><ele>598.0</ele><time>2026-04-12T08:49:08.76Z</time></trkpt><trkpt lat="45.69775" lon="8.2112808"><ele>601.0</ele><time>2026-04-12T08:49:09.76Z</time></trkpt><trkpt lat="45.6978202" lon="8.2111998"><ele>604.0</ele><time>2026-04-12T08:49:10.761Z</time></trkpt><trkpt lat="45.6978959" lon="8.211122"><ele>607.0</ele><time>2026-04-12T08:49:11.761Z</time></trkpt><trkpt lat="45.6979785" lon="8.2110592"><ele>607.4</ele><time>2026-04-12T08:49:12.761Z</time></trkpt><trkpt lat="45.6980665" lon="8.2110187"><ele>607.8000000000001</ele><time>2026-04-12T08:49:13.76Z</time></trkpt><trkpt lat="45.6981625" lon="8.2109939"><ele>608.2</ele><time>2026-04-12T08:49:14.76Z</time></trkpt><trkpt lat="45.6982529" lon="8.2109711"><ele>608.6</ele><time>2026-04-12T08:49:15.76Z</time></trkpt><trkpt lat="45.6983403" lon="8.2109444"><ele>609.0</ele><time>2026-04-12T08:49:16.76Z</time></trkpt><trkpt lat="45.6984206" lon="8.2108937"><ele>609.0</ele><time>2026-04-12T08:49:17.76Z</time></trkpt><trkpt lat="45.6984976" lon="8.2108212"><ele>609.0</ele><time>2026-04-12T08:49:18.76Z</time></trkpt><trkpt lat="45.6985671" lon="8.2107344"><ele>609.0</ele><time>2026-04-12T08:49:19.761Z</time></trkpt><trkpt lat="45.6986225" lon="8.2106294"><ele>609.0</ele><time>2026-04-12T08:49:20.759Z</time></trkpt><trkpt lat="45.6986563" lon="8.2105134"><ele>609.0</ele><time>2026-04-12T08:49:21.761Z</time></trkpt><trkpt lat="45.698669" lon="8.210393"><ele>609.0</ele><time>2026-04-12T08:49:22.761Z</time></trkpt><trkpt lat="45.6986831" lon="8.210282"><ele>611.6666666666666</ele><time>2026-04-12T08:49:23.76Z</time></trkpt><trkpt lat="45.6987155" lon="8.2101946"><ele>614.3333333333334</ele><time>2026-04-12T08:49:24.76Z</time></trkpt><trkpt lat="45.6987676" lon="8.2101308"><ele>617.0</ele><time>2026-04-12T08:49:25.761Z</time></trkpt><trkpt lat="45.6988708" lon="8.2101743"><ele>619.6666666666667</ele><time>2026-04-12T08:49:27.76Z</time></trkpt><trkpt lat="45.6988996" lon="8.210257"><ele>622.3333333333334</ele><time>2026-04-12T08:49:28.76Z</time></trkpt><trkpt lat="45.69893" lon="8.2103447"><ele>625.0</ele><time>2026-04-12T08:49:29.761Z</time></trkpt><trkpt lat="45.6989414" lon="8.2104642"><ele>625.0</ele><time>2026-04-12T08:49:30.761Z</time></trkpt><trkpt lat="45.6989425" lon="8.2105829"><ele>625.0</ele><time>2026-04-12T08:49:31.76Z</time></trkpt><trkpt lat="45.698953" lon="8.2107119"><ele>625.0</ele><time>2026-04-12T08:49:32.76Z</time></trkpt><trkpt lat="45.6989581" lon="8.210836"><ele>625.0</ele><time>2026-04-12T08:49:33.76Z</time></trkpt><trkpt lat="45.6990082" lon="8.2109281"><ele>625.0</ele><time>2026-04-12T08:49:34.761Z</time></trkpt><trkpt lat="45.6990488" lon="8.2110225"><ele>625.0</ele><time>2026-04-12T08:49:35.76Z</time></trkpt><trkpt lat="45.6991447" lon="8.2110531"><ele>621.8</ele><time>2026-04-12T08:49:36.76Z</time></trkpt><trkpt lat="45.6992229" lon="8.2111146"><ele>618.6</ele><time>2026-04-12T08:49:37.759Z</time></trkpt><trkpt lat="45.6992565" lon="8.2112259"><ele>615.4</ele><time>2026-04-12T08:49:38.76Z</time></trkpt><trkpt lat="45.6992725" lon="8.2113396"><ele>612.2</ele><time>2026-04-12T08:49:39.761Z</time></trkpt><trkpt lat="45.6992763" lon="8.2114796"><ele>609.0</ele><time>2026-04-12T08:49:40.761Z</time></trkpt><trkpt lat="45.6992738" lon="8.21162"><ele>608.6</ele><time>2026-04-12T08:49:41.761Z</time></trkpt><trkpt lat="45.6992713" lon="8.2117653"><ele>608.2</ele><time>2026-04-12T08:49:42.759Z</time></trkpt><trkpt lat="45.6992592" lon="8.2119116"><ele>607.8000000000001</ele><time>2026-04-12T08:49:43.761Z</time></trkpt><trkpt lat="45.6992326" lon="8.2120434"><ele>607.4</ele><time>2026-04-12T08:49:44.761Z</time></trkpt><trkpt lat="45.6992048" lon="8.2121843"><ele>607.0</ele><time>2026-04-12T08:49:45.761Z</time></trkpt><trkpt lat="45.6991818" lon="8.2123261"><ele>607.0</ele><time>2026-04-12T08:49:46.76Z</time></trkpt><trkpt lat="45.6991813" lon="8.2124509"><ele>607.0</ele><time>2026-04-12T08:49:47.761Z</time></trkpt><trkpt lat="45.6991876" lon="8.212569"><ele>607.0</ele><time>2026-04-12T08:49:48.761Z</time></trkpt><trkpt lat="45.699197" lon="8.2126812"><ele>607.0</ele><time>2026-04-12T08:49:49.759Z</time></trkpt><trkpt lat="45.6992187" lon="8.2127917"><ele>607.0</ele><time>2026-04-12T08:49:50.761Z</time></trkpt><trkpt lat="45.699256" lon="8.2128982"><ele>607.0</ele><time>2026-04-12T08:49:51.761Z</time></trkpt><trkpt lat="45.6993014" lon="8.2129856"><ele>607.0</ele><time>2026-04-12T08:49:52.761Z</time></trkpt><trkpt lat="45.6993517" lon="8.2130545"><ele>607.0</ele><time>2026-04-12T08:49:53.76Z</time></trkpt><trkpt lat="45.6994101" lon="8.2131076"><ele>607.0</ele><time>2026-04-12T08:49:54.761Z</time></trkpt><trkpt lat="45.6994776" lon="8.213138"><ele>607.0</ele><time>2026-04-12T08:49:55.761Z</time></trkpt><trkpt lat="45.6995528" lon="8.2131533"><ele>607.0</ele><time>2026-04-12T08:49:56.761Z</time></trkpt><trkpt lat="45.6996334" lon="8.2131672"><ele>607.0</ele><time>2026-04-12T08:49:57.761Z</time></trkpt><trkpt lat="45.6997139" lon="8.2132008"><ele>608.8000000000001</ele><time>2026-04-12T08:49:58.759Z</time></trkpt><trkpt lat="45.6998002" lon="8.2132596"><ele>610.6</ele><time>2026-04-12T08:49:59.761Z</time></trkpt><trkpt lat="45.6998889" lon="8.2133118"><ele>612.4000000000001</ele><time>2026-04-12T08:50:00.76Z</time></trkpt><trkpt lat="45.6999778" lon="8.2133644"><ele>614.2</ele><time>2026-04-12T08:50:01.761Z</time></trkpt><trkpt lat="45.7000595" lon="8.2134201"><ele>616.0</ele><time>2026-04-12T08:50:02.76Z</time></trkpt><trkpt lat="45.7001457" lon="8.2134638"><ele>616.0</ele><time>2026-04-12T08:50:03.761Z</time></trkpt><trkpt lat="45.7002335" lon="8.2134782"><ele>616.0</ele><time>2026-04-12T08:50:04.761Z</time></trkpt><trkpt lat="45.7003114" lon="8.2134507"><ele>616.0</ele><time>2026-04-12T08:50:05.761Z</time></trkpt><trkpt lat="45.7003872" lon="8.2134346"><ele>616.0</ele><time>2026-04-12T08:50:06.761Z</time></trkpt><trkpt lat="45.7004656" lon="8.2134161"><ele>616.0</ele><time>2026-04-12T08:50:07.759Z</time></trkpt><trkpt lat="45.7005425" lon="8.2133932"><ele>616.0</ele><time>2026-04-12T08:50:08.76Z</time></trkpt><trkpt lat="45.700628" lon="8.2133613"><ele>618.0</ele><time>2026-04-12T08:50:09.76Z</time></trkpt><trkpt lat="45.7007106" lon="8.2133443"><ele>620.0</ele><time>2026-04-12T08:50:10.761Z</time></trkpt><trkpt lat="45.7007992" lon="8.213326"><ele>622.0</ele><time>2026-04-12T08:50:11.761Z</time></trkpt><trkpt lat="45.7008839" lon="8.2133302"><ele>624.0</ele><time>2026-04-12T08:50:12.76Z</time></trkpt><trkpt lat="45.7009514" lon="8.2133622"><ele>626.0</ele><time>2026-04-12T08:50:13.761Z</time></trkpt><trkpt lat="45.701" lon="8.2135216"><ele>626.0</ele><time>2026-04-12T08:50:15.76Z</time></trkpt><trkpt lat="45.7009885" lon="8.2136194"><ele>626.0</ele><time>2026-04-12T08:50:16.761Z</time></trkpt><trkpt lat="45.7009607" lon="8.2137269"><ele>626.0</ele><time>2026-04-12T08:50:17.76Z</time></trkpt><trkpt lat="45.7009271" lon="8.2138375"><ele>626.0</ele><time>2026-04-12T08:50:18.761Z</time></trkpt><trkpt lat="45.7008873" lon="8.2139525"><ele>626.0</ele><time>2026-04-12T08:50:19.761Z</time></trkpt><trkpt lat="45.7008539" lon="8.2140655"><ele>626.0</ele><time>2026-04-12T08:50:20.76Z</time></trkpt><trkpt lat="45.7008418" lon="8.214188"><ele>624.6666666666666</ele><time>2026-04-12T08:50:21.761Z</time></trkpt><trkpt lat="45.7008467" lon="8.2143114"><ele>623.3333333333333</ele><time>2026-04-12T08:50:22.76Z</time></trkpt><trkpt lat="45.7008473" lon="8.2144326"><ele>622.0</ele><time>2026-04-12T08:50:23.76Z</time></trkpt><trkpt lat="45.7008392" lon="8.2145304"><ele>620.6666666666666</ele><time>2026-04-12T08:50:24.76Z</time></trkpt><trkpt lat="45.7007702" lon="8.2146904"><ele>619.3333333333334</ele><time>2026-04-12T08:50:26.76Z</time></trkpt><trkpt lat="45.7007288" lon="8.2147769"><ele>618.0</ele><time>2026-04-12T08:50:27.759Z</time></trkpt><trkpt lat="45.7006986" lon="8.2148754"><ele>618.0</ele><time>2026-04-12T08:50:28.76Z</time></trkpt><trkpt lat="45.7006757" lon="8.2149679"><ele>618.0</ele><time>2026-04-12T08:50:29.76Z</time></trkpt><trkpt lat="45.70066" lon="8.2150601"><ele>618.0</ele><time>2026-04-12T08:50:30.76Z</time></trkpt><trkpt lat="45.7006374" lon="8.215234"><ele>618.0</ele><time>2026-04-12T08:50:32.76Z</time></trkpt><trkpt lat="45.7006335" lon="8.2153277"><ele>618.0</ele><time>2026-04-12T08:50:33.759Z</time></trkpt><trkpt lat="45.7006555" lon="8.2154204"><ele>618.0</ele><time>2026-04-12T08:50:34.761Z</time></trkpt><trkpt lat="45.7006585" lon="8.2155715"><ele>615.6666666666666</ele><time>2026-04-12T08:50:36.761Z</time></trkpt><trkpt lat="45.7005682" lon="8.2156609"><ele>613.3333333333334</ele><time>2026-04-12T08:50:38.76Z</time></trkpt><trkpt lat="45.7004968" lon="8.2156591"><ele>611.0</ele><time>2026-04-12T08:50:39.759Z</time></trkpt><trkpt lat="45.700426" lon="8.2156864"><ele>608.6666666666667</ele><time>2026-04-12T08:50:40.76Z</time></trkpt><trkpt lat="45.7003707" lon="8.2157583"><ele>606.3333333333334</ele><time>2026-04-12T08:50:41.761Z</time></trkpt><trkpt lat="45.7003417" lon="8.2158619"><ele>604.0</ele><time>2026-04-12T08:50:42.761Z</time></trkpt><trkpt lat="45.7003384" lon="8.215984"><ele>604.0</ele><time>2026-04-12T08:50:43.759Z</time></trkpt><trkpt lat="45.7003259" lon="8.2161195"><ele>604.0</ele><time>2026-04-12T08:50:44.76Z</time></trkpt><trkpt lat="45.7003033" lon="8.2162522"><ele>604.0</ele><time>2026-04-12T08:50:45.76Z</time></trkpt><trkpt lat="45.7002502" lon="8.2163926"><ele>604.0</ele><time>2026-04-12T08:50:46.761Z</time></trkpt><trkpt lat="45.700202" lon="8.2165251"><ele>604.0</ele><time>2026-04-12T08:50:47.76Z</time></trkpt><trkpt lat="45.7001513" lon="8.216664"><ele>601.4</ele><time>2026-04-12T08:50:48.76Z</time></trkpt><trkpt lat="45.7000705" lon="8.216769"><ele>598.8</ele><time>2026-04-12T08:50:49.76Z</time></trkpt><trkpt lat="45.6999918" lon="8.2168611"><ele>596.2</ele><time>2026-04-12T08:50:50.76Z</time></trkpt><trkpt lat="45.6999029" lon="8.2169463"><ele>593.6</ele><time>2026-04-12T08:50:51.761Z</time></trkpt><trkpt lat="45.699817" lon="8.2170051"><ele>591.0</ele><time>2026-04-12T08:50:52.76Z</time></trkpt><trkpt lat="45.6997421" lon="8.2170284"><ele>591.0</ele><time>2026-04-12T08:50:53.76Z</time></trkpt><trkpt lat="45.699639" lon="8.2170331"><ele>591.0</ele><time>2026-04-12T08:50:55.759Z</time></trkpt><trkpt lat="45.6995694" lon="8.2170307"><ele>591.0</ele><time>2026-04-12T08:50:57.76Z</time></trkpt><trkpt lat="45.6995202" lon="8.2171243"><ele>591.0</ele><time>2026-04-12T08:50:59.76Z</time></trkpt><trkpt lat="45.6995595" lon="8.2172435"><ele>591.0</ele><time>2026-04-12T08:51:01.76Z</time></trkpt><trkpt lat="45.6996812" lon="8.2172717"><ele>591.0</ele><time>2026-04-12T08:51:03.761Z</time></trkpt><trkpt lat="45.6997576" lon="8.2172421"><ele>591.0</ele><time>2026-04-12T08:51:04.761Z</time></trkpt><trkpt lat="45.6998336" lon="8.217217"><ele>591.0</ele><time>2026-04-12T08:51:05.761Z</time></trkpt><trkpt lat="45.6999225" lon="8.2172"><ele>591.0</ele><time>2026-04-12T08:51:06.759Z</time></trkpt><trkpt lat="45.7000051" lon="8.2171694"><ele>591.0</ele><time>2026-04-12T08:51:07.761Z</time></trkpt><trkpt lat="45.7000871" lon="8.2171374"><ele>591.0</ele><time>2026-04-12T08:51:08.76Z</time></trkpt><trkpt lat="45.7001632" lon="8.217092"><ele>591.0</ele><time>2026-04-12T08:51:09.76Z</time></trkpt><trkpt lat="45.7002355" lon="8.2170383"><ele>591.0</ele><time>2026-04-12T08:51:10.76Z</time></trkpt><trkpt lat="45.700304" lon="8.2169832"><ele>591.0</ele><time>2026-04-12T08:51:11.76Z</time></trkpt><trkpt lat="45.7003756" lon="8.2169542"><ele>591.0</ele><time>2026-04-12T08:51:12.76Z</time></trkpt><trkpt lat="45.7004421" lon="8.2169702"><ele>591.0</ele><time>2026-04-12T08:51:13.76Z</time></trkpt><trkpt lat="45.7005251" lon="8.2170834"><ele>591.0</ele><time>2026-04-12T08:51:15.761Z</time></trkpt><trkpt lat="45.7005407" lon="8.2171715"><ele>591.1666666666666</ele><time>2026-04-12T08:51:16.76Z</time></trkpt><trkpt lat="45.7005414" lon="8.2172768"><ele>591.3333333333334</ele><time>2026-04-12T08:51:17.759Z</time></trkpt><trkpt lat="45.7005692" lon="8.2173905"><ele>591.5</ele><time>2026-04-12T08:51:18.76Z</time></trkpt><trkpt lat="45.7006158" lon="8.2174929"><ele>591.6666666666667</ele><time>2026-04-12T08:51:19.761Z</time></trkpt><trkpt lat="45.7006655" lon="8.2176025"><ele>591.8333333333334</ele><time>2026-04-12T08:51:20.76Z</time></trkpt><trkpt lat="45.7007121" lon="8.2177187"><ele>592.0</ele><time>2026-04-12T08:51:21.76Z</time></trkpt><trkpt lat="45.7007562" lon="8.2178407"><ele>591.0</ele><time>2026-04-12T08:51:22.76Z</time></trkpt><trkpt lat="45.700802" lon="8.2179697"><ele>590.0</ele><time>2026-04-12T08:51:23.76Z</time></trkpt><trkpt lat="45.700851" lon="8.2181013"><ele>589.0</ele><time>2026-04-12T08:51:24.761Z</time></trkpt><trkpt lat="45.7008968" lon="8.2182378"><ele>588.0</ele><time>2026-04-12T08:51:25.76Z</time></trkpt><trkpt lat="45.700944" lon="8.2183654"><ele>587.0</ele><time>2026-04-12T08:51:26.76Z</time></trkpt><trkpt lat="45.7009816" lon="8.2184936"><ele>586.1666666666666</ele><time>2026-04-12T08:51:27.76Z</time></trkpt><trkpt lat="45.7010094" lon="8.2186235"><ele>585.3333333333333</ele><time>2026-04-12T08:51:28.761Z</time></trkpt><trkpt lat="45.7010215" lon="8.2187541"><ele>584.5</ele><time>2026-04-12T08:51:29.761Z</time></trkpt><trkpt lat="45.7010271" lon="8.2188802"><ele>583.6666666666666</ele><time>2026-04-12T08:51:30.76Z</time></trkpt><trkpt lat="45.7010266" lon="8.2190021"><ele>582.8333333333334</ele><time>2026-04-12T08:51:31.761Z</time></trkpt><trkpt lat="45.7010293" lon="8.2191146"><ele>582.0</ele><time>2026-04-12T08:51:32.761Z</time></trkpt><trkpt lat="45.7010293" lon="8.2192134"><ele>581.6666666666666</ele><time>2026-04-12T08:51:33.76Z</time></trkpt><trkpt lat="45.7010265" lon="8.2193079"><ele>581.3333333333334</ele><time>2026-04-12T08:51:34.761Z</time></trkpt><trkpt lat="45.701011" lon="8.2194811"><ele>581.0</ele><time>2026-04-12T08:51:36.76Z</time></trkpt><trkpt lat="45.7009991" lon="8.2196643"><ele>580.6666666666667</ele><time>2026-04-12T08:51:38.76Z</time></trkpt><trkpt lat="45.7010045" lon="8.219759"><ele>580.3333333333334</ele><time>2026-04-12T08:51:39.76Z</time></trkpt><trkpt lat="45.7010145" lon="8.2198486"><ele>580.0</ele><time>2026-04-12T08:51:40.761Z</time></trkpt><trkpt lat="45.701028" lon="8.2199371"><ele>579.0</ele><time>2026-04-12T08:51:41.761Z</time></trkpt><trkpt lat="45.7010418" lon="8.2200769"><ele>578.0</ele><time>2026-04-12T08:51:43.76Z</time></trkpt><trkpt lat="45.7010665" lon="8.2201723"><ele>577.0</ele><time>2026-04-12T08:51:45.76Z</time></trkpt><trkpt lat="45.7011472" lon="8.2201896"><ele>576.0</ele><time>2026-04-12T08:51:48.761Z</time></trkpt><trkpt lat="45.701269" lon="8.2200829"><ele>575.0</ele><time>2026-04-12T08:55:34.761Z</time></trkpt><trkpt lat="45.7013727" lon="8.2201169"><ele>577.1666666666666</ele><time>2026-04-12T08:55:36.761Z</time></trkpt><trkpt lat="45.7014355" lon="8.220143"><ele>579.3333333333333</ele><time>2026-04-12T08:55:37.761Z</time></trkpt><trkpt lat="45.7014995" lon="8.2201633"><ele>581.5</ele><time>2026-04-12T08:55:38.76Z</time></trkpt><trkpt lat="45.7015682" lon="8.2201745"><ele>583.6666666666666</ele><time>2026-04-12T08:55:39.76Z</time></trkpt><trkpt lat="45.7016311" lon="8.2201877"><ele>585.8333333333334</ele><time>2026-04-12T08:55:40.759Z</time></trkpt><trkpt lat="45.7017445" lon="8.2201589"><ele>588.0</ele><time>2026-04-12T08:55:42.76Z</time></trkpt><trkpt lat="45.7018622" lon="8.2200601"><ele>587.3333333333334</ele><time>2026-04-12T08:55:44.761Z</time></trkpt><trkpt lat="45.7019316" lon="8.2200004"><ele>586.6666666666666</ele><time>2026-04-12T08:55:45.761Z</time></trkpt><trkpt lat="45.7020045" lon="8.219939"><ele>586.0</ele><time>2026-04-12T08:55:46.761Z</time></trkpt><trkpt lat="45.7020842" lon="8.2198761"><ele>585.3333333333333</ele><time>2026-04-12T08:55:47.762Z</time></trkpt><trkpt lat="45.7021555" lon="8.2198097"><ele>584.6666666666666</ele><time>2026-04-12T08:55:48.76Z</time></trkpt><trkpt lat="45.7022142" lon="8.2197504"><ele>584.0</ele><time>2026-04-12T08:55:49.76Z</time></trkpt><trkpt lat="45.702261" lon="8.2196787"><ele>588.1428571428571</ele><time>2026-04-12T08:55:50.76Z</time></trkpt><trkpt lat="45.7023136" lon="8.21961"><ele>592.2857142857143</ele><time>2026-04-12T08:55:51.76Z</time></trkpt><trkpt lat="45.702355" lon="8.2195208"><ele>596.4285714285714</ele><time>2026-04-12T08:55:52.761Z</time></trkpt><trkpt lat="45.7023839" lon="8.2194215"><ele>600.5714285714286</ele><time>2026-04-12T08:55:53.76Z</time></trkpt><trkpt lat="45.702403" lon="8.2193227"><ele>604.7142857142857</ele><time>2026-04-12T08:55:54.761Z</time></trkpt><trkpt lat="45.7024323" lon="8.2192232"><ele>608.8571428571429</ele><time>2026-04-12T08:55:55.762Z</time></trkpt><trkpt lat="45.702465" lon="8.2191288"><ele>613.0</ele><time>2026-04-12T08:55:56.761Z</time></trkpt><trkpt lat="45.7025056" lon="8.2190433"><ele>613.0</ele><time>2026-04-12T08:55:57.76Z</time></trkpt><trkpt lat="45.7025541" lon="8.2189847"><ele>613.0</ele><time>2026-04-12T08:55:58.761Z</time></trkpt><trkpt lat="45.7026314" lon="8.2189653"><ele>613.0</ele><time>2026-04-12T08:55:59.761Z</time></trkpt><trkpt lat="45.7027205" lon="8.2189501"><ele>613.0</ele><time>2026-04-12T08:56:00.76Z</time></trkpt><trkpt lat="45.7028136" lon="8.2189326"><ele>613.0</ele><time>2026-04-12T08:56:01.76Z</time></trkpt><trkpt lat="45.7028942" lon="8.2189035"><ele>613.0</ele><time>2026-04-12T08:56:02.761Z</time></trkpt><trkpt lat="45.7029752" lon="8.2188815"><ele>616.1666666666667</ele><time>2026-04-12T08:56:03.76Z</time></trkpt><trkpt lat="45.7030382" lon="8.2188335"><ele>619.3333333333334</ele><time>2026-04-12T08:56:04.761Z</time></trkpt><trkpt lat="45.7030957" lon="8.2187639"><ele>622.5</ele><time>2026-04-12T08:56:05.761Z</time></trkpt><trkpt lat="45.7031461" lon="8.2186905"><ele>625.6666666666666</ele><time>2026-04-12T08:56:06.76Z</time></trkpt><trkpt lat="45.7031936" lon="8.218605"><ele>628.8333333333333</ele><time>2026-04-12T08:56:07.761Z</time></trkpt><trkpt lat="45.7032592" lon="8.2185253"><ele>632.0</ele><time>2026-04-12T08:56:08.759Z</time></trkpt><trkpt lat="45.7033204" lon="8.2184657"><ele>632.0</ele><time>2026-04-12T08:56:09.761Z</time></trkpt><trkpt lat="45.7033917" lon="8.2184358"><ele>632.0</ele><time>2026-04-12T08:56:10.76Z</time></trkpt><trkpt lat="45.703463" lon="8.2184247"><ele>632.0</ele><time>2026-04-12T08:56:11.761Z</time></trkpt><trkpt lat="45.7035206" lon="8.2183848"><ele>632.0</ele><time>2026-04-12T08:56:12.761Z</time></trkpt><trkpt lat="45.7035771" lon="8.2183096"><ele>632.0</ele><time>2026-04-12T08:56:13.761Z</time></trkpt><trkpt lat="45.7036217" lon="8.2182426"><ele>632.0</ele><time>2026-04-12T08:56:14.761Z</time></trkpt><trkpt lat="45.7036949" lon="8.2180983"><ele>635.0</ele><time>2026-04-12T08:56:16.761Z</time></trkpt><trkpt lat="45.7037233" lon="8.2180128"><ele>638.0</ele><time>2026-04-12T08:56:17.761Z</time></trkpt><trkpt lat="45.7037988" lon="8.2179097"><ele>641.0</ele><time>2026-04-12T08:56:19.76Z</time></trkpt><trkpt lat="45.7039067" lon="8.2178614"><ele>644.0</ele><time>2026-04-12T08:56:21.761Z</time></trkpt><trkpt lat="45.7039713" lon="8.2178528"><ele>647.0</ele><time>2026-04-12T08:56:22.759Z</time></trkpt><trkpt lat="45.704046" lon="8.2178365"><ele>650.0</ele><time>2026-04-12T08:56:23.761Z</time></trkpt><trkpt lat="45.7041159" lon="8.2177962"><ele>650.0</ele><time>2026-04-12T08:56:24.76Z</time></trkpt><trkpt lat="45.7041753" lon="8.2177545"><ele>650.0</ele><time>2026-04-12T08:56:25.761Z</time></trkpt><trkpt lat="45.7042421" lon="8.2176929"><ele>650.0</ele><time>2026-04-12T08:56:26.761Z</time></trkpt><trkpt lat="45.7043041" lon="8.217605"><ele>650.0</ele><time>2026-04-12T08:56:27.76Z</time></trkpt><trkpt lat="45.7043579" lon="8.2175198"><ele>650.0</ele><time>2026-04-12T08:56:28.76Z</time></trkpt><trkpt lat="45.7043892" lon="8.2174103"><ele>650.0</ele><time>2026-04-12T08:56:29.761Z</time></trkpt><trkpt lat="45.7044364" lon="8.2173331"><ele>652.0</ele><time>2026-04-12T08:56:30.761Z</time></trkpt><trkpt lat="45.7045287" lon="8.2172477"><ele>654.0</ele><time>2026-04-12T08:56:32.761Z</time></trkpt><trkpt lat="45.7046017" lon="8.217223"><ele>656.0</ele><time>2026-04-12T08:56:33.761Z</time></trkpt><trkpt lat="45.704671" lon="8.2172063"><ele>658.0</ele><time>2026-04-12T08:56:34.761Z</time></trkpt><trkpt lat="45.7047375" lon="8.2171957"><ele>660.0</ele><time>2026-04-12T08:56:35.761Z</time></trkpt><trkpt lat="45.7047997" lon="8.2171608"><ele>662.0</ele><time>2026-04-12T08:56:36.761Z</time></trkpt><trkpt lat="45.7048597" lon="8.2171087"><ele>662.0</ele><time>2026-04-12T08:56:37.761Z</time></trkpt><trkpt lat="45.7049251" lon="8.2170273"><ele>662.0</ele><time>2026-04-12T08:56:38.761Z</time></trkpt><trkpt lat="45.704963" lon="8.2169093"><ele>662.0</ele><time>2026-04-12T08:56:39.76Z</time></trkpt><trkpt lat="45.7049915" lon="8.2167929"><ele>662.0</ele><time>2026-04-12T08:56:40.76Z</time></trkpt><trkpt lat="45.7050074" lon="8.2166602"><ele>662.0</ele><time>2026-04-12T08:56:41.76Z</time></trkpt><trkpt lat="45.7050071" lon="8.2165364"><ele>662.0</ele><time>2026-04-12T08:56:42.761Z</time></trkpt><trkpt lat="45.7050107" lon="8.2164173"><ele>665.0</ele><time>2026-04-12T08:56:43.761Z</time></trkpt><trkpt lat="45.7050291" lon="8.2162654"><ele>668.0</ele><time>2026-04-12T08:56:45.761Z</time></trkpt><trkpt lat="45.7051169" lon="8.2161781"><ele>671.0</ele><time>2026-04-12T08:56:47.76Z</time></trkpt><trkpt lat="45.7051859" lon="8.2161721"><ele>674.0</ele><time>2026-04-12T08:56:48.76Z</time></trkpt><trkpt lat="45.7052643" lon="8.2161651"><ele>677.0</ele><time>2026-04-12T08:56:49.761Z</time></trkpt><trkpt lat="45.7053414" lon="8.2161428"><ele>680.0</ele><time>2026-04-12T08:56:50.761Z</time></trkpt><trkpt lat="45.7054233" lon="8.2161194"><ele>680.0</ele><time>2026-04-12T08:56:51.761Z</time></trkpt><trkpt lat="45.7055087" lon="8.2160839"><ele>680.0</ele><time>2026-04-12T08:56:52.76Z</time></trkpt><trkpt lat="45.7055938" lon="8.2160655"><ele>680.0</ele><time>2026-04-12T08:56:53.761Z</time></trkpt><trkpt lat="45.7056825" lon="8.2160294"><ele>680.0</ele><time>2026-04-12T08:56:54.76Z</time></trkpt><trkpt lat="45.7057737" lon="8.2159893"><ele>680.0</ele><time>2026-04-12T08:56:55.761Z</time></trkpt><trkpt lat="45.7058599" lon="8.2159356"><ele>680.0</ele><time>2026-04-12T08:56:56.76Z</time></trkpt><trkpt lat="45.7059349" lon="8.215878"><ele>680.0</ele><time>2026-04-12T08:56:57.76Z</time></trkpt><trkpt lat="45.7060247" lon="8.2158406"><ele>680.0</ele><time>2026-04-12T08:56:58.761Z</time></trkpt><trkpt lat="45.7060927" lon="8.2157931"><ele>680.0</ele><time>2026-04-12T08:56:59.761Z</time></trkpt><trkpt lat="45.7061505" lon="8.2157411"><ele>680.0</ele><time>2026-04-12T08:57:00.761Z</time></trkpt><trkpt lat="45.7062471" lon="8.2157279"><ele>680.0</ele><time>2026-04-12T08:57:02.761Z</time></trkpt><trkpt lat="45.706274" lon="8.2158388"><ele>680.4</ele><time>2026-04-12T08:57:04.759Z</time></trkpt><trkpt lat="45.7062565" lon="8.2160071"><ele>680.8</ele><time>2026-04-12T08:57:06.761Z</time></trkpt><trkpt lat="45.7062705" lon="8.2162014"><ele>681.2</ele><time>2026-04-12T08:57:08.761Z</time></trkpt><trkpt lat="45.7062913" lon="8.2163131"><ele>681.6</ele><time>2026-04-12T08:57:09.761Z</time></trkpt><trkpt lat="45.7063358" lon="8.2164511"><ele>682.0</ele><time>2026-04-12T08:57:11.761Z</time></trkpt><trkpt lat="45.7064005" lon="8.2165673"><ele>682.0</ele><time>2026-04-12T08:57:13.761Z</time></trkpt><trkpt lat="45.7065085" lon="8.2166586"><ele>682.0</ele><time>2026-04-12T08:57:15.759Z</time></trkpt><trkpt lat="45.706575" lon="8.2167125"><ele>682.0</ele><time>2026-04-12T08:57:16.761Z</time></trkpt><trkpt lat="45.7066972" lon="8.2167558"><ele>682.0</ele><time>2026-04-12T08:57:18.761Z</time></trkpt><trkpt lat="45.7068177" lon="8.216757"><ele>682.0</ele><time>2026-04-12T08:57:20.76Z</time></trkpt><trkpt lat="45.7068817" lon="8.2167202"><ele>686.4000000000001</ele><time>2026-04-12T08:57:21.76Z</time></trkpt><trkpt lat="45.7069767" lon="8.2167028"><ele>690.8000000000001</ele><time>2026-04-12T08:57:23.761Z</time></trkpt><trkpt lat="45.7070761" lon="8.2168018"><ele>695.2</ele><time>2026-04-12T08:57:25.761Z</time></trkpt><trkpt lat="45.7071702" lon="8.216921"><ele>699.6</ele><time>2026-04-12T08:57:27.76Z</time></trkpt><trkpt lat="45.7072293" lon="8.2169808"><ele>704.0</ele><time>2026-04-12T08:57:28.761Z</time></trkpt><trkpt lat="45.7072817" lon="8.2170615"><ele>704.0</ele><time>2026-04-12T08:57:29.761Z</time></trkpt><trkpt lat="45.7073401" lon="8.2171081"><ele>704.0</ele><time>2026-04-12T08:57:30.761Z</time></trkpt><trkpt lat="45.7074092" lon="8.2171651"><ele>704.0</ele><time>2026-04-12T08:57:31.76Z</time></trkpt><trkpt lat="45.7074766" lon="8.2172172"><ele>704.0</ele><time>2026-04-12T08:57:32.761Z</time></trkpt><trkpt lat="45.7075695" lon="8.2172341"><ele>704.0</ele><time>2026-04-12T08:57:34.761Z</time></trkpt><trkpt lat="45.7075874" lon="8.2171293"><ele>704.0</ele><time>2026-04-12T08:57:36.761Z</time></trkpt><trkpt lat="45.7075376" lon="8.2170325"><ele>704.0</ele><time>2026-04-12T08:57:38.761Z</time></trkpt><trkpt lat="45.7075278" lon="8.2169257"><ele>704.0</ele><time>2026-04-12T08:57:40.76Z</time></trkpt><trkpt lat="45.7075611" lon="8.2167756"><ele>704.0</ele><time>2026-04-12T08:57:42.761Z</time></trkpt><trkpt lat="45.7075744" lon="8.2166714"><ele>704.0</ele><time>2026-04-12T08:57:43.76Z</time></trkpt><trkpt lat="45.7075858" lon="8.2165535"><ele>704.0</ele><time>2026-04-12T08:57:44.761Z</time></trkpt><trkpt lat="45.7075958" lon="8.2164499"><ele>704.0</ele><time>2026-04-12T08:57:45.76Z</time></trkpt><trkpt lat="45.70761" lon="8.2163501"><ele>704.0</ele><time>2026-04-12T08:57:46.76Z</time></trkpt><trkpt lat="45.7076372" lon="8.2162427"><ele>704.0</ele><time>2026-04-12T08:57:48.76Z</time></trkpt><trkpt lat="45.7077322" lon="8.2162098"><ele>704.0</ele><time>2026-04-12T08:57:50.761Z</time></trkpt><trkpt lat="45.7078248" lon="8.2161864"><ele>704.0</ele><time>2026-04-12T08:57:52.761Z</time></trkpt><trkpt lat="45.7079397" lon="8.2162847"><ele>704.0</ele><time>2026-04-12T08:57:54.761Z</time></trkpt><trkpt lat="45.7079939" lon="8.2164"><ele>706.6666666666666</ele><time>2026-04-12T08:57:56.761Z</time></trkpt><trkpt lat="45.7080247" lon="8.2165456"><ele>709.3333333333333</ele><time>2026-04-12T08:57:58.761Z</time></trkpt><trkpt lat="45.7081042" lon="8.21657"><ele>712.0</ele><time>2026-04-12T08:58:00.761Z</time></trkpt><trkpt lat="45.7081909" lon="8.2164866"><ele>714.6666666666666</ele><time>2026-04-12T08:58:02.761Z</time></trkpt><trkpt lat="45.7082491" lon="8.2164097"><ele>717.3333333333334</ele><time>2026-04-12T08:58:03.761Z</time></trkpt><trkpt lat="45.7082983" lon="8.2163401"><ele>720.0</ele><time>2026-04-12T08:58:04.76Z</time></trkpt><trkpt lat="45.708342" lon="8.2162446"><ele>720.8571428571428</ele><time>2026-04-12T08:58:05.761Z</time></trkpt><trkpt lat="45.7084009" lon="8.2161779"><ele>721.7142857142858</ele><time>2026-04-12T08:58:06.761Z</time></trkpt><trkpt lat="45.7084628" lon="8.2161136"><ele>722.5714285714286</ele><time>2026-04-12T08:58:07.761Z</time></trkpt><trkpt lat="45.7085164" lon="8.2160509"><ele>723.4285714285713</ele><time>2026-04-12T08:58:08.761Z</time></trkpt><trkpt lat="45.7085747" lon="8.215978"><ele>724.2857142857142</ele><time>2026-04-12T08:58:09.761Z</time></trkpt><trkpt lat="45.7086186" lon="8.2159086"><ele>725.1428571428571</ele><time>2026-04-12T08:58:10.761Z</time></trkpt><trkpt lat="45.7086482" lon="8.2158103"><ele>726.0</ele><time>2026-04-12T08:58:11.761Z</time></trkpt><trkpt lat="45.7086594" lon="8.2156986"><ele>731.4</ele><time>2026-04-12T08:58:12.761Z</time></trkpt><trkpt lat="45.7086557" lon="8.2155721"><ele>736.8</ele><time>2026-04-12T08:58:13.761Z</time></trkpt><trkpt lat="45.7086457" lon="8.21541"><ele>742.1999999999999</ele><time>2026-04-12T08:58:14.761Z</time></trkpt><trkpt lat="45.7086378" lon="8.215284"><ele>747.5999999999999</ele><time>2026-04-12T08:58:15.761Z</time></trkpt><trkpt lat="45.7086264" lon="8.2151694"><ele>753.0</ele><time>2026-04-12T08:58:16.761Z</time></trkpt><trkpt lat="45.7086396" lon="8.2149918"><ele>753.0</ele><time>2026-04-12T08:58:18.761Z</time></trkpt><trkpt lat="45.7086988" lon="8.2148566"><ele>753.0</ele><time>2026-04-12T08:58:20.759Z</time></trkpt><trkpt lat="45.7087508" lon="8.2147597"><ele>753.0</ele><time>2026-04-12T08:58:21.761Z</time></trkpt><trkpt lat="45.7088096" lon="8.2146408"><ele>753.0</ele><time>2026-04-12T08:58:22.761Z</time></trkpt><trkpt lat="45.7088569" lon="8.2145377"><ele>753.0</ele><time>2026-04-12T08:58:23.761Z</time></trkpt><trkpt lat="45.7089037" lon="8.2144347"><ele>753.3333333333334</ele><time>2026-04-12T08:58:24.76Z</time></trkpt><trkpt lat="45.7089462" lon="8.2143075"><ele>753.6666666666666</ele><time>2026-04-12T08:58:25.761Z</time></trkpt><trkpt lat="45.7089723" lon="8.2141708"><ele>754.0</ele><time>2026-04-12T08:58:26.76Z</time></trkpt><trkpt lat="45.708997" lon="8.2140634"><ele>754.3333333333333</ele><time>2026-04-12T08:58:27.761Z</time></trkpt><trkpt lat="45.7090174" lon="8.2139542"><ele>754.6666666666666</ele><time>2026-04-12T08:58:28.761Z</time></trkpt><trkpt lat="45.7090494" lon="8.2138711"><ele>755.0</ele><time>2026-04-12T08:58:29.761Z</time></trkpt><trkpt lat="45.7090865" lon="8.213788"><ele>755.0</ele><time>2026-04-12T08:58:30.761Z</time></trkpt><trkpt lat="45.709157" lon="8.2137019"><ele>755.0</ele><time>2026-04-12T08:58:31.761Z</time></trkpt><trkpt lat="45.7092345" lon="8.2136267"><ele>755.0</ele><time>2026-04-12T08:58:32.761Z</time></trkpt><trkpt lat="45.7093199" lon="8.2135427"><ele>755.0</ele><time>2026-04-12T08:58:33.761Z</time></trkpt><trkpt lat="45.7093984" lon="8.2134712"><ele>755.0</ele><time>2026-04-12T08:58:34.761Z</time></trkpt><trkpt lat="45.7094628" lon="8.2133944"><ele>752.8</ele><time>2026-04-12T08:58:35.761Z</time></trkpt><trkpt lat="45.7094782" lon="8.2133053"><ele>750.6</ele><time>2026-04-12T08:58:36.761Z</time></trkpt><trkpt lat="45.7095058" lon="8.2131381"><ele>748.4000000000001</ele><time>2026-04-12T08:58:38.761Z</time></trkpt><trkpt lat="45.7094972" lon="8.2129942"><ele>746.2</ele><time>2026-04-12T08:58:39.761Z</time></trkpt><trkpt lat="45.7094853" lon="8.2128685"><ele>744.0</ele><time>2026-04-12T08:58:40.761Z</time></trkpt><trkpt lat="45.7094716" lon="8.212732"><ele>744.0</ele><time>2026-04-12T08:58:41.761Z</time></trkpt><trkpt lat="45.7094675" lon="8.2126381"><ele>744.0</ele><time>2026-04-12T08:58:42.76Z</time></trkpt><trkpt lat="45.7095117" lon="8.2124982"><ele>744.0</ele><time>2026-04-12T08:58:44.761Z</time></trkpt><trkpt lat="45.7095653" lon="8.2123605"><ele>744.0</ele><time>2026-04-12T08:58:46.76Z</time></trkpt><trkpt lat="45.7095875" lon="8.2122695"><ele>744.0</ele><time>2026-04-12T08:58:47.761Z</time></trkpt><trkpt lat="45.7095942" lon="8.2121558"><ele>744.0</ele><time>2026-04-12T08:58:48.761Z</time></trkpt><trkpt lat="45.7096048" lon="8.2120263"><ele>745.8000000000001</ele><time>2026-04-12T08:58:49.761Z</time></trkpt><trkpt lat="45.7096228" lon="8.2118848"><ele>747.6</ele><time>2026-04-12T08:58:50.761Z</time></trkpt><trkpt lat="45.7096265" lon="8.2117299"><ele>749.4</ele><time>2026-04-12T08:58:51.761Z</time></trkpt><trkpt lat="45.7096218" lon="8.2115827"><ele>751.2</ele><time>2026-04-12T08:58:52.761Z</time></trkpt><trkpt lat="45.7096006" lon="8.2114365"><ele>753.0</ele><time>2026-04-12T08:58:53.761Z</time></trkpt><trkpt lat="45.709574" lon="8.2113252"><ele>756.0</ele><time>2026-04-12T08:58:54.761Z</time></trkpt><trkpt lat="45.7095804" lon="8.2112352"><ele>759.0</ele><time>2026-04-12T08:58:55.761Z</time></trkpt><trkpt lat="45.7096128" lon="8.2111246"><ele>762.0</ele><time>2026-04-12T08:58:57.76Z</time></trkpt><trkpt lat="45.7096824" lon="8.2109961"><ele>765.0</ele><time>2026-04-12T08:58:59.761Z</time></trkpt><trkpt lat="45.7096912" lon="8.2108934"><ele>768.0</ele><time>2026-04-12T08:59:00.761Z</time></trkpt><trkpt lat="45.7096859" lon="8.2107885"><ele>771.0</ele><time>2026-04-12T08:59:01.761Z</time></trkpt><trkpt lat="45.7096691" lon="8.2106745"><ele>774.7142857142858</ele><time>2026-04-12T08:59:02.761Z</time></trkpt><trkpt lat="45.7096256" lon="8.210583"><ele>778.4285714285713</ele><time>2026-04-12T08:59:03.761Z</time></trkpt><trkpt lat="45.7095759" lon="8.2105011"><ele>782.1428571428571</ele><time>2026-04-12T08:59:04.761Z</time></trkpt><trkpt lat="45.7095334" lon="8.2104261"><ele>785.8571428571429</ele><time>2026-04-12T08:59:05.761Z</time></trkpt><trkpt lat="45.7094864" lon="8.2103394"><ele>789.5714285714287</ele><time>2026-04-12T08:59:06.761Z</time></trkpt><trkpt lat="45.7094296" lon="8.210268"><ele>793.2857142857142</ele><time>2026-04-12T08:59:07.761Z</time></trkpt><trkpt lat="45.7093701" lon="8.2102006"><ele>797.0</ele><time>2026-04-12T08:59:08.761Z</time></trkpt><trkpt lat="45.7093139" lon="8.2101226"><ele>797.0</ele><time>2026-04-12T08:59:09.761Z</time></trkpt><trkpt lat="45.7092445" lon="8.2100262"><ele>797.0</ele><time>2026-04-12T08:59:10.761Z</time></trkpt><trkpt lat="45.7091537" lon="8.2099372"><ele>797.0</ele><time>2026-04-12T08:59:11.76Z</time></trkpt><trkpt lat="45.7090728" lon="8.2098543"><ele>797.0</ele><time>2026-04-12T08:59:12.761Z</time></trkpt><trkpt lat="45.7090036" lon="8.2097937"><ele>797.0</ele><time>2026-04-12T08:59:13.761Z</time></trkpt><trkpt lat="45.7089521" lon="8.209726"><ele>799.5000000000001</ele><time>2026-04-12T08:59:14.761Z</time></trkpt><trkpt lat="45.708934" lon="8.2096379"><ele>802.0</ele><time>2026-04-12T08:59:16.76Z</time></trkpt><trkpt lat="45.7089794" lon="8.2095289"><ele>804.5</ele><time>2026-04-12T08:59:19.761Z</time></trkpt><trkpt lat="45.7090537" lon="8.2095058"><ele>807.0</ele><time>2026-04-12T08:59:21.761Z</time></trkpt><trkpt lat="45.7091325" lon="8.2094426"><ele>809.5000000000001</ele><time>2026-04-12T08:59:23.76Z</time></trkpt><trkpt lat="45.7092029" lon="8.2093185"><ele>812.0</ele><time>2026-04-12T08:59:25.761Z</time></trkpt><trkpt lat="45.7092065" lon="8.2091553"><ele>812.0000000000001</ele><time>2026-04-12T08:59:27.761Z</time></trkpt><trkpt lat="45.7092593" lon="8.2090295"><ele>812.0</ele><time>2026-04-12T08:59:29.761Z</time></trkpt><trkpt lat="45.7092923" lon="8.2089401"><ele>812.0</ele><time>2026-04-12T08:59:30.761Z</time></trkpt><trkpt lat="45.7093367" lon="8.2088499"><ele>812.0</ele><time>2026-04-12T08:59:31.76Z</time></trkpt><trkpt lat="45.7093884" lon="8.2087737"><ele>812.0000000000001</ele><time>2026-04-12T08:59:32.76Z</time></trkpt><trkpt lat="45.7094293" lon="8.2086948"><ele>812.0</ele><time>2026-04-12T08:59:33.761Z</time></trkpt><trkpt lat="45.7094481" lon="8.2085317"><ele>817.8</ele><time>2026-04-12T08:59:35.761Z</time></trkpt><trkpt lat="45.709473" lon="8.208315"><ele>823.6</ele><time>2026-04-12T08:59:37.761Z</time></trkpt><trkpt lat="45.7094942" lon="8.2081815"><ele>829.4</ele><time>2026-04-12T08:59:38.762Z</time></trkpt><trkpt lat="45.7095071" lon="8.2080468"><ele>835.1999999999999</ele><time>2026-04-12T08:59:39.762Z</time></trkpt><trkpt lat="45.7094969" lon="8.2079174"><ele>841.0</ele><time>2026-04-12T08:59:40.76Z</time></trkpt><trkpt lat="45.7094738" lon="8.2078055"><ele>839.0</ele><time>2026-04-12T08:59:41.761Z</time></trkpt><trkpt lat="45.709372" lon="8.2077183"><ele>837.0</ele><time>2026-04-12T08:59:42.761Z</time></trkpt><trkpt lat="45.7093135" lon="8.2076379"><ele>835.0</ele><time>2026-04-12T08:59:43.761Z</time></trkpt><trkpt lat="45.7092572" lon="8.2075455"><ele>833.0</ele><time>2026-04-12T08:59:44.761Z</time></trkpt><trkpt lat="45.709218" lon="8.2074273"><ele>831.0</ele><time>2026-04-12T08:59:45.761Z</time></trkpt><trkpt lat="45.7091475" lon="8.2073425"><ele>833.0</ele><time>2026-04-12T08:59:46.761Z</time></trkpt><trkpt lat="45.7090947" lon="8.207251"><ele>835.0</ele><time>2026-04-12T08:59:47.761Z</time></trkpt><trkpt lat="45.709039" lon="8.2071681"><ele>837.0</ele><time>2026-04-12T08:59:48.761Z</time></trkpt><trkpt lat="45.7090003" lon="8.2070291"><ele>839.0</ele><time>2026-04-12T08:59:50.761Z</time></trkpt><trkpt lat="45.7090225" lon="8.2068677"><ele>841.0</ele><time>2026-04-12T08:59:52.762Z</time></trkpt><trkpt lat="45.7090438" lon="8.2067813"><ele>843.0</ele><time>2026-04-12T08:59:53.761Z</time></trkpt><trkpt lat="45.7090702" lon="8.2066775"><ele>843.0</ele><time>2026-04-12T08:59:54.761Z</time></trkpt><trkpt lat="45.7090856" lon="8.2065794"><ele>843.0</ele><time>2026-04-12T08:59:55.761Z</time></trkpt><trkpt lat="45.7091263" lon="8.2064943"><ele>843.0</ele><time>2026-04-12T08:59:56.76Z</time></trkpt><trkpt lat="45.7091782" lon="8.2064319"><ele>843.0</ele><time>2026-04-12T08:59:57.761Z</time></trkpt><trkpt lat="45.7092352" lon="8.2063585"><ele>843.0</ele><time>2026-04-12T08:59:58.761Z</time></trkpt><trkpt lat="45.7092989" lon="8.206267"><ele>843.0</ele><time>2026-04-12T08:59:59.761Z</time></trkpt><trkpt lat="45.7093697" lon="8.2061932"><ele>849.8333333333334</ele><time>2026-04-12T09:00:00.761Z</time></trkpt><trkpt lat="45.709416" lon="8.2061037"><ele>856.6666666666667</ele><time>2026-04-12T09:00:01.761Z</time></trkpt><trkpt lat="45.709474" lon="8.2060008"><ele>863.5</ele><time>2026-04-12T09:00:02.761Z</time></trkpt><trkpt lat="45.7095204" lon="8.2058952"><ele>870.3333333333334</ele><time>2026-04-12T09:00:03.761Z</time></trkpt><trkpt lat="45.7095771" lon="8.2058345"><ele>877.1666666666667</ele><time>2026-04-12T09:00:04.761Z</time></trkpt><trkpt lat="45.7096133" lon="8.2057402"><ele>884.0</ele><time>2026-04-12T09:00:05.762Z</time></trkpt><trkpt lat="45.7096554" lon="8.2055869"><ele>884.6666666666667</ele><time>2026-04-12T09:00:07.761Z</time></trkpt><trkpt lat="45.7096189" lon="8.2055059"><ele>885.3333333333334</ele><time>2026-04-12T09:00:08.761Z</time></trkpt><trkpt lat="45.7095252" lon="8.2053782"><ele>886.0</ele><time>2026-04-12T09:00:10.761Z</time></trkpt><trkpt lat="45.7094593" lon="8.2053246"><ele>886.6666666666667</ele><time>2026-04-12T09:00:11.761Z</time></trkpt><trkpt lat="45.7093804" lon="8.2052506"><ele>887.3333333333334</ele><time>2026-04-12T09:00:13.761Z</time></trkpt><trkpt lat="45.7094098" lon="8.205166"><ele>888.0</ele><time>2026-04-12T09:00:16.761Z</time></trkpt><trkpt lat="45.7094859" lon="8.2051877"><ele>888.0</ele><time>2026-04-12T09:00:18.761Z</time></trkpt><trkpt lat="45.7095944" lon="8.2052286"><ele>888.0</ele><time>2026-04-12T09:00:20.76Z</time></trkpt><trkpt lat="45.7096644" lon="8.2052285"><ele>888.0</ele><time>2026-04-12T09:00:21.761Z</time></trkpt><trkpt lat="45.7097385" lon="8.2052426"><ele>888.0</ele><time>2026-04-12T09:00:22.761Z</time></trkpt><trkpt lat="45.7098173" lon="8.2052655"><ele>888.0</ele><time>2026-04-12T09:00:23.761Z</time></trkpt><trkpt lat="45.709889" lon="8.2053269"><ele>888.0</ele><time>2026-04-12T09:00:24.761Z</time></trkpt><trkpt lat="45.7099592" lon="8.2053782"><ele>888.0</ele><time>2026-04-12T09:00:25.761Z</time></trkpt><trkpt lat="45.7099824" lon="8.2055102"><ele>888.0</ele><time>2026-04-12T09:00:26.76Z</time></trkpt><trkpt lat="45.7100086" lon="8.2056356"><ele>888.0</ele><time>2026-04-12T09:00:27.761Z</time></trkpt><trkpt lat="45.710027" lon="8.2057252"><ele>888.0</ele><time>2026-04-12T09:00:28.761Z</time></trkpt><trkpt lat="45.7100771" lon="8.2058594"><ele>888.0</ele><time>2026-04-12T09:00:30.761Z</time></trkpt><trkpt lat="45.7101613" lon="8.2058507"><ele>888.0</ele><time>2026-04-12T09:00:32.761Z</time></trkpt><trkpt lat="45.7102015" lon="8.2057219"><ele>888.0</ele><time>2026-04-12T09:00:34.759Z</time></trkpt><trkpt lat="45.7102042" lon="8.2056124"><ele>888.0</ele><time>2026-04-12T09:00:35.76Z</time></trkpt><trkpt lat="45.7102131" lon="8.2054958"><ele>888.0</ele><time>2026-04-12T09:00:36.761Z</time></trkpt><trkpt lat="45.7102127" lon="8.2053723"><ele>888.0</ele><time>2026-04-12T09:00:37.762Z</time></trkpt><trkpt lat="45.7102038" lon="8.2052504"><ele>888.0</ele><time>2026-04-12T09:00:38.761Z</time></trkpt><trkpt lat="45.7101884" lon="8.2051248"><ele>888.0</ele><time>2026-04-12T09:00:39.761Z</time></trkpt><trkpt lat="45.7101744" lon="8.205016"><ele>888.0</ele><time>2026-04-12T09:00:40.761Z</time></trkpt><trkpt lat="45.7101614" lon="8.2049113"><ele>888.0</ele><time>2026-04-12T09:00:41.761Z</time></trkpt><trkpt lat="45.7101839" lon="8.2047577"><ele>888.0</ele><time>2026-04-12T09:00:43.762Z</time></trkpt><trkpt lat="45.7102433" lon="8.2046262"><ele>888.0</ele><time>2026-04-12T09:00:45.76Z</time></trkpt><trkpt lat="45.7102986" lon="8.2045664"><ele>888.0</ele><time>2026-04-12T09:00:46.761Z</time></trkpt><trkpt lat="45.7103568" lon="8.2045215"><ele>888.0</ele><time>2026-04-12T09:00:47.761Z</time></trkpt><trkpt lat="45.7104191" lon="8.2044875"><ele>893.0</ele><time>2026-04-12T09:00:48.761Z</time></trkpt><trkpt lat="45.7104951" lon="8.2044673"><ele>898.0</ele><time>2026-04-12T09:00:49.761Z</time></trkpt><trkpt lat="45.7105843" lon="8.2044649"><ele>903.0</ele><time>2026-04-12T09:00:50.762Z</time></trkpt><trkpt lat="45.7106645" lon="8.2044504"><ele>908.0</ele><time>2026-04-12T09:00:51.761Z</time></trkpt><trkpt lat="45.7107271" lon="8.2044142"><ele>913.0</ele><time>2026-04-12T09:00:52.76Z</time></trkpt><trkpt lat="45.7107816" lon="8.2043378"><ele>918.0</ele><time>2026-04-12T09:00:53.76Z</time></trkpt><trkpt lat="45.7108193" lon="8.2042371"><ele>918.0</ele><time>2026-04-12T09:00:54.76Z</time></trkpt><trkpt lat="45.7108523" lon="8.2041395"><ele>918.0</ele><time>2026-04-12T09:00:55.761Z</time></trkpt><trkpt lat="45.7108905" lon="8.2040317"><ele>918.0</ele><time>2026-04-12T09:00:56.761Z</time></trkpt><trkpt lat="45.7109304" lon="8.2039224"><ele>918.0</ele><time>2026-04-12T09:00:57.76Z</time></trkpt><trkpt lat="45.7109887" lon="8.203802"><ele>918.0</ele><time>2026-04-12T09:00:58.762Z</time></trkpt><trkpt lat="45.711047" lon="8.2036922"><ele>918.0</ele><time>2026-04-12T09:00:59.761Z</time></trkpt><trkpt lat="45.7110864" lon="8.2035686"><ele>925.1666666666666</ele><time>2026-04-12T09:01:00.761Z</time></trkpt><trkpt lat="45.7111083" lon="8.2034375"><ele>932.3333333333333</ele><time>2026-04-12T09:01:01.761Z</time></trkpt><trkpt lat="45.7111311" lon="8.203304"><ele>939.5</ele><time>2026-04-12T09:01:02.762Z</time></trkpt><trkpt lat="45.7111612" lon="8.2031956"><ele>946.6666666666666</ele><time>2026-04-12T09:01:03.761Z</time></trkpt><trkpt lat="45.711201" lon="8.2030835"><ele>953.8333333333333</ele><time>2026-04-12T09:01:04.76Z</time></trkpt><trkpt lat="45.7112303" lon="8.2029772"><ele>961.0</ele><time>2026-04-12T09:01:05.76Z</time></trkpt><trkpt lat="45.7112684" lon="8.2028712"><ele>961.3333333333333</ele><time>2026-04-12T09:01:06.76Z</time></trkpt><trkpt lat="45.7112721" lon="8.202772"><ele>961.6666666666666</ele><time>2026-04-12T09:01:07.761Z</time></trkpt><trkpt lat="45.7112636" lon="8.2026709"><ele>962.0</ele><time>2026-04-12T09:01:08.76Z</time></trkpt><trkpt lat="45.7112272" lon="8.2025875"><ele>962.3333333333333</ele><time>2026-04-12T09:01:09.761Z</time></trkpt><trkpt lat="45.7111919" lon="8.2024911"><ele>962.6666666666666</ele><time>2026-04-12T09:01:11.762Z</time></trkpt><trkpt lat="45.7112711" lon="8.2024658"><ele>963.0</ele><time>2026-04-12T09:01:14.762Z</time></trkpt><trkpt lat="45.7113553" lon="8.2025877"><ele>963.0</ele><time>2026-04-12T09:01:16.761Z</time></trkpt><trkpt lat="45.7113836" lon="8.2026941"><ele>963.0</ele><time>2026-04-12T09:01:17.761Z</time></trkpt><trkpt lat="45.7114024" lon="8.2028213"><ele>963.0</ele><time>2026-04-12T09:01:18.761Z</time></trkpt><trkpt lat="45.7114121" lon="8.2029824"><ele>963.0</ele><time>2026-04-12T09:01:19.761Z</time></trkpt><trkpt lat="45.711401" lon="8.2031289"><ele>963.0</ele><time>2026-04-12T09:01:20.761Z</time></trkpt><trkpt lat="45.7113884" lon="8.2032553"><ele>962.5999999999999</ele><time>2026-04-12T09:01:21.762Z</time></trkpt><trkpt lat="45.7113861" lon="8.2033818"><ele>962.1999999999999</ele><time>2026-04-12T09:01:22.761Z</time></trkpt><trkpt lat="45.7114042" lon="8.2035113"><ele>961.8</ele><time>2026-04-12T09:01:23.761Z</time></trkpt><trkpt lat="45.7114381" lon="8.2036595"><ele>961.4</ele><time>2026-04-12T09:01:24.761Z</time></trkpt><trkpt lat="45.7114617" lon="8.2038245"><ele>961.0</ele><time>2026-04-12T09:01:25.761Z</time></trkpt><trkpt lat="45.7115018" lon="8.2040154"><ele>959.25</ele><time>2026-04-12T09:01:26.76Z</time></trkpt><trkpt lat="45.711539" lon="8.2042053"><ele>957.5</ele><time>2026-04-12T09:01:27.761Z</time></trkpt><trkpt lat="45.7115869" lon="8.2043643"><ele>955.75</ele><time>2026-04-12T09:01:28.761Z</time></trkpt><trkpt lat="45.7116394" lon="8.2045186"><ele>954.0</ele><time>2026-04-12T09:01:29.761Z</time></trkpt><trkpt lat="45.7116717" lon="8.2046548"><ele>954.0</ele><time>2026-04-12T09:01:30.761Z</time></trkpt><trkpt lat="45.7116646" lon="8.2047567"><ele>954.0</ele><time>2026-04-12T09:01:31.761Z</time></trkpt><trkpt lat="45.7116901" lon="8.2048933"><ele>954.0</ele><time>2026-04-12T09:01:33.761Z</time></trkpt><trkpt lat="45.7117706" lon="8.2048574"><ele>954.0</ele><time>2026-04-12T09:01:36.761Z</time></trkpt><trkpt lat="45.7117874" lon="8.2046943"><ele>954.0</ele><time>2026-04-12T09:01:38.762Z</time></trkpt><trkpt lat="45.7117994" lon="8.2045828"><ele>954.0</ele><time>2026-04-12T09:01:39.761Z</time></trkpt><trkpt lat="45.7118139" lon="8.2044651"><ele>954.0</ele><time>2026-04-12T09:01:40.761Z</time></trkpt><trkpt lat="45.7118345" lon="8.2043437"><ele>954.0</ele><time>2026-04-12T09:01:41.76Z</time></trkpt><trkpt lat="45.7118587" lon="8.2042173"><ele>954.0</ele><time>2026-04-12T09:01:42.761Z</time></trkpt><trkpt lat="45.7118786" lon="8.2040884"><ele>954.0</ele><time>2026-04-12T09:01:43.762Z</time></trkpt><trkpt lat="45.7118889" lon="8.2039778"><ele>954.0</ele><time>2026-04-12T09:01:44.761Z</time></trkpt><trkpt lat="45.711904" lon="8.2038863"><ele>954.0</ele><time>2026-04-12T09:01:45.761Z</time></trkpt><trkpt lat="45.7119118" lon="8.2037844"><ele>955.1666666666666</ele><time>2026-04-12T09:01:46.76Z</time></trkpt><trkpt lat="45.7118554" lon="8.2037019"><ele>956.3333333333333</ele><time>2026-04-12T09:01:47.76Z</time></trkpt><trkpt lat="45.7118099" lon="8.2036366"><ele>957.5</ele><time>2026-04-12T09:01:48.762Z</time></trkpt><trkpt lat="45.7117714" lon="8.2035268"><ele>958.6666666666666</ele><time>2026-04-12T09:01:50.761Z</time></trkpt><trkpt lat="45.7118477" lon="8.2035213"><ele>959.8333333333333</ele><time>2026-04-12T09:01:53.761Z</time></trkpt><trkpt lat="45.7119092" lon="8.2036223"><ele>961.0</ele><time>2026-04-12T09:01:55.762Z</time></trkpt><trkpt lat="45.7119568" lon="8.2037082"><ele>967.6666666666666</ele><time>2026-04-12T09:01:56.761Z</time></trkpt><trkpt lat="45.7119987" lon="8.2038124"><ele>974.3333333333333</ele><time>2026-04-12T09:01:57.761Z</time></trkpt><trkpt lat="45.7120395" lon="8.2039229"><ele>981.0</ele><time>2026-04-12T09:01:58.761Z</time></trkpt><trkpt lat="45.7120726" lon="8.2040399"><ele>987.6666666666667</ele><time>2026-04-12T09:01:59.761Z</time></trkpt><trkpt lat="45.7121007" lon="8.2041725"><ele>994.3333333333334</ele><time>2026-04-12T09:02:00.762Z</time></trkpt><trkpt lat="45.712121" lon="8.2042877"><ele>1001.0</ele><time>2026-04-12T09:02:01.761Z</time></trkpt><trkpt lat="45.7121438" lon="8.2043816"><ele>1001.0</ele><time>2026-04-12T09:02:02.761Z</time></trkpt><trkpt lat="45.7121812" lon="8.2044593"><ele>1000.9999999999999</ele><time>2026-04-12T09:02:03.761Z</time></trkpt><trkpt lat="45.712279" lon="8.2045326"><ele>1000.9999999999999</ele><time>2026-04-12T09:02:05.762Z</time></trkpt><trkpt lat="45.7124046" lon="8.2045667"><ele>1001.0</ele><time>2026-04-12T09:02:07.761Z</time></trkpt><trkpt lat="45.7124731" lon="8.2046126"><ele>1001.0</ele><time>2026-04-12T09:02:08.762Z</time></trkpt><trkpt lat="45.7125381" lon="8.2046715"><ele>1001.0000000000001</ele><time>2026-04-12T09:02:09.762Z</time></trkpt><trkpt lat="45.7126041" lon="8.2047241"><ele>1001.0</ele><time>2026-04-12T09:02:10.761Z</time></trkpt><trkpt lat="45.7126798" lon="8.204782"><ele>1001.0</ele><time>2026-04-12T09:02:11.761Z</time></trkpt><trkpt lat="45.7127577" lon="8.2048289"><ele>1001.0</ele><time>2026-04-12T09:02:12.762Z</time></trkpt><trkpt lat="45.7128203" lon="8.2048977"><ele>1001.0000000000001</ele><time>2026-04-12T09:02:13.761Z</time></trkpt><trkpt lat="45.7128687" lon="8.2049753"><ele>1001.0</ele><time>2026-04-12T09:02:14.761Z</time></trkpt><trkpt lat="45.7129043" lon="8.2050597"><ele>1002.8333333333334</ele><time>2026-04-12T09:02:15.761Z</time></trkpt><trkpt lat="45.7128875" lon="8.2051521"><ele>1004.6666666666667</ele><time>2026-04-12T09:02:16.761Z</time></trkpt><trkpt lat="45.712882" lon="8.2052522"><ele>1006.5</ele><time>2026-04-12T09:02:17.761Z</time></trkpt><trkpt lat="45.7128939" lon="8.2053837"><ele>1008.3333333333333</ele><time>2026-04-12T09:02:19.761Z</time></trkpt><trkpt lat="45.7129652" lon="8.2054222"><ele>1010.1666666666666</ele><time>2026-04-12T09:02:21.761Z</time></trkpt><trkpt lat="45.7130704" lon="8.2054182"><ele>1012.0</ele><time>2026-04-12T09:02:23.761Z</time></trkpt><trkpt lat="45.7131441" lon="8.205401"><ele>1012.0000000000001</ele><time>2026-04-12T09:02:24.762Z</time></trkpt><trkpt lat="45.7132112" lon="8.2053801"><ele>1012.0</ele><time>2026-04-12T09:02:25.761Z</time></trkpt><trkpt lat="45.7132793" lon="8.2053574"><ele>1012.0000000000001</ele><time>2026-04-12T09:02:26.761Z</time></trkpt><trkpt lat="45.7133924" lon="8.2053638"><ele>1012.0000000000001</ele><time>2026-04-12T09:02:28.761Z</time></trkpt><trkpt lat="45.713459" lon="8.2053716"><ele>1012.0</ele><time>2026-04-12T09:02:29.761Z</time></trkpt><trkpt lat="45.7135235" lon="8.2053734"><ele>1012.0000000000001</ele><time>2026-04-12T09:02:30.761Z</time></trkpt><trkpt lat="45.7135877" lon="8.2053798"><ele>1012.0000000000001</ele><time>2026-04-12T09:02:31.761Z</time></trkpt><trkpt lat="45.7136593" lon="8.2053719"><ele>1013.9999999999999</ele><time>2026-04-12T09:02:32.761Z</time></trkpt><trkpt lat="45.7137347" lon="8.2053943"><ele>1016.0</ele><time>2026-04-12T09:02:33.762Z</time></trkpt><trkpt lat="45.7138077" lon="8.2054495"><ele>1018.0</ele><time>2026-04-12T09:02:34.761Z</time></trkpt><trkpt lat="45.713867" lon="8.2055113"><ele>1020.0</ele><time>2026-04-12T09:02:35.762Z</time></trkpt><trkpt lat="45.7139417" lon="8.2055874"><ele>1021.9999999999999</ele><time>2026-04-12T09:02:36.761Z</time></trkpt><trkpt lat="45.7140085" lon="8.2056389"><ele>1024.0</ele><time>2026-04-12T09:02:37.761Z</time></trkpt><trkpt lat="45.7140663" lon="8.2056837"><ele>1024.0</ele><time>2026-04-12T09:02:38.761Z</time></trkpt><trkpt lat="45.7141289" lon="8.2057131"><ele>1024.0</ele><time>2026-04-12T09:02:39.761Z</time></trkpt><trkpt lat="45.7142076" lon="8.2056911"><ele>1024.0</ele><time>2026-04-12T09:02:41.761Z</time></trkpt><trkpt lat="45.7142585" lon="8.2056006"><ele>1024.0</ele><time>2026-04-12T09:02:43.761Z</time></trkpt><trkpt lat="45.7143091" lon="8.2054314"><ele>1024.0</ele><time>2026-04-12T09:02:45.761Z</time></trkpt><trkpt lat="45.7144031" lon="8.2052906"><ele>1023.2</ele><time>2026-04-12T09:02:47.762Z</time></trkpt><trkpt lat="45.7144783" lon="8.2052339"><ele>1022.4000000000001</ele><time>2026-04-12T09:02:48.762Z</time></trkpt><trkpt lat="45.7145839" lon="8.2051721"><ele>1021.6</ele><time>2026-04-12T09:02:49.762Z</time></trkpt><trkpt lat="45.7146866" lon="8.2051262"><ele>1020.8</ele><time>2026-04-12T09:02:50.762Z</time></trkpt><trkpt lat="45.7147763" lon="8.2050935"><ele>1020.0</ele><time>2026-04-12T09:02:51.761Z</time></trkpt><trkpt lat="45.7148496" lon="8.2050932"><ele>1020.0</ele><time>2026-04-12T09:02:52.762Z</time></trkpt><trkpt lat="45.714932" lon="8.2050868"><ele>1020.0</ele><time>2026-04-12T09:02:53.762Z</time></trkpt><trkpt lat="45.7150546" lon="8.2050435"><ele>1020.0</ele><time>2026-04-12T09:02:55.761Z</time></trkpt><trkpt lat="45.7151099" lon="8.2049881"><ele>1020.0</ele><time>2026-04-12T09:02:56.762Z</time></trkpt><trkpt lat="45.7151596" lon="8.2049133"><ele>1020.0</ele><time>2026-04-12T09:02:57.761Z</time></trkpt><trkpt lat="45.7152066" lon="8.2048381"><ele>1020.0</ele><time>2026-04-12T09:02:58.761Z</time></trkpt><trkpt lat="45.715269" lon="8.204779"><ele>1017.6666666666666</ele><time>2026-04-12T09:02:59.761Z</time></trkpt><trkpt lat="45.7153396" lon="8.2047271"><ele>1015.3333333333333</ele><time>2026-04-12T09:03:00.76Z</time></trkpt><trkpt lat="45.7154045" lon="8.2046807"><ele>1013.0</ele><time>2026-04-12T09:03:01.762Z</time></trkpt><trkpt lat="45.7154769" lon="8.2045732"><ele>1010.6666666666666</ele><time>2026-04-12T09:03:03.761Z</time></trkpt><trkpt lat="45.7154798" lon="8.2044822"><ele>1008.3333333333333</ele><time>2026-04-12T09:03:04.761Z</time></trkpt><trkpt lat="45.7154837" lon="8.2043807"><ele>1006.0</ele><time>2026-04-12T09:03:05.761Z</time></trkpt><trkpt lat="45.7154797" lon="8.2042633"><ele>1005.9999999999999</ele><time>2026-04-12T09:03:06.761Z</time></trkpt><trkpt lat="45.715475" lon="8.2041379"><ele>1006.0</ele><time>2026-04-12T09:03:07.762Z</time></trkpt><trkpt lat="45.7154651" lon="8.2040141"><ele>1006.0</ele><time>2026-04-12T09:03:08.761Z</time></trkpt><trkpt lat="45.7154593" lon="8.2038979"><ele>1006.0</ele><time>2026-04-12T09:03:09.762Z</time></trkpt><trkpt lat="45.7154712" lon="8.2037948"><ele>1005.9999999999999</ele><time>2026-04-12T09:03:10.761Z</time></trkpt><trkpt lat="45.7155104" lon="8.2036363"><ele>1006.0</ele><time>2026-04-12T09:03:12.762Z</time></trkpt><trkpt lat="45.7155705" lon="8.2035908"><ele>1009.1666666666666</ele><time>2026-04-12T09:03:13.762Z</time></trkpt><trkpt lat="45.7156415" lon="8.2035505"><ele>1012.3333333333333</ele><time>2026-04-12T09:03:14.76Z</time></trkpt><trkpt lat="45.7157352" lon="8.2035213"><ele>1015.5</ele><time>2026-04-12T09:03:15.761Z</time></trkpt><trkpt lat="45.7158361" lon="8.2034877"><ele>1018.6666666666667</ele><time>2026-04-12T09:03:16.761Z</time></trkpt><trkpt lat="45.7159254" lon="8.2034615"><ele>1021.8333333333334</ele><time>2026-04-12T09:03:17.762Z</time></trkpt><trkpt lat="45.7159902" lon="8.2034438"><ele>1025.0</ele><time>2026-04-12T09:03:18.762Z</time></trkpt><trkpt lat="45.7160485" lon="8.2034017"><ele>1024.9999999999998</ele><time>2026-04-12T09:03:19.762Z</time></trkpt><trkpt lat="45.7160759" lon="8.2032586"><ele>1025.0</ele><time>2026-04-12T09:03:21.76Z</time></trkpt><trkpt lat="45.7160619" lon="8.203169"><ele>1025.0</ele><time>2026-04-12T09:03:22.761Z</time></trkpt><trkpt lat="45.7160222" lon="8.2030981"><ele>1025.0</ele><time>2026-04-12T09:03:23.761Z</time></trkpt><trkpt lat="45.7159901" lon="8.2030143"><ele>1025.0</ele><time>2026-04-12T09:03:24.762Z</time></trkpt><trkpt lat="45.7159729" lon="8.2029183"><ele>1024.9999999999998</ele><time>2026-04-12T09:03:25.761Z</time></trkpt><trkpt lat="45.7160084" lon="8.202821"><ele>1025.0</ele><time>2026-04-12T09:03:26.76Z</time></trkpt><trkpt lat="45.7160438" lon="8.2027322"><ele>1024.8571428571427</ele><time>2026-04-12T09:03:27.761Z</time></trkpt><trkpt lat="45.7160838" lon="8.2026369"><ele>1024.7142857142858</ele><time>2026-04-12T09:03:28.762Z</time></trkpt><trkpt lat="45.7161071" lon="8.2025431"><ele>1024.5714285714284</ele><time>2026-04-12T09:03:29.761Z</time></trkpt><trkpt lat="45.7161095" lon="8.2024387"><ele>1024.4285714285713</ele><time>2026-04-12T09:03:30.762Z</time></trkpt><trkpt lat="45.7161223" lon="8.2023439"><ele>1024.2857142857142</ele><time>2026-04-12T09:03:31.761Z</time></trkpt><trkpt lat="45.7161495" lon="8.2022613"><ele>1024.142857142857</ele><time>2026-04-12T09:03:32.761Z</time></trkpt><trkpt lat="45.7161945" lon="8.202193"><ele>1024.0</ele><time>2026-04-12T09:03:33.761Z</time></trkpt><trkpt lat="45.7163199" lon="8.202167"><ele>1023.9999999999999</ele><time>2026-04-12T09:03:35.761Z</time></trkpt><trkpt lat="45.7164054" lon="8.2021889"><ele>1024.0</ele><time>2026-04-12T09:03:36.761Z</time></trkpt><trkpt lat="45.7164944" lon="8.2022514"><ele>1024.0</ele><time>2026-04-12T09:03:37.762Z</time></trkpt><trkpt lat="45.7165696" lon="8.2022821"><ele>1024.0</ele><time>2026-04-12T09:03:38.762Z</time></trkpt><trkpt lat="45.7166466" lon="8.2023274"><ele>1023.9999999999999</ele><time>2026-04-12T09:03:39.761Z</time></trkpt><trkpt lat="45.7167275" lon="8.2023446"><ele>1024.0</ele><time>2026-04-12T09:03:40.761Z</time></trkpt><trkpt lat="45.7168089" lon="8.2023495"><ele>1023.9999999999999</ele><time>2026-04-12T09:03:41.762Z</time></trkpt><trkpt lat="45.7168899" lon="8.2023613"><ele>1024.0</ele><time>2026-04-12T09:03:42.761Z</time></trkpt><trkpt lat="45.7170014" lon="8.2023038"><ele>1024.0</ele><time>2026-04-12T09:03:44.762Z</time></trkpt><trkpt lat="45.7170322" lon="8.2022231"><ele>1024.0</ele><time>2026-04-12T09:03:45.761Z</time></trkpt><trkpt lat="45.7170689" lon="8.2021429"><ele>1023.9999999999999</ele><time>2026-04-12T09:03:46.761Z</time></trkpt><trkpt lat="45.7171035" lon="8.202054"><ele>1024.0</ele><time>2026-04-12T09:03:47.761Z</time></trkpt><trkpt lat="45.7171278" lon="8.2019544"><ele>1025.8333333333333</ele><time>2026-04-12T09:03:48.762Z</time></trkpt><trkpt lat="45.7171475" lon="8.2018499"><ele>1027.6666666666665</ele><time>2026-04-12T09:03:49.762Z</time></trkpt><trkpt lat="45.7171425" lon="8.2017561"><ele>1029.5</ele><time>2026-04-12T09:03:50.762Z</time></trkpt><trkpt lat="45.7171186" lon="8.2016632"><ele>1031.3333333333333</ele><time>2026-04-12T09:03:51.761Z</time></trkpt><trkpt lat="45.7170898" lon="8.2015464"><ele>1033.1666666666667</ele><time>2026-04-12T09:03:52.762Z</time></trkpt><trkpt lat="45.7170779" lon="8.2014445"><ele>1035.0</ele><time>2026-04-12T09:03:53.762Z</time></trkpt><trkpt lat="45.7170704" lon="8.2013185"><ele>1035.0</ele><time>2026-04-12T09:03:54.762Z</time></trkpt><trkpt lat="45.7170745" lon="8.201176"><ele>1035.0</ele><time>2026-04-12T09:03:55.762Z</time></trkpt><trkpt lat="45.7170874" lon="8.2010384"><ele>1035.0</ele><time>2026-04-12T09:03:56.762Z</time></trkpt><trkpt lat="45.7171057" lon="8.2008929"><ele>1035.0</ele><time>2026-04-12T09:03:57.761Z</time></trkpt><trkpt lat="45.717134" lon="8.200748"><ele>1035.0</ele><time>2026-04-12T09:03:58.761Z</time></trkpt><trkpt lat="45.7171653" lon="8.2006174"><ele>1039.3333333333333</ele><time>2026-04-12T09:03:59.762Z</time></trkpt><trkpt lat="45.7172047" lon="8.200495"><ele>1043.6666666666667</ele><time>2026-04-12T09:04:00.762Z</time></trkpt><trkpt lat="45.7172427" lon="8.2003809"><ele>1048.0</ele><time>2026-04-12T09:04:01.761Z</time></trkpt><trkpt lat="45.7172679" lon="8.2002902"><ele>1052.3333333333335</ele><time>2026-04-12T09:04:02.761Z</time></trkpt><trkpt lat="45.7173141" lon="8.2001918"><ele>1056.6666666666667</ele><time>2026-04-12T09:04:03.761Z</time></trkpt><trkpt lat="45.7173719" lon="8.2001533"><ele>1061.0</ele><time>2026-04-12T09:04:04.762Z</time></trkpt><trkpt lat="45.7174348" lon="8.2001341"><ele>1061.0</ele><time>2026-04-12T09:04:05.761Z</time></trkpt><trkpt lat="45.717579" lon="8.2001252"><ele>1061.0</ele><time>2026-04-12T09:04:07.76Z</time></trkpt><trkpt lat="45.7176656" lon="8.2001222"><ele>1061.0</ele><time>2026-04-12T09:04:08.762Z</time></trkpt><trkpt lat="45.7177411" lon="8.2001145"><ele>1061.0</ele><time>2026-04-12T09:04:09.761Z</time></trkpt><trkpt lat="45.7178111" lon="8.2001024"><ele>1061.0</ele><time>2026-04-12T09:04:10.761Z</time></trkpt><trkpt lat="45.7178752" lon="8.2000743"><ele>1061.0</ele><time>2026-04-12T09:04:11.761Z</time></trkpt><trkpt lat="45.7179322" lon="8.2000286"><ele>1060.3333333333335</ele><time>2026-04-12T09:04:12.76Z</time></trkpt><trkpt lat="45.7179963" lon="8.1999778"><ele>1059.6666666666667</ele><time>2026-04-12T09:04:13.762Z</time></trkpt><trkpt lat="45.7180644" lon="8.1999365"><ele>1059.0</ele><time>2026-04-12T09:04:14.76Z</time></trkpt><trkpt lat="45.7181361" lon="8.1999069"><ele>1058.3333333333333</ele><time>2026-04-12T09:04:15.761Z</time></trkpt><trkpt lat="45.7182068" lon="8.1999016"><ele>1057.6666666666665</ele><time>2026-04-12T09:04:16.761Z</time></trkpt><trkpt lat="45.7182754" lon="8.1999088"><ele>1057.0</ele><time>2026-04-12T09:04:17.761Z</time></trkpt><trkpt lat="45.7183614" lon="8.1999553"><ele>1057.0</ele><time>2026-04-12T09:04:19.761Z</time></trkpt><trkpt lat="45.7184177" lon="8.1999011"><ele>1057.0</ele><time>2026-04-12T09:04:21.762Z</time></trkpt><trkpt lat="45.7183815" lon="8.1998175"><ele>1057.0</ele><time>2026-04-12T09:04:23.761Z</time></trkpt><trkpt lat="45.7182714" lon="8.1997668"><ele>1057.0</ele><time>2026-04-12T09:04:25.761Z</time></trkpt><trkpt lat="45.7181362" lon="8.1997359"><ele>1057.0</ele><time>2026-04-12T09:04:27.762Z</time></trkpt><trkpt lat="45.7180596" lon="8.1997168"><ele>1057.0</ele><time>2026-04-12T09:04:28.761Z</time></trkpt><trkpt lat="45.7179716" lon="8.1996698"><ele>1057.0</ele><time>2026-04-12T09:04:29.761Z</time></trkpt><trkpt lat="45.717887" lon="8.1996209"><ele>1057.0</ele><time>2026-04-12T09:04:30.762Z</time></trkpt><trkpt lat="45.7178014" lon="8.1995434"><ele>1057.0</ele><time>2026-04-12T09:04:31.762Z</time></trkpt><trkpt lat="45.717719" lon="8.1994599"><ele>1057.0</ele><time>2026-04-12T09:04:32.761Z</time></trkpt><trkpt lat="45.7176207" lon="8.1993671"><ele>1057.6</ele><time>2026-04-12T09:04:33.761Z</time></trkpt><trkpt lat="45.7175336" lon="8.1992691"><ele>1058.2</ele><time>2026-04-12T09:04:34.762Z</time></trkpt><trkpt lat="45.7174506" lon="8.1991902"><ele>1058.8</ele><time>2026-04-12T09:04:35.759Z</time></trkpt><trkpt lat="45.7173687" lon="8.1990959"><ele>1059.4</ele><time>2026-04-12T09:04:36.761Z</time></trkpt><trkpt lat="45.7173041" lon="8.1990142"><ele>1060.0</ele><time>2026-04-12T09:04:37.761Z</time></trkpt><trkpt lat="45.717255" lon="8.1989532"><ele>1059.5</ele><time>2026-04-12T09:04:38.761Z</time></trkpt><trkpt lat="45.7171967" lon="8.1989066"><ele>1059.0</ele><time>2026-04-12T09:04:39.76Z</time></trkpt><trkpt lat="45.7170838" lon="8.1988618"><ele>1058.5</ele><time>2026-04-12T09:04:41.762Z</time></trkpt><trkpt lat="45.7170187" lon="8.1988715"><ele>1058.0</ele><time>2026-04-12T09:04:42.761Z</time></trkpt><trkpt lat="45.7169393" lon="8.198882"><ele>1057.5</ele><time>2026-04-12T09:04:43.761Z</time></trkpt><trkpt lat="45.7168625" lon="8.1988969"><ele>1057.0</ele><time>2026-04-12T09:04:44.761Z</time></trkpt><trkpt lat="45.7167812" lon="8.1989161"><ele>1057.0</ele><time>2026-04-12T09:04:45.762Z</time></trkpt><trkpt lat="45.7167127" lon="8.1989503"><ele>1057.0</ele><time>2026-04-12T09:04:46.76Z</time></trkpt><trkpt lat="45.7166434" lon="8.1989666"><ele>1057.0</ele><time>2026-04-12T09:04:47.761Z</time></trkpt><trkpt lat="45.7165632" lon="8.1989537"><ele>1057.0</ele><time>2026-04-12T09:04:48.762Z</time></trkpt><trkpt lat="45.7164875" lon="8.1989159"><ele>1057.0</ele><time>2026-04-12T09:04:49.761Z</time></trkpt><trkpt lat="45.7164052" lon="8.198868"><ele>1057.0</ele><time>2026-04-12T09:04:50.76Z</time></trkpt><trkpt lat="45.7163168" lon="8.1988135"><ele>1057.0</ele><time>2026-04-12T09:04:51.761Z</time></trkpt><trkpt lat="45.7162313" lon="8.1987685"><ele>1057.0</ele><time>2026-04-12T09:04:52.762Z</time></trkpt><trkpt lat="45.7161472" lon="8.1987416"><ele>1057.0</ele><time>2026-04-12T09:04:53.761Z</time></trkpt><trkpt lat="45.716056" lon="8.1987172"><ele>1057.0</ele><time>2026-04-12T09:04:54.762Z</time></trkpt><trkpt lat="45.7159641" lon="8.1987158"><ele>1057.0</ele><time>2026-04-12T09:04:55.762Z</time></trkpt><trkpt lat="45.7158767" lon="8.1987281"><ele>1061.0</ele><time>2026-04-12T09:04:56.762Z</time></trkpt><trkpt lat="45.7157786" lon="8.1987552"><ele>1065.0</ele><time>2026-04-12T09:04:57.761Z</time></trkpt><trkpt lat="45.7156874" lon="8.1987805"><ele>1069.0</ele><time>2026-04-12T09:04:58.761Z</time></trkpt><trkpt lat="45.7155904" lon="8.198785"><ele>1073.0</ele><time>2026-04-12T09:04:59.762Z</time></trkpt><trkpt lat="45.7155055" lon="8.198806"><ele>1077.0</ele><time>2026-04-12T09:05:00.762Z</time></trkpt><trkpt lat="45.7154221" lon="8.198801"><ele>1077.0</ele><time>2026-04-12T09:05:01.761Z</time></trkpt><trkpt lat="45.7153283" lon="8.198738"><ele>1077.0</ele><time>2026-04-12T09:05:02.761Z</time></trkpt><trkpt lat="45.7152404" lon="8.1986718"><ele>1077.0</ele><time>2026-04-12T09:05:03.761Z</time></trkpt><trkpt lat="45.7151482" lon="8.1986165"><ele>1077.0</ele><time>2026-04-12T09:05:04.761Z</time></trkpt><trkpt lat="45.7150592" lon="8.1985783"><ele>1077.0</ele><time>2026-04-12T09:05:05.761Z</time></trkpt><trkpt lat="45.7149606" lon="8.1985358"><ele>1079.5</ele><time>2026-04-12T09:05:06.761Z</time></trkpt><trkpt lat="45.714879" lon="8.1985121"><ele>1082.0</ele><time>2026-04-12T09:05:07.762Z</time></trkpt><trkpt lat="45.7148003" lon="8.1984849"><ele>1084.5</ele><time>2026-04-12T09:05:08.762Z</time></trkpt><trkpt lat="45.7147273" lon="8.1984341"><ele>1087.0</ele><time>2026-04-12T09:05:09.761Z</time></trkpt><trkpt lat="45.7146739" lon="8.1982695"><ele>1089.5</ele><time>2026-04-12T09:05:11.76Z</time></trkpt><trkpt lat="45.7146648" lon="8.1981737"><ele>1092.0</ele><time>2026-04-12T09:05:12.762Z</time></trkpt><trkpt lat="45.7146699" lon="8.1980735"><ele>1092.0</ele><time>2026-04-12T09:05:13.762Z</time></trkpt><trkpt lat="45.7146755" lon="8.1979726"><ele>1092.0</ele><time>2026-04-12T09:05:14.761Z</time></trkpt><trkpt lat="45.7146924" lon="8.1978772"><ele>1092.0</ele><time>2026-04-12T09:05:15.761Z</time></trkpt><trkpt lat="45.7147009" lon="8.1977738"><ele>1092.0</ele><time>2026-04-12T09:05:16.762Z</time></trkpt><trkpt lat="45.7147071" lon="8.1976215"><ele>1092.0</ele><time>2026-04-12T09:05:18.761Z</time></trkpt><trkpt lat="45.7146328" lon="8.1976341"><ele>1092.0</ele><time>2026-04-12T09:05:20.762Z</time></trkpt><trkpt lat="45.7145648" lon="8.1977323"><ele>1092.0</ele><time>2026-04-12T09:05:22.762Z</time></trkpt><trkpt lat="45.7145099" lon="8.1977843"><ele>1092.0</ele><time>2026-04-12T09:05:23.76Z</time></trkpt><trkpt lat="45.7143775" lon="8.197849"><ele>1092.0</ele><time>2026-04-12T09:05:25.762Z</time></trkpt><trkpt lat="45.7143141" lon="8.1978544"><ele>1092.0</ele><time>2026-04-12T09:05:26.761Z</time></trkpt><trkpt lat="45.7141761" lon="8.1978041"><ele>1092.0</ele><time>2026-04-12T09:05:28.761Z</time></trkpt><trkpt lat="45.7140966" lon="8.1977593"><ele>1096.0</ele><time>2026-04-12T09:05:29.761Z</time></trkpt><trkpt lat="45.7140147" lon="8.1977063"><ele>1100.0</ele><time>2026-04-12T09:05:30.761Z</time></trkpt><trkpt lat="45.7139295" lon="8.197638"><ele>1104.0</ele><time>2026-04-12T09:05:31.761Z</time></trkpt><trkpt lat="45.7138522" lon="8.1975717"><ele>1108.0</ele><time>2026-04-12T09:05:32.761Z</time></trkpt><trkpt lat="45.7137732" lon="8.1975195"><ele>1112.0</ele><time>2026-04-12T09:05:33.761Z</time></trkpt><trkpt lat="45.7137023" lon="8.1974624"><ele>1116.0</ele><time>2026-04-12T09:05:34.761Z</time></trkpt><trkpt lat="45.7136444" lon="8.1974045"><ele>1117.1666666666667</ele><time>2026-04-12T09:05:35.761Z</time></trkpt><trkpt lat="45.7136204" lon="8.1973046"><ele>1118.3333333333333</ele><time>2026-04-12T09:05:36.762Z</time></trkpt><trkpt lat="45.7136039" lon="8.1971997"><ele>1119.5</ele><time>2026-04-12T09:05:37.761Z</time></trkpt><trkpt lat="45.7135815" lon="8.1970842"><ele>1120.6666666666665</ele><time>2026-04-12T09:05:38.762Z</time></trkpt><trkpt lat="45.7135404" lon="8.1969709"><ele>1121.8333333333333</ele><time>2026-04-12T09:05:39.762Z</time></trkpt><trkpt lat="45.7134792" lon="8.196865"><ele>1123.0</ele><time>2026-04-12T09:05:40.761Z</time></trkpt><trkpt lat="45.7134083" lon="8.1967711"><ele>1123.0</ele><time>2026-04-12T09:05:41.762Z</time></trkpt><trkpt lat="45.7133165" lon="8.1966736"><ele>1123.0</ele><time>2026-04-12T09:05:42.762Z</time></trkpt><trkpt lat="45.713236" lon="8.1965654"><ele>1123.0</ele><time>2026-04-12T09:05:43.762Z</time></trkpt><trkpt lat="45.713167" lon="8.1964686"><ele>1123.0</ele><time>2026-04-12T09:05:44.761Z</time></trkpt><trkpt lat="45.7130982" lon="8.1963692"><ele>1123.0</ele><time>2026-04-12T09:05:45.761Z</time></trkpt><trkpt lat="45.7130334" lon="8.1962959"><ele>1125.4285714285713</ele><time>2026-04-12T09:05:46.762Z</time></trkpt><trkpt lat="45.7129739" lon="8.196231"><ele>1127.857142857143</ele><time>2026-04-12T09:05:47.762Z</time></trkpt><trkpt lat="45.7129102" lon="8.1962382"><ele>1130.2857142857142</ele><time>2026-04-12T09:05:48.762Z</time></trkpt><trkpt lat="45.7128485" lon="8.1962571"><ele>1132.7142857142858</ele><time>2026-04-12T09:05:49.761Z</time></trkpt><trkpt lat="45.7127848" lon="8.1962849"><ele>1135.142857142857</ele><time>2026-04-12T09:05:50.762Z</time></trkpt><trkpt lat="45.7127069" lon="8.1963178"><ele>1137.5714285714284</ele><time>2026-04-12T09:05:51.762Z</time></trkpt><trkpt lat="45.7126266" lon="8.1963452"><ele>1140.0</ele><time>2026-04-12T09:05:52.761Z</time></trkpt><trkpt lat="45.7125494" lon="8.1963687"><ele>1140.5714285714284</ele><time>2026-04-12T09:05:53.762Z</time></trkpt><trkpt lat="45.7124646" lon="8.196383"><ele>1141.142857142857</ele><time>2026-04-12T09:05:54.762Z</time></trkpt><trkpt lat="45.7123995" lon="8.1964071"><ele>1141.7142857142858</ele><time>2026-04-12T09:05:55.761Z</time></trkpt><trkpt lat="45.7123311" lon="8.1964262"><ele>1142.2857142857142</ele><time>2026-04-12T09:05:56.761Z</time></trkpt><trkpt lat="45.7122652" lon="8.1963904"><ele>1142.857142857143</ele><time>2026-04-12T09:05:57.762Z</time></trkpt><trkpt lat="45.7121926" lon="8.1963704"><ele>1143.4285714285713</ele><time>2026-04-12T09:05:58.761Z</time></trkpt><trkpt lat="45.7121235" lon="8.1963425"><ele>1144.0</ele><time>2026-04-12T09:05:59.761Z</time></trkpt><trkpt lat="45.7120524" lon="8.1962677"><ele>1144.0</ele><time>2026-04-12T09:06:00.762Z</time></trkpt><trkpt lat="45.7119664" lon="8.1961776"><ele>1144.0</ele><time>2026-04-12T09:06:01.762Z</time></trkpt><trkpt lat="45.7118928" lon="8.1961076"><ele>1144.0</ele><time>2026-04-12T09:06:02.761Z</time></trkpt><trkpt lat="45.7118191" lon="8.1960533"><ele>1144.0</ele><time>2026-04-12T09:06:03.761Z</time></trkpt><trkpt lat="45.7117205" lon="8.1960196"><ele>1144.0</ele><time>2026-04-12T09:06:04.761Z</time></trkpt><trkpt lat="45.711626" lon="8.1959979"><ele>1143.0</ele><time>2026-04-12T09:06:05.762Z</time></trkpt><trkpt lat="45.7115476" lon="8.1959761"><ele>1142.0</ele><time>2026-04-12T09:06:06.762Z</time></trkpt><trkpt lat="45.7114792" lon="8.1959417"><ele>1141.0</ele><time>2026-04-12T09:06:07.76Z</time></trkpt><trkpt lat="45.7114051" lon="8.1958227"><ele>1140.0</ele><time>2026-04-12T09:06:09.762Z</time></trkpt><trkpt lat="45.7114031" lon="8.1956523"><ele>1139.0</ele><time>2026-04-12T09:06:11.762Z</time></trkpt><trkpt lat="45.7114288" lon="8.1955625"><ele>1139.0</ele><time>2026-04-12T09:06:12.762Z</time></trkpt><trkpt lat="45.7114557" lon="8.1954541"><ele>1139.0</ele><time>2026-04-12T09:06:13.761Z</time></trkpt><trkpt lat="45.7115021" lon="8.1953536"><ele>1139.0</ele><time>2026-04-12T09:06:14.762Z</time></trkpt><trkpt lat="45.7115312" lon="8.1952449"><ele>1139.0</ele><time>2026-04-12T09:06:15.761Z</time></trkpt><trkpt lat="45.7115564" lon="8.1951484"><ele>1139.0</ele><time>2026-04-12T09:06:16.762Z</time></trkpt><trkpt lat="45.711567" lon="8.1950473"><ele>1139.0</ele><time>2026-04-12T09:06:17.761Z</time></trkpt><trkpt lat="45.7115584" lon="8.1949397"><ele>1138.8333333333335</ele><time>2026-04-12T09:06:18.761Z</time></trkpt><trkpt lat="45.7115378" lon="8.1948309"><ele>1138.6666666666667</ele><time>2026-04-12T09:06:19.762Z</time></trkpt><trkpt lat="45.7115093" lon="8.1947236"><ele>1138.5</ele><time>2026-04-12T09:06:20.761Z</time></trkpt><trkpt lat="45.7114908" lon="8.1946366"><ele>1138.3333333333333</ele><time>2026-04-12T09:06:21.762Z</time></trkpt><trkpt lat="45.7114689" lon="8.1944719"><ele>1138.1666666666665</ele><time>2026-04-12T09:06:23.762Z</time></trkpt><trkpt lat="45.7114957" lon="8.194352"><ele>1138.0</ele><time>2026-04-12T09:06:25.762Z</time></trkpt><trkpt lat="45.7115186" lon="8.1942628"><ele>1138.0</ele><time>2026-04-12T09:06:27.762Z</time></trkpt><trkpt lat="45.7115487" lon="8.194183"><ele>1138.0</ele><time>2026-04-12T09:06:31.762Z</time></trkpt><trkpt lat="45.7116202" lon="8.1941183"><ele>1138.0</ele><time>2026-04-12T09:06:48.76Z</time></trkpt><trkpt lat="45.7116803" lon="8.1940868"><ele>1138.0</ele><time>2026-04-12T09:06:59.761Z</time></trkpt><trkpt lat="45.7117364" lon="8.1941778"><ele>1138.0</ele><time>2026-04-12T09:07:01.762Z</time></trkpt><trkpt lat="45.7117527" lon="8.1943079"><ele>1138.0</ele><time>2026-04-12T09:07:03.76Z</time></trkpt><trkpt lat="45.7117435" lon="8.1944278"><ele>1138.0</ele><time>2026-04-12T09:07:05.761Z</time></trkpt><trkpt lat="45.7118113" lon="8.1944297"><ele>1138.0</ele><time>2026-04-12T09:07:28.761Z</time></trkpt><trkpt lat="45.7118341" lon="8.19456"><ele>1138.0</ele><time>2026-04-12T09:07:31.762Z</time></trkpt><trkpt lat="45.7118442" lon="8.1946639"><ele>1138.0</ele><time>2026-04-12T09:07:33.761Z</time></trkpt><trkpt lat="45.7118799" lon="8.1947622"><ele>1138.0</ele><time>2026-04-12T09:07:35.762Z</time></trkpt><trkpt lat="45.7119652" lon="8.19489"><ele>1138.0</ele><time>2026-04-12T09:07:37.762Z</time></trkpt><trkpt lat="45.712026" lon="8.1949888"><ele>1142.2</ele><time>2026-04-12T09:07:39.762Z</time></trkpt><trkpt lat="45.7120981" lon="8.1950651"><ele>1146.4</ele><time>2026-04-12T09:07:41.762Z</time></trkpt><trkpt lat="45.7121789" lon="8.1950782"><ele>1150.6000000000001</ele><time>2026-04-12T09:07:43.761Z</time></trkpt><trkpt lat="45.7122801" lon="8.1950529"><ele>1154.8</ele><time>2026-04-12T09:07:45.761Z</time></trkpt><trkpt lat="45.7123895" lon="8.1950611"><ele>1159.0</ele><time>2026-04-12T09:07:47.761Z</time></trkpt><trkpt lat="45.7125039" lon="8.195051"><ele>1159.0000000000002</ele><time>2026-04-12T09:07:49.762Z</time></trkpt><trkpt lat="45.7125881" lon="8.1950271"><ele>1159.0</ele><time>2026-04-12T09:07:51.762Z</time></trkpt><trkpt lat="45.7126456" lon="8.1949876"><ele>1159.0</ele><time>2026-04-12T09:07:55.761Z</time></trkpt><trkpt lat="45.7126928" lon="8.1948947"><ele>1159.0</ele><time>2026-04-12T09:07:59.762Z</time></trkpt><trkpt lat="45.7127575" lon="8.1948791"><ele>1159.0</ele><time>2026-04-12T09:08:02.762Z</time></trkpt><trkpt lat="45.7127205" lon="8.1949695"><ele>1159.0000000000002</ele><time>2026-04-12T09:08:07.762Z</time></trkpt><trkpt lat="45.7126992" lon="8.1948852"><ele>1159.0</ele><time>2026-04-12T09:11:46.762Z</time></trkpt><trkpt lat="45.7127421" lon="8.1948035"><ele>1157.8333333333333</ele><time>2026-04-12T09:11:49.763Z</time></trkpt><trkpt lat="45.7127558" lon="8.1946838"><ele>1156.6666666666665</ele><time>2026-04-12T09:11:51.762Z</time></trkpt><trkpt lat="45.7127635" lon="8.1945621"><ele>1155.5</ele><time>2026-04-12T09:11:53.762Z</time></trkpt><trkpt lat="45.7127613" lon="8.1944651"><ele>1154.3333333333333</ele><time>2026-04-12T09:11:55.762Z</time></trkpt><trkpt lat="45.7127866" lon="8.1943777"><ele>1153.1666666666667</ele><time>2026-04-12T09:11:57.762Z</time></trkpt><trkpt lat="45.7128217" lon="8.1942844"><ele>1152.0</ele><time>2026-04-12T09:11:59.762Z</time></trkpt><trkpt lat="45.7128586" lon="8.1941802"><ele>1152.0</ele><time>2026-04-12T09:12:01.762Z</time></trkpt><trkpt lat="45.7128807" lon="8.1940771"><ele>1152.0</ele><time>2026-04-12T09:12:03.762Z</time></trkpt><trkpt lat="45.7128471" lon="8.1939859"><ele>1152.0</ele><time>2026-04-12T09:12:05.762Z</time></trkpt><trkpt lat="45.7127828" lon="8.1939012"><ele>1152.0</ele><time>2026-04-12T09:12:07.762Z</time></trkpt><trkpt lat="45.7127498" lon="8.1937713"><ele>1152.0</ele><time>2026-04-12T09:12:10.762Z</time></trkpt><trkpt lat="45.7127118" lon="8.1936791"><ele>1152.0</ele><time>2026-04-12T09:12:12.762Z</time></trkpt><trkpt lat="45.712667" lon="8.1935752"><ele>1151.6666666666667</ele><time>2026-04-12T09:12:14.762Z</time></trkpt><trkpt lat="45.7126159" lon="8.1934667"><ele>1151.3333333333333</ele><time>2026-04-12T09:12:16.761Z</time></trkpt><trkpt lat="45.7125741" lon="8.1933532"><ele>1151.0</ele><time>2026-04-12T09:12:18.762Z</time></trkpt><trkpt lat="45.7125519" lon="8.1932361"><ele>1150.6666666666665</ele><time>2026-04-12T09:12:20.761Z</time></trkpt><trkpt lat="45.7125142" lon="8.1931368"><ele>1150.3333333333333</ele><time>2026-04-12T09:12:23.762Z</time></trkpt><trkpt lat="45.7125022" lon="8.1930181"><ele>1150.0</ele><time>2026-04-12T09:12:26.762Z</time></trkpt><trkpt lat="45.7124424" lon="8.1929005"><ele>1150.0</ele><time>2026-04-12T09:12:28.762Z</time></trkpt><trkpt lat="45.7123784" lon="8.1927822"><ele>1150.0</ele><time>2026-04-12T09:12:30.762Z</time></trkpt><trkpt lat="45.712328" lon="8.1926643"><ele>1150.0</ele><time>2026-04-12T09:12:32.763Z</time></trkpt><trkpt lat="45.712282" lon="8.1925768"><ele>1150.0</ele><time>2026-04-12T09:12:34.762Z</time></trkpt><trkpt lat="45.7122126" lon="8.1925664"><ele>1150.0</ele><time>2026-04-12T09:12:38.763Z</time></trkpt><trkpt lat="45.7121952" lon="8.1926548"><ele>1150.0</ele><time>2026-04-12T09:12:40.761Z</time></trkpt><trkpt lat="45.7121818" lon="8.1927867"><ele>1150.0</ele><time>2026-04-12T09:12:43.762Z</time></trkpt><trkpt lat="45.7121872" lon="8.1929015"><ele>1150.0</ele><time>2026-04-12T09:12:46.762Z</time></trkpt><trkpt lat="45.7121354" lon="8.192954"><ele>1150.0</ele><time>2026-04-12T09:12:49.762Z</time></trkpt><trkpt lat="45.7120721" lon="8.192957"><ele>1150.0</ele><time>2026-04-12T09:13:11.762Z</time></trkpt><trkpt lat="45.7120047" lon="8.1928753"><ele>1150.0</ele><time>2026-04-12T09:13:16.762Z</time></trkpt><trkpt lat="45.7119589" lon="8.192812"><ele>1150.0</ele><time>2026-04-12T09:13:18.762Z</time></trkpt><trkpt lat="45.7119009" lon="8.1927675"><ele>1150.0</ele><time>2026-04-12T09:13:20.762Z</time></trkpt><trkpt lat="45.7118341" lon="8.1927626"><ele>1148.5</ele><time>2026-04-12T09:13:22.761Z</time></trkpt><trkpt lat="45.7117527" lon="8.1927685"><ele>1147.0</ele><time>2026-04-12T09:13:25.762Z</time></trkpt><trkpt lat="45.7116884" lon="8.1927494"><ele>1145.5</ele><time>2026-04-12T09:13:28.763Z</time></trkpt><trkpt lat="45.7116087" lon="8.1927251"><ele>1144.0</ele><time>2026-04-12T09:13:31.762Z</time></trkpt><trkpt lat="45.7115273" lon="8.192752"><ele>1142.5</ele><time>2026-04-12T09:13:34.762Z</time></trkpt><trkpt lat="45.7114434" lon="8.1927574"><ele>1141.0</ele><time>2026-04-12T09:13:37.763Z</time></trkpt><trkpt lat="45.7113877" lon="8.1926689"><ele>1141.0</ele><time>2026-04-12T09:13:39.763Z</time></trkpt><trkpt lat="45.711315" lon="8.192586"><ele>1141.0</ele><time>2026-04-12T09:13:41.762Z</time></trkpt><trkpt lat="45.7112559" lon="8.19252"><ele>1141.0</ele><time>2026-04-12T09:13:43.763Z</time></trkpt><trkpt lat="45.7111938" lon="8.1924394"><ele>1141.0</ele><time>2026-04-12T09:13:45.763Z</time></trkpt><trkpt lat="45.7111446" lon="8.1923574"><ele>1141.0</ele><time>2026-04-12T09:13:47.762Z</time></trkpt><trkpt lat="45.7110968" lon="8.1922719"><ele>1141.0</ele><time>2026-04-12T09:13:49.762Z</time></trkpt><trkpt lat="45.7110343" lon="8.1921993"><ele>1138.4285714285713</ele><time>2026-04-12T09:13:51.762Z</time></trkpt><trkpt lat="45.7109807" lon="8.1921156"><ele>1135.857142857143</ele><time>2026-04-12T09:13:53.761Z</time></trkpt><trkpt lat="45.7109589" lon="8.1920277"><ele>1133.2857142857142</ele><time>2026-04-12T09:13:55.762Z</time></trkpt><trkpt lat="45.7109548" lon="8.1919306"><ele>1130.7142857142858</ele><time>2026-04-12T09:13:57.762Z</time></trkpt><trkpt lat="45.710973" lon="8.1918294"><ele>1128.142857142857</ele><time>2026-04-12T09:14:00.761Z</time></trkpt><trkpt lat="45.7109764" lon="8.1917266"><ele>1125.5714285714284</ele><time>2026-04-12T09:14:10.761Z</time></trkpt><trkpt lat="45.7109552" lon="8.1916272"><ele>1123.0</ele><time>2026-04-12T09:14:14.762Z</time></trkpt><trkpt lat="45.710902" lon="8.1916827"><ele>1123.0</ele><time>2026-04-12T09:14:17.762Z</time></trkpt><trkpt lat="45.7108355" lon="8.1916702"><ele>1123.0</ele><time>2026-04-12T09:14:20.762Z</time></trkpt><trkpt lat="45.7107643" lon="8.191623"><ele>1123.0</ele><time>2026-04-12T09:14:23.762Z</time></trkpt><trkpt lat="45.7106866" lon="8.1915722"><ele>1123.0</ele><time>2026-04-12T09:14:26.762Z</time></trkpt><trkpt lat="45.7106156" lon="8.1915277"><ele>1123.0</ele><time>2026-04-12T09:14:30.761Z</time></trkpt><trkpt lat="45.7105415" lon="8.1914997"><ele>1123.0</ele><time>2026-04-12T09:14:33.762Z</time></trkpt><trkpt lat="45.7104655" lon="8.1914586"><ele>1120.3333333333333</ele><time>2026-04-12T09:14:36.761Z</time></trkpt><trkpt lat="45.710408" lon="8.1914014"><ele>1117.6666666666665</ele><time>2026-04-12T09:14:38.762Z</time></trkpt><trkpt lat="45.7103709" lon="8.1912905"><ele>1115.0</ele><time>2026-04-12T09:14:41.762Z</time></trkpt><trkpt lat="45.710319" lon="8.1912019"><ele>1112.3333333333333</ele><time>2026-04-12T09:14:45.762Z</time></trkpt><trkpt lat="45.710236" lon="8.1912109"><ele>1109.6666666666667</ele><time>2026-04-12T09:14:49.762Z</time></trkpt><trkpt lat="45.7101773" lon="8.1911593"><ele>1107.0</ele><time>2026-04-12T09:14:53.761Z</time></trkpt><trkpt lat="45.7101932" lon="8.1910438"><ele>1107.0</ele><time>2026-04-12T09:14:56.761Z</time></trkpt><trkpt lat="45.7102603" lon="8.1909862"><ele>1107.0</ele><time>2026-04-12T09:14:58.762Z</time></trkpt><trkpt lat="45.710386" lon="8.1909659"><ele>1107.0</ele><time>2026-04-12T09:15:00.762Z</time></trkpt><trkpt lat="45.71045" lon="8.190963"><ele>1107.0</ele><time>2026-04-12T09:15:01.762Z</time></trkpt><trkpt lat="45.7105213" lon="8.1909555"><ele>1107.0</ele><time>2026-04-12T09:15:02.761Z</time></trkpt><trkpt lat="45.7105933" lon="8.1909379"><ele>1107.0</ele><time>2026-04-12T09:15:03.761Z</time></trkpt><trkpt lat="45.7106619" lon="8.1909119"><ele>1107.0</ele><time>2026-04-12T09:15:04.762Z</time></trkpt><trkpt lat="45.710724" lon="8.1908775"><ele>1107.0</ele><time>2026-04-12T09:15:05.761Z</time></trkpt><trkpt lat="45.7107921" lon="8.1908407"><ele>1107.0</ele><time>2026-04-12T09:15:06.762Z</time></trkpt><trkpt lat="45.710849" lon="8.1907873"><ele>1107.0</ele><time>2026-04-12T09:15:07.762Z</time></trkpt><trkpt lat="45.7108934" lon="8.1907161"><ele>1107.0</ele><time>2026-04-12T09:15:08.762Z</time></trkpt><trkpt lat="45.710964" lon="8.1905591"><ele>1107.0</ele><time>2026-04-12T09:15:10.762Z</time></trkpt><trkpt lat="45.7109908" lon="8.1904736"><ele>1103.0</ele><time>2026-04-12T09:15:11.762Z</time></trkpt><trkpt lat="45.7110191" lon="8.1903925"><ele>1099.0</ele><time>2026-04-12T09:15:12.762Z</time></trkpt><trkpt lat="45.7110981" lon="8.1902559"><ele>1095.0</ele><time>2026-04-12T09:15:14.762Z</time></trkpt><trkpt lat="45.7111972" lon="8.1901627"><ele>1091.0</ele><time>2026-04-12T09:15:16.762Z</time></trkpt><trkpt lat="45.71128" lon="8.190093"><ele>1087.0</ele><time>2026-04-12T09:15:18.761Z</time></trkpt><trkpt lat="45.7113751" lon="8.1901041"><ele>1087.0</ele><time>2026-04-12T09:15:20.762Z</time></trkpt><trkpt lat="45.7114727" lon="8.190138"><ele>1087.0</ele><time>2026-04-12T09:15:22.762Z</time></trkpt><trkpt lat="45.7115763" lon="8.1901617"><ele>1087.0</ele><time>2026-04-12T09:15:24.761Z</time></trkpt><trkpt lat="45.7116595" lon="8.1901644"><ele>1087.0</ele><time>2026-04-12T09:15:27.762Z</time></trkpt><trkpt lat="45.7117457" lon="8.1901904"><ele>1087.0</ele><time>2026-04-12T09:15:30.76Z</time></trkpt><trkpt lat="45.7118232" lon="8.1902261"><ele>1087.1666666666665</ele><time>2026-04-12T09:15:32.762Z</time></trkpt><trkpt lat="45.7119079" lon="8.1903637"><ele>1087.3333333333333</ele><time>2026-04-12T09:15:34.761Z</time></trkpt><trkpt lat="45.7119303" lon="8.19047"><ele>1087.5</ele><time>2026-04-12T09:15:35.762Z</time></trkpt><trkpt lat="45.7119554" lon="8.1905787"><ele>1087.6666666666667</ele><time>2026-04-12T09:15:36.762Z</time></trkpt><trkpt lat="45.7119987" lon="8.1906814"><ele>1087.8333333333335</ele><time>2026-04-12T09:15:37.761Z</time></trkpt><trkpt lat="45.7120544" lon="8.1907599"><ele>1088.0</ele><time>2026-04-12T09:15:38.762Z</time></trkpt><trkpt lat="45.7121234" lon="8.1908072"><ele>1088.0</ele><time>2026-04-12T09:15:39.762Z</time></trkpt><trkpt lat="45.7121927" lon="8.1908101"><ele>1088.0</ele><time>2026-04-12T09:15:40.762Z</time></trkpt><trkpt lat="45.7122655" lon="8.1907775"><ele>1088.0</ele><time>2026-04-12T09:15:41.762Z</time></trkpt><trkpt lat="45.7123417" lon="8.1907342"><ele>1088.0</ele><time>2026-04-12T09:15:42.763Z</time></trkpt><trkpt lat="45.7124276" lon="8.1906969"><ele>1088.0</ele><time>2026-04-12T09:15:43.762Z</time></trkpt><trkpt lat="45.7125178" lon="8.1906669"><ele>1088.0</ele><time>2026-04-12T09:15:44.762Z</time></trkpt><trkpt lat="45.712616" lon="8.1906172"><ele>1088.0</ele><time>2026-04-12T09:15:45.762Z</time></trkpt><trkpt lat="45.712701" lon="8.1905331"><ele>1088.0</ele><time>2026-04-12T09:15:46.763Z</time></trkpt><trkpt lat="45.71278" lon="8.1904351"><ele>1088.0</ele><time>2026-04-12T09:15:47.761Z</time></trkpt><trkpt lat="45.7128553" lon="8.1903272"><ele>1088.0</ele><time>2026-04-12T09:15:48.762Z</time></trkpt><trkpt lat="45.7129315" lon="8.1902139"><ele>1088.0</ele><time>2026-04-12T09:15:49.762Z</time></trkpt><trkpt lat="45.7130052" lon="8.1901056"><ele>1091.8333333333335</ele><time>2026-04-12T09:15:50.762Z</time></trkpt><trkpt lat="45.7130819" lon="8.1900146"><ele>1095.6666666666667</ele><time>2026-04-12T09:15:51.762Z</time></trkpt><trkpt lat="45.7131483" lon="8.189918"><ele>1099.5</ele><time>2026-04-12T09:15:52.761Z</time></trkpt><trkpt lat="45.7131901" lon="8.189808"><ele>1103.3333333333333</ele><time>2026-04-12T09:15:53.761Z</time></trkpt><trkpt lat="45.7132048" lon="8.1896971"><ele>1107.1666666666665</ele><time>2026-04-12T09:15:54.762Z</time></trkpt><trkpt lat="45.7131884" lon="8.1895866"><ele>1111.0</ele><time>2026-04-12T09:15:55.762Z</time></trkpt><trkpt lat="45.7131482" lon="8.1894844"><ele>1111.0</ele><time>2026-04-12T09:15:56.763Z</time></trkpt><trkpt lat="45.7131088" lon="8.1893785"><ele>1111.0</ele><time>2026-04-12T09:15:57.763Z</time></trkpt><trkpt lat="45.7130901" lon="8.1892713"><ele>1111.0</ele><time>2026-04-12T09:15:58.762Z</time></trkpt><trkpt lat="45.7130976" lon="8.1891679"><ele>1111.0</ele><time>2026-04-12T09:15:59.763Z</time></trkpt><trkpt lat="45.7131401" lon="8.189062"><ele>1111.0</ele><time>2026-04-12T09:16:00.761Z</time></trkpt><trkpt lat="45.7132001" lon="8.1889518"><ele>1111.0</ele><time>2026-04-12T09:16:01.762Z</time></trkpt><trkpt lat="45.7132599" lon="8.1888184"><ele>1107.6</ele><time>2026-04-12T09:16:02.761Z</time></trkpt><trkpt lat="45.7133086" lon="8.1886818"><ele>1104.1999999999998</ele><time>2026-04-12T09:16:03.763Z</time></trkpt><trkpt lat="45.7133516" lon="8.1885518"><ele>1100.8000000000002</ele><time>2026-04-12T09:16:04.763Z</time></trkpt><trkpt lat="45.7134038" lon="8.1884247"><ele>1097.4</ele><time>2026-04-12T09:16:05.762Z</time></trkpt><trkpt lat="45.7134845" lon="8.1883542"><ele>1094.0</ele><time>2026-04-12T09:16:06.761Z</time></trkpt><trkpt lat="45.7135584" lon="8.1882965"><ele>1092.6000000000001</ele><time>2026-04-12T09:16:07.762Z</time></trkpt><trkpt lat="45.7136443" lon="8.1882625"><ele>1091.2</ele><time>2026-04-12T09:16:08.762Z</time></trkpt><trkpt lat="45.7137413" lon="8.1882371"><ele>1089.8000000000002</ele><time>2026-04-12T09:16:09.762Z</time></trkpt><trkpt lat="45.7138424" lon="8.1882049"><ele>1088.4</ele><time>2026-04-12T09:16:10.762Z</time></trkpt><trkpt lat="45.7139458" lon="8.1881695"><ele>1087.0</ele><time>2026-04-12T09:16:11.761Z</time></trkpt><trkpt lat="45.7140469" lon="8.1881189"><ele>1087.0</ele><time>2026-04-12T09:16:12.761Z</time></trkpt><trkpt lat="45.7141427" lon="8.188042"><ele>1087.0</ele><time>2026-04-12T09:16:13.762Z</time></trkpt><trkpt lat="45.7142272" lon="8.1879446"><ele>1087.0</ele><time>2026-04-12T09:16:14.763Z</time></trkpt><trkpt lat="45.714283" lon="8.187811"><ele>1087.0</ele><time>2026-04-12T09:16:15.762Z</time></trkpt><trkpt lat="45.714345" lon="8.1876712"><ele>1087.0</ele><time>2026-04-12T09:16:16.762Z</time></trkpt><trkpt lat="45.714396" lon="8.1875556"><ele>1090.6</ele><time>2026-04-12T09:16:17.763Z</time></trkpt><trkpt lat="45.7144565" lon="8.1874444"><ele>1094.2</ele><time>2026-04-12T09:16:18.762Z</time></trkpt><trkpt lat="45.714544" lon="8.1874302"><ele>1097.8</ele><time>2026-04-12T09:16:19.763Z</time></trkpt><trkpt lat="45.7146359" lon="8.1874406"><ele>1101.4</ele><time>2026-04-12T09:16:20.762Z</time></trkpt><trkpt lat="45.7147291" lon="8.1874464"><ele>1105.0</ele><time>2026-04-12T09:16:21.762Z</time></trkpt><trkpt lat="45.7148239" lon="8.1874495"><ele>1105.0</ele><time>2026-04-12T09:16:22.762Z</time></trkpt><trkpt lat="45.7149188" lon="8.1874293"><ele>1105.0</ele><time>2026-04-12T09:16:23.763Z</time></trkpt><trkpt lat="45.7150088" lon="8.1873962"><ele>1105.0</ele><time>2026-04-12T09:16:24.763Z</time></trkpt><trkpt lat="45.7151013" lon="8.1873593"><ele>1105.0</ele><time>2026-04-12T09:16:25.762Z</time></trkpt><trkpt lat="45.7151697" lon="8.1872946"><ele>1105.0</ele><time>2026-04-12T09:16:26.762Z</time></trkpt><trkpt lat="45.7152247" lon="8.1871945"><ele>1102.2</ele><time>2026-04-12T09:16:27.762Z</time></trkpt><trkpt lat="45.7152481" lon="8.1870837"><ele>1099.4</ele><time>2026-04-12T09:16:28.762Z</time></trkpt><trkpt lat="45.7152485" lon="8.1869624"><ele>1096.6</ele><time>2026-04-12T09:16:29.763Z</time></trkpt><trkpt lat="45.7152157" lon="8.1868296"><ele>1093.8</ele><time>2026-04-12T09:16:30.762Z</time></trkpt><trkpt lat="45.7151685" lon="8.1867112"><ele>1091.0</ele><time>2026-04-12T09:16:31.763Z</time></trkpt><trkpt lat="45.7151251" lon="8.1865835"><ele>1094.0</ele><time>2026-04-12T09:16:32.761Z</time></trkpt><trkpt lat="45.7150703" lon="8.1864502"><ele>1097.0</ele><time>2026-04-12T09:16:33.762Z</time></trkpt><trkpt lat="45.7150081" lon="8.186317"><ele>1100.0</ele><time>2026-04-12T09:16:34.763Z</time></trkpt><trkpt lat="45.7149371" lon="8.1861827"><ele>1103.0</ele><time>2026-04-12T09:16:35.762Z</time></trkpt><trkpt lat="45.7148618" lon="8.1860547"><ele>1103.0</ele><time>2026-04-12T09:16:36.761Z</time></trkpt><trkpt lat="45.7147783" lon="8.1859349"><ele>1103.0</ele><time>2026-04-12T09:16:37.761Z</time></trkpt><trkpt lat="45.71468" lon="8.1858422"><ele>1103.0</ele><time>2026-04-12T09:16:38.762Z</time></trkpt><trkpt lat="45.7145715" lon="8.1857705"><ele>1103.0</ele><time>2026-04-12T09:16:39.762Z</time></trkpt><trkpt lat="45.7144731" lon="8.1856913"><ele>1099.4</ele><time>2026-04-12T09:16:40.761Z</time></trkpt><trkpt lat="45.714383" lon="8.1855939"><ele>1095.8</ele><time>2026-04-12T09:16:41.761Z</time></trkpt><trkpt lat="45.714332" lon="8.1854585"><ele>1092.2</ele><time>2026-04-12T09:16:42.762Z</time></trkpt><trkpt lat="45.7142794" lon="8.1853107"><ele>1088.6</ele><time>2026-04-12T09:16:43.763Z</time></trkpt><trkpt lat="45.7142382" lon="8.1851611"><ele>1085.0</ele><time>2026-04-12T09:16:44.763Z</time></trkpt><trkpt lat="45.7142095" lon="8.1850085"><ele>1085.0</ele><time>2026-04-12T09:16:45.762Z</time></trkpt><trkpt lat="45.7141988" lon="8.1848577"><ele>1085.0</ele><time>2026-04-12T09:16:46.762Z</time></trkpt><trkpt lat="45.7142002" lon="8.1847053"><ele>1085.0</ele><time>2026-04-12T09:16:47.761Z</time></trkpt><trkpt lat="45.7142084" lon="8.1845551"><ele>1085.0</ele><time>2026-04-12T09:16:48.763Z</time></trkpt><trkpt lat="45.7142242" lon="8.1844027"><ele>1085.0</ele><time>2026-04-12T09:16:49.763Z</time></trkpt><trkpt lat="45.7142376" lon="8.1842629"><ele>1086.1666666666667</ele><time>2026-04-12T09:16:50.761Z</time></trkpt><trkpt lat="45.7142331" lon="8.1841356"><ele>1087.3333333333335</ele><time>2026-04-12T09:16:51.762Z</time></trkpt><trkpt lat="45.7141975" lon="8.1840193"><ele>1088.5</ele><time>2026-04-12T09:16:52.762Z</time></trkpt><trkpt lat="45.7141469" lon="8.1839279"><ele>1089.6666666666667</ele><time>2026-04-12T09:16:53.762Z</time></trkpt><trkpt lat="45.7140836" lon="8.1838684"><ele>1090.8333333333333</ele><time>2026-04-12T09:16:54.762Z</time></trkpt><trkpt lat="45.7140121" lon="8.1838504"><ele>1092.0</ele><time>2026-04-12T09:16:55.762Z</time></trkpt><trkpt lat="45.713937" lon="8.1838746"><ele>1092.0</ele><time>2026-04-12T09:16:56.761Z</time></trkpt><trkpt lat="45.7138582" lon="8.1839325"><ele>1092.0</ele><time>2026-04-12T09:16:57.762Z</time></trkpt><trkpt lat="45.7137705" lon="8.1839804"><ele>1092.0</ele><time>2026-04-12T09:16:58.761Z</time></trkpt><trkpt lat="45.7136707" lon="8.1840151"><ele>1092.0</ele><time>2026-04-12T09:16:59.762Z</time></trkpt><trkpt lat="45.7135599" lon="8.1840195"><ele>1092.0</ele><time>2026-04-12T09:17:00.762Z</time></trkpt><trkpt lat="45.7134417" lon="8.1840049"><ele>1094.4</ele><time>2026-04-12T09:17:01.762Z</time></trkpt><trkpt lat="45.7133212" lon="8.1839892"><ele>1096.8000000000002</ele><time>2026-04-12T09:17:02.76Z</time></trkpt><trkpt lat="45.7132068" lon="8.1839764"><ele>1099.2</ele><time>2026-04-12T09:17:03.763Z</time></trkpt><trkpt lat="45.7131025" lon="8.1839563"><ele>1101.6000000000001</ele><time>2026-04-12T09:17:04.763Z</time></trkpt><trkpt lat="45.7130112" lon="8.1839064"><ele>1104.0</ele><time>2026-04-12T09:17:05.762Z</time></trkpt><trkpt lat="45.712927" lon="8.1838258"><ele>1104.0</ele><time>2026-04-12T09:17:06.762Z</time></trkpt><trkpt lat="45.7128528" lon="8.1837196"><ele>1104.0</ele><time>2026-04-12T09:17:07.762Z</time></trkpt><trkpt lat="45.7127684" lon="8.183626"><ele>1104.0</ele><time>2026-04-12T09:17:08.761Z</time></trkpt><trkpt lat="45.7126774" lon="8.1835421"><ele>1104.0</ele><time>2026-04-12T09:17:09.763Z</time></trkpt><trkpt lat="45.7125735" lon="8.183489"><ele>1104.0</ele><time>2026-04-12T09:17:10.762Z</time></trkpt><trkpt lat="45.7124649" lon="8.1834655"><ele>1097.6000000000001</ele><time>2026-04-12T09:17:11.762Z</time></trkpt><trkpt lat="45.7123546" lon="8.1834528"><ele>1091.2</ele><time>2026-04-12T09:17:12.761Z</time></trkpt><trkpt lat="45.7122483" lon="8.1834358"><ele>1084.8000000000002</ele><time>2026-04-12T09:17:13.763Z</time></trkpt><trkpt lat="45.7121578" lon="8.1834021"><ele>1078.4</ele><time>2026-04-12T09:17:14.763Z</time></trkpt><trkpt lat="45.7120801" lon="8.1833396"><ele>1072.0</ele><time>2026-04-12T09:17:15.763Z</time></trkpt><trkpt lat="45.7120287" lon="8.1832369"><ele>1075.8333333333333</ele><time>2026-04-12T09:17:16.763Z</time></trkpt><trkpt lat="45.7119994" lon="8.1831211"><ele>1079.6666666666665</ele><time>2026-04-12T09:17:17.762Z</time></trkpt><trkpt lat="45.7119951" lon="8.1829867"><ele>1083.5</ele><time>2026-04-12T09:17:18.762Z</time></trkpt><trkpt lat="45.7120059" lon="8.1828574"><ele>1087.3333333333333</ele><time>2026-04-12T09:17:19.762Z</time></trkpt><trkpt lat="45.7120041" lon="8.1827282"><ele>1091.1666666666667</ele><time>2026-04-12T09:17:20.762Z</time></trkpt><trkpt lat="45.7119767" lon="8.1826141"><ele>1095.0</ele><time>2026-04-12T09:17:21.763Z</time></trkpt><trkpt lat="45.7119306" lon="8.182508"><ele>1089.1666666666667</ele><time>2026-04-12T09:17:22.763Z</time></trkpt><trkpt lat="45.7118732" lon="8.1824325"><ele>1083.3333333333333</ele><time>2026-04-12T09:17:23.762Z</time></trkpt><trkpt lat="45.711801" lon="8.1823982"><ele>1077.5</ele><time>2026-04-12T09:17:24.763Z</time></trkpt><trkpt lat="45.7117287" lon="8.1823833"><ele>1071.6666666666665</ele><time>2026-04-12T09:17:25.762Z</time></trkpt><trkpt lat="45.7116458" lon="8.1824335"><ele>1065.8333333333333</ele><time>2026-04-12T09:17:26.763Z</time></trkpt><trkpt lat="45.7115539" lon="8.1824576"><ele>1060.0</ele><time>2026-04-12T09:17:27.762Z</time></trkpt><trkpt lat="45.7114556" lon="8.182484"><ele>1060.0</ele><time>2026-04-12T09:17:28.762Z</time></trkpt><trkpt lat="45.7113492" lon="8.1825137"><ele>1060.0</ele><time>2026-04-12T09:17:29.763Z</time></trkpt><trkpt lat="45.7112513" lon="8.1825325"><ele>1060.0</ele><time>2026-04-12T09:17:30.763Z</time></trkpt><trkpt lat="45.7111503" lon="8.1825669"><ele>1060.0</ele><time>2026-04-12T09:17:31.762Z</time></trkpt><trkpt lat="45.7110514" lon="8.1825864"><ele>1060.0</ele><time>2026-04-12T09:17:32.763Z</time></trkpt><trkpt lat="45.7109537" lon="8.1826085"><ele>1057.6</ele><time>2026-04-12T09:17:33.762Z</time></trkpt><trkpt lat="45.7108568" lon="8.1826112"><ele>1055.2</ele><time>2026-04-12T09:17:34.762Z</time></trkpt><trkpt lat="45.7107549" lon="8.1826043"><ele>1052.8</ele><time>2026-04-12T09:17:35.762Z</time></trkpt><trkpt lat="45.7106537" lon="8.1825722"><ele>1050.4</ele><time>2026-04-12T09:17:36.762Z</time></trkpt><trkpt lat="45.7105507" lon="8.1825506"><ele>1048.0</ele><time>2026-04-12T09:17:37.762Z</time></trkpt><trkpt lat="45.710448" lon="8.1825116"><ele>1048.0</ele><time>2026-04-12T09:17:38.763Z</time></trkpt><trkpt lat="45.7103479" lon="8.1824619"><ele>1048.0</ele><time>2026-04-12T09:17:39.763Z</time></trkpt><trkpt lat="45.710251" lon="8.182375"><ele>1048.0</ele><time>2026-04-12T09:17:40.761Z</time></trkpt><trkpt lat="45.7101552" lon="8.1822936"><ele>1048.0</ele><time>2026-04-12T09:17:41.762Z</time></trkpt><trkpt lat="45.7100625" lon="8.182212"><ele>1048.0</ele><time>2026-04-12T09:17:42.763Z</time></trkpt><trkpt lat="45.7099827" lon="8.1821361"><ele>1050.1666666666665</ele><time>2026-04-12T09:17:43.762Z</time></trkpt><trkpt lat="45.7099082" lon="8.1820726"><ele>1052.3333333333333</ele><time>2026-04-12T09:17:44.762Z</time></trkpt><trkpt lat="45.7098352" lon="8.1820372"><ele>1054.5</ele><time>2026-04-12T09:17:45.763Z</time></trkpt><trkpt lat="45.7097511" lon="8.1820588"><ele>1056.6666666666667</ele><time>2026-04-12T09:17:46.762Z</time></trkpt><trkpt lat="45.7096631" lon="8.1820769"><ele>1058.8333333333335</ele><time>2026-04-12T09:17:47.762Z</time></trkpt><trkpt lat="45.7095666" lon="8.1820888"><ele>1061.0</ele><time>2026-04-12T09:17:48.762Z</time></trkpt><trkpt lat="45.709467" lon="8.1820988"><ele>1057.6</ele><time>2026-04-12T09:17:49.761Z</time></trkpt><trkpt lat="45.7093609" lon="8.1821084"><ele>1054.1999999999998</ele><time>2026-04-12T09:17:50.762Z</time></trkpt><trkpt lat="45.7092521" lon="8.1821062"><ele>1050.8000000000002</ele><time>2026-04-12T09:17:51.762Z</time></trkpt><trkpt lat="45.7091426" lon="8.182126"><ele>1047.4</ele><time>2026-04-12T09:17:52.763Z</time></trkpt><trkpt lat="45.7090316" lon="8.1821227"><ele>1044.0</ele><time>2026-04-12T09:17:53.762Z</time></trkpt><trkpt lat="45.7089136" lon="8.1820896"><ele>1044.0</ele><time>2026-04-12T09:17:54.762Z</time></trkpt><trkpt lat="45.7088087" lon="8.1820192"><ele>1044.0</ele><time>2026-04-12T09:17:55.762Z</time></trkpt><trkpt lat="45.7087007" lon="8.1819672"><ele>1044.0</ele><time>2026-04-12T09:17:56.763Z</time></trkpt><trkpt lat="45.7085955" lon="8.1819598"><ele>1044.0</ele><time>2026-04-12T09:17:57.763Z</time></trkpt><trkpt lat="45.7084845" lon="8.181989"><ele>1044.0</ele><time>2026-04-12T09:17:58.763Z</time></trkpt><trkpt lat="45.7083765" lon="8.1820078"><ele>1041.6000000000001</ele><time>2026-04-12T09:17:59.762Z</time></trkpt><trkpt lat="45.7082708" lon="8.1820121"><ele>1039.2</ele><time>2026-04-12T09:18:00.762Z</time></trkpt><trkpt lat="45.7081615" lon="8.1819983"><ele>1036.8000000000002</ele><time>2026-04-12T09:18:01.762Z</time></trkpt><trkpt lat="45.7080582" lon="8.1819801"><ele>1034.4</ele><time>2026-04-12T09:18:02.762Z</time></trkpt><trkpt lat="45.7079843" lon="8.1819101"><ele>1032.0</ele><time>2026-04-12T09:18:03.762Z</time></trkpt><trkpt lat="45.7079148" lon="8.1818272"><ele>1032.0</ele><time>2026-04-12T09:18:04.761Z</time></trkpt><trkpt lat="45.707856" lon="8.1817113"><ele>1032.0</ele><time>2026-04-12T09:18:05.762Z</time></trkpt><trkpt lat="45.7077854" lon="8.1816051"><ele>1032.0</ele><time>2026-04-12T09:18:06.762Z</time></trkpt><trkpt lat="45.7077082" lon="8.1814979"><ele>1032.0</ele><time>2026-04-12T09:18:07.763Z</time></trkpt><trkpt lat="45.7076322" lon="8.1813983"><ele>1032.0</ele><time>2026-04-12T09:18:08.762Z</time></trkpt><trkpt lat="45.7075672" lon="8.1812781"><ele>1029.25</ele><time>2026-04-12T09:18:09.763Z</time></trkpt><trkpt lat="45.7075069" lon="8.181153"><ele>1026.5</ele><time>2026-04-12T09:18:10.762Z</time></trkpt><trkpt lat="45.7074483" lon="8.180996"><ele>1023.75</ele><time>2026-04-12T09:18:11.763Z</time></trkpt><trkpt lat="45.7073838" lon="8.1808594"><ele>1021.0</ele><time>2026-04-12T09:18:12.763Z</time></trkpt><trkpt lat="45.7073118" lon="8.18073"><ele>1027.0</ele><time>2026-04-12T09:18:13.761Z</time></trkpt><trkpt lat="45.707234" lon="8.1806056"><ele>1033.0</ele><time>2026-04-12T09:18:14.763Z</time></trkpt><trkpt lat="45.7071651" lon="8.1804741"><ele>1039.0</ele><time>2026-04-12T09:18:15.762Z</time></trkpt><trkpt lat="45.7070855" lon="8.1803417"><ele>1045.0</ele><time>2026-04-12T09:18:16.763Z</time></trkpt><trkpt lat="45.7070065" lon="8.1802123"><ele>1045.0</ele><time>2026-04-12T09:18:17.762Z</time></trkpt><trkpt lat="45.7069279" lon="8.1800901"><ele>1045.0</ele><time>2026-04-12T09:18:18.762Z</time></trkpt><trkpt lat="45.7068393" lon="8.1799769"><ele>1045.0</ele><time>2026-04-12T09:18:19.762Z</time></trkpt><trkpt lat="45.7067502" lon="8.1798688"><ele>1045.0</ele><time>2026-04-12T09:18:20.761Z</time></trkpt><trkpt lat="45.7066548" lon="8.179766"><ele>1040.5</ele><time>2026-04-12T09:18:21.763Z</time></trkpt><trkpt lat="45.7065519" lon="8.1796722"><ele>1036.0</ele><time>2026-04-12T09:18:22.762Z</time></trkpt><trkpt lat="45.7064529" lon="8.1795794"><ele>1031.5</ele><time>2026-04-12T09:18:23.761Z</time></trkpt><trkpt lat="45.7063522" lon="8.1794871"><ele>1027.0</ele><time>2026-04-12T09:18:24.763Z</time></trkpt><trkpt lat="45.7062515" lon="8.1793996"><ele>1027.0</ele><time>2026-04-12T09:18:25.762Z</time></trkpt><trkpt lat="45.706151" lon="8.1793098"><ele>1027.0</ele><time>2026-04-12T09:18:26.762Z</time></trkpt><trkpt lat="45.706059" lon="8.179205"><ele>1027.0</ele><time>2026-04-12T09:18:27.763Z</time></trkpt><trkpt lat="45.705982" lon="8.1790766"><ele>1027.0</ele><time>2026-04-12T09:18:28.762Z</time></trkpt><trkpt lat="45.7059224" lon="8.1789374"><ele>1020.5</ele><time>2026-04-12T09:18:29.762Z</time></trkpt><trkpt lat="45.7058792" lon="8.1787863"><ele>1014.0</ele><time>2026-04-12T09:18:30.762Z</time></trkpt><trkpt lat="45.705838" lon="8.178627"><ele>1007.5</ele><time>2026-04-12T09:18:31.763Z</time></trkpt><trkpt lat="45.7057949" lon="8.1784724"><ele>1001.0</ele><time>2026-04-12T09:18:32.763Z</time></trkpt><trkpt lat="45.7057511" lon="8.1783174"><ele>1001.75</ele><time>2026-04-12T09:18:33.761Z</time></trkpt><trkpt lat="45.7057133" lon="8.1781612"><ele>1002.5</ele><time>2026-04-12T09:18:34.763Z</time></trkpt><trkpt lat="45.7056763" lon="8.1780022"><ele>1003.25</ele><time>2026-04-12T09:18:35.763Z</time></trkpt><trkpt lat="45.7056396" lon="8.1778454"><ele>1004.0</ele><time>2026-04-12T09:18:36.763Z</time></trkpt><trkpt lat="45.70561" lon="8.1776898"><ele>1004.0</ele><time>2026-04-12T09:18:37.761Z</time></trkpt><trkpt lat="45.705593" lon="8.1775255"><ele>1004.0</ele><time>2026-04-12T09:18:38.762Z</time></trkpt><trkpt lat="45.7055869" lon="8.177362"><ele>1004.0</ele><time>2026-04-12T09:18:39.762Z</time></trkpt><trkpt lat="45.7055868" lon="8.1771955"><ele>1004.0</ele><time>2026-04-12T09:18:40.762Z</time></trkpt><trkpt lat="45.7055984" lon="8.1770356"><ele>1001.6</ele><time>2026-04-12T09:18:41.763Z</time></trkpt><trkpt lat="45.7056156" lon="8.1768749"><ele>999.2</ele><time>2026-04-12T09:18:42.762Z</time></trkpt><trkpt lat="45.7056425" lon="8.176725"><ele>996.8000000000001</ele><time>2026-04-12T09:18:43.762Z</time></trkpt><trkpt lat="45.7057157" lon="8.1766034"><ele>994.4000000000001</ele><time>2026-04-12T09:18:44.762Z</time></trkpt><trkpt lat="45.7057789" lon="8.1764718"><ele>992.0</ele><time>2026-04-12T09:18:45.763Z</time></trkpt><trkpt lat="45.7058514" lon="8.1763439"><ele>992.6</ele><time>2026-04-12T09:18:46.763Z</time></trkpt><trkpt lat="45.7059159" lon="8.1762204"><ele>993.2</ele><time>2026-04-12T09:18:47.76Z</time></trkpt><trkpt lat="45.7059775" lon="8.1761094"><ele>993.8</ele><time>2026-04-12T09:18:48.762Z</time></trkpt><trkpt lat="45.7060276" lon="8.1760077"><ele>994.4</ele><time>2026-04-12T09:18:49.762Z</time></trkpt><trkpt lat="45.7061065" lon="8.175987"><ele>995.0</ele><time>2026-04-12T09:18:50.763Z</time></trkpt><trkpt lat="45.7061842" lon="8.1759611"><ele>995.0</ele><time>2026-04-12T09:18:51.763Z</time></trkpt><trkpt lat="45.7062638" lon="8.175921"><ele>995.0</ele><time>2026-04-12T09:18:52.763Z</time></trkpt><trkpt lat="45.7063502" lon="8.1758729"><ele>995.0</ele><time>2026-04-12T09:18:53.763Z</time></trkpt><trkpt lat="45.7064313" lon="8.1758112"><ele>995.0</ele><time>2026-04-12T09:18:54.762Z</time></trkpt><trkpt lat="45.7065071" lon="8.175736"><ele>995.0</ele><time>2026-04-12T09:18:55.762Z</time></trkpt><trkpt lat="45.7065816" lon="8.1756551"><ele>997.2</ele><time>2026-04-12T09:18:56.762Z</time></trkpt><trkpt lat="45.7066535" lon="8.1755809"><ele>999.4</ele><time>2026-04-12T09:18:57.763Z</time></trkpt><trkpt lat="45.7067213" lon="8.1754926"><ele>1001.5999999999999</ele><time>2026-04-12T09:18:58.763Z</time></trkpt><trkpt lat="45.7067899" lon="8.1754054"><ele>1003.8</ele><time>2026-04-12T09:18:59.761Z</time></trkpt><trkpt lat="45.7068573" lon="8.1753108"><ele>1006.0</ele><time>2026-04-12T09:19:00.763Z</time></trkpt><trkpt lat="45.7069231" lon="8.1752122"><ele>1006.0</ele><time>2026-04-12T09:19:01.763Z</time></trkpt><trkpt lat="45.7069947" lon="8.1751236"><ele>1005.9999999999999</ele><time>2026-04-12T09:19:02.762Z</time></trkpt><trkpt lat="45.7070668" lon="8.175033"><ele>1005.9999999999999</ele><time>2026-04-12T09:19:03.763Z</time></trkpt><trkpt lat="45.7071382" lon="8.1749343"><ele>1006.0</ele><time>2026-04-12T09:19:04.763Z</time></trkpt><trkpt lat="45.7072052" lon="8.1748371"><ele>1006.0</ele><time>2026-04-12T09:19:05.762Z</time></trkpt><trkpt lat="45.7072597" lon="8.1747213"><ele>1004.4</ele><time>2026-04-12T09:19:06.761Z</time></trkpt><trkpt lat="45.707295" lon="8.1745885"><ele>1002.8</ele><time>2026-04-12T09:19:07.764Z</time></trkpt><trkpt lat="45.7073213" lon="8.1744454"><ele>1001.1999999999999</ele><time>2026-04-12T09:19:08.763Z</time></trkpt><trkpt lat="45.7073327" lon="8.1742971"><ele>999.5999999999999</ele><time>2026-04-12T09:19:09.763Z</time></trkpt><trkpt lat="45.7073419" lon="8.1741485"><ele>998.0</ele><time>2026-04-12T09:19:10.763Z</time></trkpt><trkpt lat="45.7073348" lon="8.1739994"><ele>997.2</ele><time>2026-04-12T09:19:11.763Z</time></trkpt><trkpt lat="45.70734" lon="8.1738521"><ele>996.4</ele><time>2026-04-12T09:19:12.763Z</time></trkpt><trkpt lat="45.7073549" lon="8.1737045"><ele>995.6000000000001</ele><time>2026-04-12T09:19:13.763Z</time></trkpt><trkpt lat="45.7073567" lon="8.1735433"><ele>994.8000000000001</ele><time>2026-04-12T09:19:14.763Z</time></trkpt><trkpt lat="45.7073495" lon="8.1733925"><ele>994.0</ele><time>2026-04-12T09:19:15.763Z</time></trkpt><trkpt lat="45.7073325" lon="8.1732383"><ele>994.2</ele><time>2026-04-12T09:19:16.761Z</time></trkpt><trkpt lat="45.707303" lon="8.1730908"><ele>994.4000000000001</ele><time>2026-04-12T09:19:17.763Z</time></trkpt><trkpt lat="45.7072614" lon="8.1729483"><ele>994.6</ele><time>2026-04-12T09:19:18.763Z</time></trkpt><trkpt lat="45.7072064" lon="8.1728157"><ele>994.8</ele><time>2026-04-12T09:19:19.762Z</time></trkpt><trkpt lat="45.7071366" lon="8.1726907"><ele>995.0</ele><time>2026-04-12T09:19:20.763Z</time></trkpt><trkpt lat="45.7070619" lon="8.1725689"><ele>995.0</ele><time>2026-04-12T09:19:21.762Z</time></trkpt><trkpt lat="45.7069845" lon="8.1724555"><ele>995.0</ele><time>2026-04-12T09:19:22.762Z</time></trkpt><trkpt lat="45.7069036" lon="8.1723377"><ele>995.0</ele><time>2026-04-12T09:19:23.762Z</time></trkpt><trkpt lat="45.7068307" lon="8.1722125"><ele>995.0</ele><time>2026-04-12T09:19:24.762Z</time></trkpt><trkpt lat="45.7067609" lon="8.1720824"><ele>990.0</ele><time>2026-04-12T09:19:25.761Z</time></trkpt><trkpt lat="45.7066973" lon="8.1719461"><ele>985.0</ele><time>2026-04-12T09:19:26.763Z</time></trkpt><trkpt lat="45.7066361" lon="8.1718133"><ele>980.0</ele><time>2026-04-12T09:19:27.762Z</time></trkpt><trkpt lat="45.7065731" lon="8.1716938"><ele>975.0</ele><time>2026-04-12T09:19:28.763Z</time></trkpt><trkpt lat="45.7065111" lon="8.1715868"><ele>970.0</ele><time>2026-04-12T09:19:29.763Z</time></trkpt><trkpt lat="45.7064437" lon="8.1714872"><ele>967.2</ele><time>2026-04-12T09:19:30.762Z</time></trkpt><trkpt lat="45.7063699" lon="8.1714044"><ele>964.4</ele><time>2026-04-12T09:19:31.761Z</time></trkpt><trkpt lat="45.7062879" lon="8.1713491"><ele>961.5999999999999</ele><time>2026-04-12T09:19:32.763Z</time></trkpt><trkpt lat="45.7061985" lon="8.1713181"><ele>958.8</ele><time>2026-04-12T09:19:33.763Z</time></trkpt><trkpt lat="45.706108" lon="8.1713123"><ele>956.0</ele><time>2026-04-12T09:19:34.763Z</time></trkpt><trkpt lat="45.706021" lon="8.1713342"><ele>954.5999999999999</ele><time>2026-04-12T09:19:35.762Z</time></trkpt><trkpt lat="45.7059395" lon="8.1713893"><ele>953.1999999999999</ele><time>2026-04-12T09:19:36.761Z</time></trkpt><trkpt lat="45.7058698" lon="8.1714726"><ele>951.8000000000001</ele><time>2026-04-12T09:19:37.763Z</time></trkpt><trkpt lat="45.7058194" lon="8.1715794"><ele>950.4000000000001</ele><time>2026-04-12T09:19:38.762Z</time></trkpt><trkpt lat="45.7057849" lon="8.1717046"><ele>949.0</ele><time>2026-04-12T09:19:39.762Z</time></trkpt><trkpt lat="45.705754" lon="8.1718241"><ele>949.0</ele><time>2026-04-12T09:19:40.761Z</time></trkpt><trkpt lat="45.7057299" lon="8.1719516"><ele>949.0000000000001</ele><time>2026-04-12T09:19:41.763Z</time></trkpt><trkpt lat="45.7057034" lon="8.1720809"><ele>949.0000000000001</ele><time>2026-04-12T09:19:42.762Z</time></trkpt><trkpt lat="45.7056686" lon="8.1722148"><ele>949.0</ele><time>2026-04-12T09:19:43.762Z</time></trkpt><trkpt lat="45.7056361" lon="8.1723517"><ele>949.0</ele><time>2026-04-12T09:19:44.763Z</time></trkpt><trkpt lat="45.7056013" lon="8.1724854"><ele>948.2</ele><time>2026-04-12T09:19:45.762Z</time></trkpt><trkpt lat="45.7055655" lon="8.1726212"><ele>947.4000000000001</ele><time>2026-04-12T09:19:46.763Z</time></trkpt><trkpt lat="45.7055352" lon="8.1727537"><ele>946.6</ele><time>2026-04-12T09:19:47.763Z</time></trkpt><trkpt lat="45.7054932" lon="8.1728804"><ele>945.8</ele><time>2026-04-12T09:19:48.763Z</time></trkpt><trkpt lat="45.7054363" lon="8.1729913"><ele>945.0</ele><time>2026-04-12T09:19:49.763Z</time></trkpt><trkpt lat="45.7053663" lon="8.1730799"><ele>945.0</ele><time>2026-04-12T09:19:50.763Z</time></trkpt><trkpt lat="45.7052777" lon="8.1731396"><ele>945.0</ele><time>2026-04-12T09:19:51.762Z</time></trkpt><trkpt lat="45.705188" lon="8.1731664"><ele>945.0</ele><time>2026-04-12T09:19:52.761Z</time></trkpt><trkpt lat="45.7050982" lon="8.173201"><ele>945.0</ele><time>2026-04-12T09:19:53.761Z</time></trkpt><trkpt lat="45.7050041" lon="8.1732399"><ele>945.0</ele><time>2026-04-12T09:19:54.762Z</time></trkpt><trkpt lat="45.7049155" lon="8.1732977"><ele>943.0</ele><time>2026-04-12T09:19:55.763Z</time></trkpt><trkpt lat="45.7048339" lon="8.1733769"><ele>941.0</ele><time>2026-04-12T09:19:56.763Z</time></trkpt><trkpt lat="45.7047577" lon="8.1734721"><ele>939.0</ele><time>2026-04-12T09:19:57.763Z</time></trkpt><trkpt lat="45.7046882" lon="8.1735806"><ele>937.0</ele><time>2026-04-12T09:19:58.762Z</time></trkpt><trkpt lat="45.7046161" lon="8.1736891"><ele>935.0</ele><time>2026-04-12T09:19:59.761Z</time></trkpt><trkpt lat="45.7045433" lon="8.1738069"><ele>935.0</ele><time>2026-04-12T09:20:00.762Z</time></trkpt><trkpt lat="45.7044765" lon="8.1739274"><ele>935.0</ele><time>2026-04-12T09:20:01.763Z</time></trkpt><trkpt lat="45.7044258" lon="8.174064"><ele>935.0</ele><time>2026-04-12T09:20:02.763Z</time></trkpt><trkpt lat="45.7043906" lon="8.1742121"><ele>935.0</ele><time>2026-04-12T09:20:03.762Z</time></trkpt><trkpt lat="45.7043484" lon="8.174354"><ele>935.0</ele><time>2026-04-12T09:20:04.762Z</time></trkpt><trkpt lat="45.7042978" lon="8.1744963"><ele>932.0</ele><time>2026-04-12T09:20:05.762Z</time></trkpt><trkpt lat="45.7042376" lon="8.1746365"><ele>929.0</ele><time>2026-04-12T09:20:06.763Z</time></trkpt><trkpt lat="45.7041632" lon="8.1747656"><ele>926.0</ele><time>2026-04-12T09:20:07.762Z</time></trkpt><trkpt lat="45.7040893" lon="8.1748925"><ele>923.0</ele><time>2026-04-12T09:20:08.763Z</time></trkpt><trkpt lat="45.7040165" lon="8.1750306"><ele>923.0</ele><time>2026-04-12T09:20:09.763Z</time></trkpt><trkpt lat="45.703947" lon="8.1751684"><ele>923.0</ele><time>2026-04-12T09:20:10.763Z</time></trkpt><trkpt lat="45.7038721" lon="8.1752954"><ele>923.0</ele><time>2026-04-12T09:20:11.763Z</time></trkpt><trkpt lat="45.7037923" lon="8.1754153"><ele>923.0</ele><time>2026-04-12T09:20:12.763Z</time></trkpt><trkpt lat="45.7037081" lon="8.1755243"><ele>923.0</ele><time>2026-04-12T09:20:13.763Z</time></trkpt><trkpt lat="45.7036156" lon="8.1756001"><ele>923.0</ele><time>2026-04-12T09:20:14.763Z</time></trkpt><trkpt lat="45.7035179" lon="8.1756653"><ele>923.0</ele><time>2026-04-12T09:20:15.763Z</time></trkpt><trkpt lat="45.7034276" lon="8.1757215"><ele>923.0</ele><time>2026-04-12T09:20:16.763Z</time></trkpt><trkpt lat="45.7033506" lon="8.1758017"><ele>923.0</ele><time>2026-04-12T09:20:17.762Z</time></trkpt><trkpt lat="45.7032839" lon="8.1759019"><ele>919.5999999999999</ele><time>2026-04-12T09:20:18.763Z</time></trkpt><trkpt lat="45.7032239" lon="8.1760111"><ele>916.1999999999999</ele><time>2026-04-12T09:20:19.763Z</time></trkpt><trkpt lat="45.7031727" lon="8.1761294"><ele>912.8</ele><time>2026-04-12T09:20:20.762Z</time></trkpt><trkpt lat="45.7031326" lon="8.1762474"><ele>909.4</ele><time>2026-04-12T09:20:21.764Z</time></trkpt><trkpt lat="45.7031165" lon="8.1763791"><ele>906.0</ele><time>2026-04-12T09:20:22.762Z</time></trkpt><trkpt lat="45.7031375" lon="8.1765075"><ele>906.1666666666666</ele><time>2026-04-12T09:20:23.763Z</time></trkpt><trkpt lat="45.7031827" lon="8.1766164"><ele>906.3333333333333</ele><time>2026-04-12T09:20:24.763Z</time></trkpt><trkpt lat="45.7032095" lon="8.1767263"><ele>906.5</ele><time>2026-04-12T09:20:25.762Z</time></trkpt><trkpt lat="45.7032103" lon="8.1768401"><ele>906.6666666666666</ele><time>2026-04-12T09:20:26.763Z</time></trkpt><trkpt lat="45.7031858" lon="8.176946"><ele>906.8333333333333</ele><time>2026-04-12T09:20:27.763Z</time></trkpt><trkpt lat="45.7031474" lon="8.1770524"><ele>907.0</ele><time>2026-04-12T09:20:28.764Z</time></trkpt><trkpt lat="45.7031121" lon="8.1771701"><ele>907.0</ele><time>2026-04-12T09:20:29.762Z</time></trkpt><trkpt lat="45.7030879" lon="8.1772979"><ele>907.0</ele><time>2026-04-12T09:20:30.763Z</time></trkpt><trkpt lat="45.7030691" lon="8.1774268"><ele>907.0</ele><time>2026-04-12T09:20:31.763Z</time></trkpt><trkpt lat="45.7030571" lon="8.1775686"><ele>907.0</ele><time>2026-04-12T09:20:32.762Z</time></trkpt><trkpt lat="45.7030419" lon="8.1777129"><ele>907.0</ele><time>2026-04-12T09:20:33.762Z</time></trkpt><trkpt lat="45.7030293" lon="8.177866"><ele>906.0</ele><time>2026-04-12T09:20:34.762Z</time></trkpt><trkpt lat="45.7030234" lon="8.178021"><ele>905.0</ele><time>2026-04-12T09:20:35.762Z</time></trkpt><trkpt lat="45.7030121" lon="8.1781696"><ele>904.0</ele><time>2026-04-12T09:20:36.763Z</time></trkpt><trkpt lat="45.7029867" lon="8.1783118"><ele>903.0</ele><time>2026-04-12T09:20:37.761Z</time></trkpt><trkpt lat="45.7029546" lon="8.1784346"><ele>902.0</ele><time>2026-04-12T09:20:38.763Z</time></trkpt><trkpt lat="45.7029484" lon="8.178543"><ele>901.1666666666667</ele><time>2026-04-12T09:20:39.762Z</time></trkpt><trkpt lat="45.7029723" lon="8.1786361"><ele>900.3333333333334</ele><time>2026-04-12T09:20:40.763Z</time></trkpt><trkpt lat="45.7030276" lon="8.1787033"><ele>899.5</ele><time>2026-04-12T09:20:41.763Z</time></trkpt><trkpt lat="45.703101" lon="8.1787413"><ele>898.6666666666667</ele><time>2026-04-12T09:20:42.763Z</time></trkpt><trkpt lat="45.7031835" lon="8.1787882"><ele>897.8333333333334</ele><time>2026-04-12T09:20:43.763Z</time></trkpt><trkpt lat="45.7032668" lon="8.178839"><ele>897.0</ele><time>2026-04-12T09:20:44.763Z</time></trkpt><trkpt lat="45.7033436" lon="8.1789105"><ele>897.0</ele><time>2026-04-12T09:20:45.763Z</time></trkpt><trkpt lat="45.7034158" lon="8.1789946"><ele>897.0</ele><time>2026-04-12T09:20:46.763Z</time></trkpt><trkpt lat="45.7034745" lon="8.1790942"><ele>897.0</ele><time>2026-04-12T09:20:47.763Z</time></trkpt><trkpt lat="45.7035019" lon="8.1792151"><ele>897.0</ele><time>2026-04-12T09:20:48.763Z</time></trkpt><trkpt lat="45.7035057" lon="8.1793502"><ele>897.0</ele><time>2026-04-12T09:20:49.763Z</time></trkpt><trkpt lat="45.7035209" lon="8.1794815"><ele>897.8</ele><time>2026-04-12T09:20:50.762Z</time></trkpt><trkpt lat="45.703558" lon="8.1796052"><ele>898.6</ele><time>2026-04-12T09:20:51.762Z</time></trkpt><trkpt lat="45.7035999" lon="8.1797312"><ele>899.3999999999999</ele><time>2026-04-12T09:20:52.763Z</time></trkpt><trkpt lat="45.7036447" lon="8.1798572"><ele>900.1999999999999</ele><time>2026-04-12T09:20:53.763Z</time></trkpt><trkpt lat="45.7036851" lon="8.1799818"><ele>901.0</ele><time>2026-04-12T09:20:54.762Z</time></trkpt><trkpt lat="45.7037222" lon="8.1800978"><ele>900.9999999999999</ele><time>2026-04-12T09:20:55.763Z</time></trkpt><trkpt lat="45.7037523" lon="8.1802043"><ele>901.0</ele><time>2026-04-12T09:20:56.763Z</time></trkpt><trkpt lat="45.7037641" lon="8.1802992"><ele>901.0</ele><time>2026-04-12T09:20:57.763Z</time></trkpt><trkpt lat="45.7037447" lon="8.1803903"><ele>901.0</ele><time>2026-04-12T09:20:58.762Z</time></trkpt><trkpt lat="45.7036436" lon="8.1804848"><ele>900.9999999999999</ele><time>2026-04-12T09:21:00.763Z</time></trkpt><trkpt lat="45.7035708" lon="8.180469"><ele>901.0</ele><time>2026-04-12T09:21:01.762Z</time></trkpt><trkpt lat="45.7034939" lon="8.1804406"><ele>894.5999999999999</ele><time>2026-04-12T09:21:02.762Z</time></trkpt><trkpt lat="45.7034015" lon="8.1804047"><ele>888.1999999999999</ele><time>2026-04-12T09:21:03.763Z</time></trkpt><trkpt lat="45.7033148" lon="8.1803717"><ele>881.8000000000001</ele><time>2026-04-12T09:21:04.763Z</time></trkpt><trkpt lat="45.7032142" lon="8.1803485"><ele>875.4000000000001</ele><time>2026-04-12T09:21:05.763Z</time></trkpt><trkpt lat="45.7031108" lon="8.1803262"><ele>869.0</ele><time>2026-04-12T09:21:06.763Z</time></trkpt><trkpt lat="45.7030022" lon="8.1803103"><ele>869.0</ele><time>2026-04-12T09:21:07.763Z</time></trkpt><trkpt lat="45.7028904" lon="8.1802902"><ele>869.0</ele><time>2026-04-12T09:21:08.762Z</time></trkpt><trkpt lat="45.7027832" lon="8.1802575"><ele>869.0</ele><time>2026-04-12T09:21:09.763Z</time></trkpt><trkpt lat="45.702679" lon="8.1802"><ele>869.0</ele><time>2026-04-12T09:21:10.763Z</time></trkpt><trkpt lat="45.7025732" lon="8.1801193"><ele>864.75</ele><time>2026-04-12T09:21:11.762Z</time></trkpt><trkpt lat="45.7024742" lon="8.1800478"><ele>860.5</ele><time>2026-04-12T09:21:12.763Z</time></trkpt><trkpt lat="45.7023655" lon="8.179981"><ele>856.25</ele><time>2026-04-12T09:21:13.762Z</time></trkpt><trkpt lat="45.7022536" lon="8.1799166"><ele>852.0</ele><time>2026-04-12T09:21:14.763Z</time></trkpt><trkpt lat="45.7021441" lon="8.1798613"><ele>850.6</ele><time>2026-04-12T09:21:15.763Z</time></trkpt><trkpt lat="45.7020341" lon="8.1798114"><ele>849.2</ele><time>2026-04-12T09:21:16.762Z</time></trkpt><trkpt lat="45.7019374" lon="8.1797493"><ele>847.8</ele><time>2026-04-12T09:21:17.763Z</time></trkpt><trkpt lat="45.7018516" lon="8.1796959"><ele>846.4</ele><time>2026-04-12T09:21:18.763Z</time></trkpt><trkpt lat="45.7017808" lon="8.179653"><ele>845.0</ele><time>2026-04-12T09:21:19.763Z</time></trkpt><trkpt lat="45.7016542" lon="8.1796125"><ele>843.6</ele><time>2026-04-12T09:21:21.763Z</time></trkpt><trkpt lat="45.7015982" lon="8.1797231"><ele>842.2</ele><time>2026-04-12T09:21:23.762Z</time></trkpt><trkpt lat="45.7016853" lon="8.1798629"><ele>840.8</ele><time>2026-04-12T09:21:25.763Z</time></trkpt><trkpt lat="45.7017483" lon="8.1799375"><ele>839.4</ele><time>2026-04-12T09:21:26.763Z</time></trkpt><trkpt lat="45.7018005" lon="8.1800399"><ele>838.0</ele><time>2026-04-12T09:21:27.763Z</time></trkpt><trkpt lat="45.7018429" lon="8.1801497"><ele>837.9999999999999</ele><time>2026-04-12T09:21:28.763Z</time></trkpt><trkpt lat="45.701882" lon="8.1802687"><ele>838.0</ele><time>2026-04-12T09:21:29.763Z</time></trkpt><trkpt lat="45.7019198" lon="8.180386"><ele>838.0</ele><time>2026-04-12T09:21:30.763Z</time></trkpt><trkpt lat="45.7019549" lon="8.1804956"><ele>838.0</ele><time>2026-04-12T09:21:31.763Z</time></trkpt><trkpt lat="45.7019784" lon="8.1806012"><ele>837.9999999999999</ele><time>2026-04-12T09:21:32.762Z</time></trkpt><trkpt lat="45.7019893" lon="8.1807035"><ele>838.0</ele><time>2026-04-12T09:21:33.763Z</time></trkpt><trkpt lat="45.7019719" lon="8.1807925"><ele>837.3333333333333</ele><time>2026-04-12T09:21:34.763Z</time></trkpt><trkpt lat="45.7019225" lon="8.1808552"><ele>836.6666666666666</ele><time>2026-04-12T09:21:35.763Z</time></trkpt><trkpt lat="45.7018609" lon="8.1808819"><ele>836.0</ele><time>2026-04-12T09:21:36.762Z</time></trkpt><trkpt lat="45.7017902" lon="8.1808879"><ele>835.3333333333333</ele><time>2026-04-12T09:21:37.762Z</time></trkpt><trkpt lat="45.7017126" lon="8.1809128"><ele>834.6666666666666</ele><time>2026-04-12T09:21:38.763Z</time></trkpt><trkpt lat="45.7016349" lon="8.1809785"><ele>834.0</ele><time>2026-04-12T09:21:39.763Z</time></trkpt><trkpt lat="45.7015594" lon="8.1810536"><ele>834.0</ele><time>2026-04-12T09:21:40.763Z</time></trkpt><trkpt lat="45.7014856" lon="8.1811671"><ele>834.0</ele><time>2026-04-12T09:21:41.763Z</time></trkpt><trkpt lat="45.7014098" lon="8.1812696"><ele>834.0</ele><time>2026-04-12T09:21:42.761Z</time></trkpt><trkpt lat="45.7013347" lon="8.1813783"><ele>834.0</ele><time>2026-04-12T09:21:43.762Z</time></trkpt><trkpt lat="45.7012626" lon="8.1814824"><ele>834.0</ele><time>2026-04-12T09:21:44.763Z</time></trkpt><trkpt lat="45.7011803" lon="8.1815914"><ele>834.8333333333334</ele><time>2026-04-12T09:21:45.762Z</time></trkpt><trkpt lat="45.7011125" lon="8.1816974"><ele>835.6666666666667</ele><time>2026-04-12T09:21:46.763Z</time></trkpt><trkpt lat="45.7010598" lon="8.1818014"><ele>836.5</ele><time>2026-04-12T09:21:47.761Z</time></trkpt><trkpt lat="45.7010365" lon="8.1819223"><ele>837.3333333333334</ele><time>2026-04-12T09:21:48.762Z</time></trkpt><trkpt lat="45.7010509" lon="8.1820383"><ele>838.1666666666667</ele><time>2026-04-12T09:21:49.763Z</time></trkpt><trkpt lat="45.7011045" lon="8.1821386"><ele>839.0</ele><time>2026-04-12T09:21:50.762Z</time></trkpt><trkpt lat="45.7011753" lon="8.1822058"><ele>839.0000000000001</ele><time>2026-04-12T09:21:51.762Z</time></trkpt><trkpt lat="45.7012361" lon="8.1822827"><ele>839.0</ele><time>2026-04-12T09:21:52.763Z</time></trkpt><trkpt lat="45.7012781" lon="8.1823715"><ele>839.0</ele><time>2026-04-12T09:21:53.763Z</time></trkpt><trkpt lat="45.7012921" lon="8.1824748"><ele>839.0</ele><time>2026-04-12T09:21:54.763Z</time></trkpt><trkpt lat="45.7012708" lon="8.1825728"><ele>839.0000000000001</ele><time>2026-04-12T09:21:55.763Z</time></trkpt><trkpt lat="45.7012269" lon="8.1826616"><ele>839.0</ele><time>2026-04-12T09:21:56.763Z</time></trkpt><trkpt lat="45.7011771" lon="8.182742"><ele>838.7142857142857</ele><time>2026-04-12T09:21:57.763Z</time></trkpt><trkpt lat="45.7011285" lon="8.1828152"><ele>838.4285714285714</ele><time>2026-04-12T09:21:58.763Z</time></trkpt><trkpt lat="45.7010876" lon="8.1828914"><ele>838.1428571428571</ele><time>2026-04-12T09:21:59.763Z</time></trkpt><trkpt lat="45.7010507" lon="8.1829722"><ele>837.8571428571429</ele><time>2026-04-12T09:22:00.763Z</time></trkpt><trkpt lat="45.7010191" lon="8.1830545"><ele>837.5714285714287</ele><time>2026-04-12T09:22:01.763Z</time></trkpt><trkpt lat="45.7009952" lon="8.1831447"><ele>837.2857142857143</ele><time>2026-04-12T09:22:02.763Z</time></trkpt><trkpt lat="45.7009878" lon="8.183235"><ele>837.0</ele><time>2026-04-12T09:22:03.763Z</time></trkpt><trkpt lat="45.701003" lon="8.1834047"><ele>837.5</ele><time>2026-04-12T09:22:05.763Z</time></trkpt><trkpt lat="45.7010603" lon="8.1835313"><ele>838.0</ele><time>2026-04-12T09:22:07.763Z</time></trkpt><trkpt lat="45.701124" lon="8.1835271"><ele>838.5</ele><time>2026-04-12T09:22:08.762Z</time></trkpt><trkpt lat="45.7011676" lon="8.1836239"><ele>839.0</ele><time>2026-04-12T09:22:10.762Z</time></trkpt><trkpt lat="45.7010756" lon="8.183709"><ele>839.5</ele><time>2026-04-12T09:22:12.763Z</time></trkpt><trkpt lat="45.7010086" lon="8.1837211"><ele>840.0</ele><time>2026-04-12T09:22:13.762Z</time></trkpt><trkpt lat="45.7009319" lon="8.1837433"><ele>834.0</ele><time>2026-04-12T09:22:14.763Z</time></trkpt><trkpt lat="45.7008562" lon="8.183773"><ele>828.0</ele><time>2026-04-12T09:22:15.763Z</time></trkpt><trkpt lat="45.7007685" lon="8.1838158"><ele>822.0</ele><time>2026-04-12T09:22:16.763Z</time></trkpt><trkpt lat="45.7006843" lon="8.1838551"><ele>816.0</ele><time>2026-04-12T09:22:17.763Z</time></trkpt><trkpt lat="45.7006176" lon="8.1838938"><ele>810.0</ele><time>2026-04-12T09:22:18.763Z</time></trkpt><trkpt lat="45.7005516" lon="8.1839113"><ele>804.0</ele><time>2026-04-12T09:22:19.763Z</time></trkpt><trkpt lat="45.7004607" lon="8.1838745"><ele>804.0</ele><time>2026-04-12T09:22:21.763Z</time></trkpt><trkpt lat="45.7004185" lon="8.18376"><ele>804.0</ele><time>2026-04-12T09:22:23.763Z</time></trkpt><trkpt lat="45.7004157" lon="8.1836048"><ele>804.0</ele><time>2026-04-12T09:22:25.763Z</time></trkpt><trkpt lat="45.7004521" lon="8.1834279"><ele>804.0</ele><time>2026-04-12T09:22:27.763Z</time></trkpt><trkpt lat="45.7004789" lon="8.1833191"><ele>804.0</ele><time>2026-04-12T09:22:28.763Z</time></trkpt><trkpt lat="45.7005054" lon="8.1832152"><ele>803.5</ele><time>2026-04-12T09:22:29.763Z</time></trkpt><trkpt lat="45.700535" lon="8.1831076"><ele>803.0</ele><time>2026-04-12T09:22:30.763Z</time></trkpt><trkpt lat="45.7005682" lon="8.1829941"><ele>802.5</ele><time>2026-04-12T09:22:31.763Z</time></trkpt><trkpt lat="45.7006018" lon="8.1828753"><ele>802.0</ele><time>2026-04-12T09:22:32.763Z</time></trkpt><trkpt lat="45.7006374" lon="8.1827555"><ele>801.5</ele><time>2026-04-12T09:22:33.762Z</time></trkpt><trkpt lat="45.7006703" lon="8.1826349"><ele>801.0</ele><time>2026-04-12T09:22:34.763Z</time></trkpt><trkpt lat="45.7006804" lon="8.1825162"><ele>801.0</ele><time>2026-04-12T09:22:35.763Z</time></trkpt><trkpt lat="45.7006521" lon="8.1823963"><ele>801.0</ele><time>2026-04-12T09:22:36.763Z</time></trkpt><trkpt lat="45.700613" lon="8.1822889"><ele>801.0</ele><time>2026-04-12T09:22:37.762Z</time></trkpt><trkpt lat="45.7005853" lon="8.1821759"><ele>801.0</ele><time>2026-04-12T09:22:38.762Z</time></trkpt><trkpt lat="45.70058" lon="8.1820561"><ele>801.0</ele><time>2026-04-12T09:22:39.763Z</time></trkpt><trkpt lat="45.7005767" lon="8.1819528"><ele>801.0</ele><time>2026-04-12T09:22:40.763Z</time></trkpt><trkpt lat="45.7005604" lon="8.1818626"><ele>802.0</ele><time>2026-04-12T09:22:41.763Z</time></trkpt><trkpt lat="45.7004554" lon="8.1817837"><ele>803.0</ele><time>2026-04-12T09:22:43.763Z</time></trkpt><trkpt lat="45.700393" lon="8.1818129"><ele>804.0</ele><time>2026-04-12T09:22:44.764Z</time></trkpt><trkpt lat="45.7003337" lon="8.1818655"><ele>805.0</ele><time>2026-04-12T09:22:45.763Z</time></trkpt><trkpt lat="45.7002722" lon="8.1819365"><ele>806.0</ele><time>2026-04-12T09:22:46.763Z</time></trkpt><trkpt lat="45.7002073" lon="8.181993"><ele>807.0</ele><time>2026-04-12T09:22:47.761Z</time></trkpt><trkpt lat="45.7001339" lon="8.182041"><ele>803.6666666666666</ele><time>2026-04-12T09:22:48.763Z</time></trkpt><trkpt lat="45.7000521" lon="8.1820634"><ele>800.3333333333333</ele><time>2026-04-12T09:22:49.763Z</time></trkpt><trkpt lat="45.6999675" lon="8.1820696"><ele>797.0</ele><time>2026-04-12T09:22:50.763Z</time></trkpt><trkpt lat="45.6998799" lon="8.1820667"><ele>793.6666666666666</ele><time>2026-04-12T09:22:51.763Z</time></trkpt><trkpt lat="45.6997901" lon="8.182057"><ele>790.3333333333333</ele><time>2026-04-12T09:22:52.763Z</time></trkpt><trkpt lat="45.6997003" lon="8.1820631"><ele>787.0</ele><time>2026-04-12T09:22:53.762Z</time></trkpt><trkpt lat="45.6995976" lon="8.1820699"><ele>786.9999999999999</ele><time>2026-04-12T09:22:54.764Z</time></trkpt><trkpt lat="45.6995025" lon="8.182092"><ele>787.0</ele><time>2026-04-12T09:22:55.763Z</time></trkpt><trkpt lat="45.6994231" lon="8.182134"><ele>787.0</ele><time>2026-04-12T09:22:56.763Z</time></trkpt><trkpt lat="45.6993439" lon="8.1821376"><ele>787.0</ele><time>2026-04-12T09:22:57.763Z</time></trkpt><trkpt lat="45.6992756" lon="8.1820983"><ele>786.9999999999999</ele><time>2026-04-12T09:22:58.763Z</time></trkpt><trkpt lat="45.6992196" lon="8.1820292"><ele>787.0</ele><time>2026-04-12T09:22:59.763Z</time></trkpt><trkpt lat="45.699172" lon="8.1819485"><ele>784.6</ele><time>2026-04-12T09:23:00.763Z</time></trkpt><trkpt lat="45.6991142" lon="8.1818712"><ele>782.2</ele><time>2026-04-12T09:23:01.763Z</time></trkpt><trkpt lat="45.6990656" lon="8.1817689"><ele>779.8</ele><time>2026-04-12T09:23:02.763Z</time></trkpt><trkpt lat="45.6990342" lon="8.1816485"><ele>777.4</ele><time>2026-04-12T09:23:03.763Z</time></trkpt><trkpt lat="45.6989852" lon="8.1815285"><ele>775.0</ele><time>2026-04-12T09:23:04.762Z</time></trkpt><trkpt lat="45.6989222" lon="8.1814149"><ele>775.0</ele><time>2026-04-12T09:23:05.763Z</time></trkpt><trkpt lat="45.6988469" lon="8.1813274"><ele>775.0</ele><time>2026-04-12T09:23:06.763Z</time></trkpt><trkpt lat="45.6987608" lon="8.181249"><ele>775.0</ele><time>2026-04-12T09:23:07.763Z</time></trkpt><trkpt lat="45.6986903" lon="8.1811718"><ele>775.0</ele><time>2026-04-12T09:23:08.763Z</time></trkpt><trkpt lat="45.6986266" lon="8.181073"><ele>775.0</ele><time>2026-04-12T09:23:09.763Z</time></trkpt><trkpt lat="45.6985748" lon="8.1809662"><ele>770.6</ele><time>2026-04-12T09:23:10.763Z</time></trkpt><trkpt lat="45.6985299" lon="8.1808501"><ele>766.2</ele><time>2026-04-12T09:23:11.763Z</time></trkpt><trkpt lat="45.6984819" lon="8.1807291"><ele>761.8</ele><time>2026-04-12T09:23:12.763Z</time></trkpt><trkpt lat="45.6984477" lon="8.1806048"><ele>757.4</ele><time>2026-04-12T09:23:13.763Z</time></trkpt><trkpt lat="45.6984259" lon="8.1804643"><ele>753.0</ele><time>2026-04-12T09:23:14.763Z</time></trkpt><trkpt lat="45.6984144" lon="8.1803147"><ele>753.0</ele><time>2026-04-12T09:23:15.763Z</time></trkpt><trkpt lat="45.6984126" lon="8.1801591"><ele>753.0</ele><time>2026-04-12T09:23:16.764Z</time></trkpt><trkpt lat="45.6984109" lon="8.179998"><ele>753.0</ele><time>2026-04-12T09:23:17.763Z</time></trkpt><trkpt lat="45.6984093" lon="8.1798367"><ele>753.0</ele><time>2026-04-12T09:23:18.764Z</time></trkpt><trkpt lat="45.6984069" lon="8.1796758"><ele>753.0</ele><time>2026-04-12T09:23:19.762Z</time></trkpt><trkpt lat="45.6984072" lon="8.1795095"><ele>752.75</ele><time>2026-04-12T09:23:20.763Z</time></trkpt><trkpt lat="45.6984089" lon="8.1793463"><ele>752.5</ele><time>2026-04-12T09:23:21.762Z</time></trkpt><trkpt lat="45.6984059" lon="8.1791857"><ele>752.25</ele><time>2026-04-12T09:23:22.763Z</time></trkpt><trkpt lat="45.6984015" lon="8.1790235"><ele>752.0</ele><time>2026-04-12T09:23:23.763Z</time></trkpt><trkpt lat="45.6983953" lon="8.1788603"><ele>749.4000000000001</ele><time>2026-04-12T09:23:24.763Z</time></trkpt><trkpt lat="45.6983883" lon="8.1787057"><ele>746.8000000000001</ele><time>2026-04-12T09:23:25.763Z</time></trkpt><trkpt lat="45.6983861" lon="8.1785551"><ele>744.2</ele><time>2026-04-12T09:23:26.763Z</time></trkpt><trkpt lat="45.6984014" lon="8.1784066"><ele>741.6</ele><time>2026-04-12T09:23:27.763Z</time></trkpt><trkpt lat="45.698444" lon="8.1782769"><ele>739.0</ele><time>2026-04-12T09:23:28.762Z</time></trkpt><trkpt lat="45.6984966" lon="8.1781611"><ele>738.0</ele><time>2026-04-12T09:23:29.763Z</time></trkpt><trkpt lat="45.6985648" lon="8.1780679"><ele>737.0</ele><time>2026-04-12T09:23:30.762Z</time></trkpt><trkpt lat="45.6986449" lon="8.1780115"><ele>736.0</ele><time>2026-04-12T09:23:31.762Z</time></trkpt><trkpt lat="45.6987292" lon="8.1779773"><ele>735.0</ele><time>2026-04-12T09:23:32.763Z</time></trkpt><trkpt lat="45.6988169" lon="8.1779736"><ele>734.0</ele><time>2026-04-12T09:23:33.763Z</time></trkpt><trkpt lat="45.6988981" lon="8.1779998"><ele>733.0</ele><time>2026-04-12T09:23:34.764Z</time></trkpt><trkpt lat="45.6989798" lon="8.1780254"><ele>733.0</ele><time>2026-04-12T09:23:35.763Z</time></trkpt><trkpt lat="45.6990605" lon="8.1780388"><ele>733.0</ele><time>2026-04-12T09:23:36.763Z</time></trkpt><trkpt lat="45.6991371" lon="8.1780377"><ele>733.0</ele><time>2026-04-12T09:23:37.763Z</time></trkpt><trkpt lat="45.6992105" lon="8.1780168"><ele>733.0</ele><time>2026-04-12T09:23:38.763Z</time></trkpt><trkpt lat="45.6992726" lon="8.1779777"><ele>733.0</ele><time>2026-04-12T09:23:39.763Z</time></trkpt><trkpt lat="45.6993106" lon="8.1779049"><ele>733.0</ele><time>2026-04-12T09:23:40.763Z</time></trkpt><trkpt lat="45.6992721" lon="8.177765"><ele>733.0</ele><time>2026-04-12T09:23:42.764Z</time></trkpt><trkpt lat="45.6991634" lon="8.1777704"><ele>733.0</ele><time>2026-04-12T09:23:44.763Z</time></trkpt><trkpt lat="45.6990996" lon="8.1778107"><ele>733.0</ele><time>2026-04-12T09:23:45.763Z</time></trkpt><trkpt lat="45.6990309" lon="8.1778513"><ele>733.0</ele><time>2026-04-12T09:23:46.763Z</time></trkpt><trkpt lat="45.6989477" lon="8.1778502"><ele>733.0</ele><time>2026-04-12T09:23:47.763Z</time></trkpt><trkpt lat="45.6988541" lon="8.1778248"><ele>733.0</ele><time>2026-04-12T09:23:48.763Z</time></trkpt><trkpt lat="45.6987562" lon="8.177798"><ele>733.0</ele><time>2026-04-12T09:23:49.763Z</time></trkpt><trkpt lat="45.6986582" lon="8.1777824"><ele>733.0</ele><time>2026-04-12T09:23:50.763Z</time></trkpt><trkpt lat="45.6985639" lon="8.1777961"><ele>733.0</ele><time>2026-04-12T09:23:51.763Z</time></trkpt><trkpt lat="45.6984708" lon="8.1778243"><ele>733.0</ele><time>2026-04-12T09:23:52.763Z</time></trkpt><trkpt lat="45.6983757" lon="8.1778704"><ele>733.0</ele><time>2026-04-12T09:23:53.764Z</time></trkpt><trkpt lat="45.698284" lon="8.1779173"><ele>734.2</ele><time>2026-04-12T09:23:54.764Z</time></trkpt><trkpt lat="45.6981965" lon="8.177985"><ele>735.4</ele><time>2026-04-12T09:23:55.763Z</time></trkpt><trkpt lat="45.6981215" lon="8.1780826"><ele>736.6</ele><time>2026-04-12T09:23:56.763Z</time></trkpt><trkpt lat="45.6980516" lon="8.1781972"><ele>737.8000000000001</ele><time>2026-04-12T09:23:57.763Z</time></trkpt><trkpt lat="45.697988" lon="8.17832"><ele>739.0</ele><time>2026-04-12T09:23:58.763Z</time></trkpt><trkpt lat="45.6979201" lon="8.1784422"><ele>739.0</ele><time>2026-04-12T09:23:59.763Z</time></trkpt><trkpt lat="45.6978584" lon="8.1785697"><ele>739.0</ele><time>2026-04-12T09:24:00.763Z</time></trkpt><trkpt lat="45.6978018" lon="8.178698"><ele>739.0</ele><time>2026-04-12T09:24:01.764Z</time></trkpt><trkpt lat="45.6977494" lon="8.1788258"><ele>739.0</ele><time>2026-04-12T09:24:02.763Z</time></trkpt><trkpt lat="45.6976998" lon="8.178949"><ele>739.0</ele><time>2026-04-12T09:24:03.763Z</time></trkpt><trkpt lat="45.6976478" lon="8.1790721"><ele>735.2</ele><time>2026-04-12T09:24:04.764Z</time></trkpt><trkpt lat="45.6976081" lon="8.1791958"><ele>731.4000000000001</ele><time>2026-04-12T09:24:05.763Z</time></trkpt><trkpt lat="45.6975766" lon="8.1793199"><ele>727.6</ele><time>2026-04-12T09:24:06.762Z</time></trkpt><trkpt lat="45.6975642" lon="8.1794443"><ele>723.8</ele><time>2026-04-12T09:24:07.763Z</time></trkpt><trkpt lat="45.697592" lon="8.1795779"><ele>720.0</ele><time>2026-04-12T09:24:08.763Z</time></trkpt><trkpt lat="45.6976208" lon="8.1797119"><ele>720.0</ele><time>2026-04-12T09:24:09.763Z</time></trkpt><trkpt lat="45.6976502" lon="8.1798465"><ele>720.0</ele><time>2026-04-12T09:24:10.763Z</time></trkpt><trkpt lat="45.697662" lon="8.1799785"><ele>720.0</ele><time>2026-04-12T09:24:11.763Z</time></trkpt><trkpt lat="45.697666" lon="8.1801022"><ele>720.0</ele><time>2026-04-12T09:24:12.763Z</time></trkpt><trkpt lat="45.6976635" lon="8.180223"><ele>720.0</ele><time>2026-04-12T09:24:13.763Z</time></trkpt><trkpt lat="45.6976272" lon="8.1803346"><ele>720.0</ele><time>2026-04-12T09:24:14.763Z</time></trkpt><trkpt lat="45.6975872" lon="8.1804451"><ele>720.3333333333334</ele><time>2026-04-12T09:24:15.763Z</time></trkpt><trkpt lat="45.6975488" lon="8.1805551"><ele>720.6666666666666</ele><time>2026-04-12T09:24:16.762Z</time></trkpt><trkpt lat="45.6975083" lon="8.1806678"><ele>721.0</ele><time>2026-04-12T09:24:17.764Z</time></trkpt><trkpt lat="45.697476" lon="8.1807868"><ele>721.3333333333333</ele><time>2026-04-12T09:24:18.762Z</time></trkpt><trkpt lat="45.6974497" lon="8.1809101"><ele>721.6666666666666</ele><time>2026-04-12T09:24:19.763Z</time></trkpt><trkpt lat="45.697439" lon="8.1810268"><ele>722.0</ele><time>2026-04-12T09:24:20.762Z</time></trkpt><trkpt lat="45.6974557" lon="8.1811513"><ele>722.4000000000001</ele><time>2026-04-12T09:24:21.762Z</time></trkpt><trkpt lat="45.6974739" lon="8.1812645"><ele>722.8000000000001</ele><time>2026-04-12T09:24:22.763Z</time></trkpt><trkpt lat="45.6974945" lon="8.1813925"><ele>723.2</ele><time>2026-04-12T09:24:23.763Z</time></trkpt><trkpt lat="45.6975053" lon="8.1815207"><ele>723.6</ele><time>2026-04-12T09:24:24.763Z</time></trkpt><trkpt lat="45.6975065" lon="8.1816566"><ele>724.0</ele><time>2026-04-12T09:24:25.763Z</time></trkpt><trkpt lat="45.6975037" lon="8.1817895"><ele>724.0</ele><time>2026-04-12T09:24:26.762Z</time></trkpt><trkpt lat="45.6975033" lon="8.1819155"><ele>724.0</ele><time>2026-04-12T09:24:27.763Z</time></trkpt><trkpt lat="45.6975165" lon="8.1820421"><ele>724.0</ele><time>2026-04-12T09:24:28.761Z</time></trkpt><trkpt lat="45.6975505" lon="8.1821504"><ele>724.0</ele><time>2026-04-12T09:24:29.764Z</time></trkpt><trkpt lat="45.6975868" lon="8.1822538"><ele>724.0</ele><time>2026-04-12T09:24:30.762Z</time></trkpt><trkpt lat="45.6976164" lon="8.1823415"><ele>724.0</ele><time>2026-04-12T09:24:31.762Z</time></trkpt><trkpt lat="45.6976055" lon="8.1824835"><ele>724.0</ele><time>2026-04-12T09:24:33.764Z</time></trkpt><trkpt lat="45.6975078" lon="8.1824754"><ele>724.0</ele><time>2026-04-12T09:24:35.763Z</time></trkpt><trkpt lat="45.6974703" lon="8.182398"><ele>724.0</ele><time>2026-04-12T09:24:36.764Z</time></trkpt><trkpt lat="45.6974382" lon="8.1822897"><ele>724.0</ele><time>2026-04-12T09:24:37.763Z</time></trkpt><trkpt lat="45.697398" lon="8.1821623"><ele>724.0</ele><time>2026-04-12T09:24:38.764Z</time></trkpt><trkpt lat="45.6973507" lon="8.1820288"><ele>724.0</ele><time>2026-04-12T09:24:39.764Z</time></trkpt><trkpt lat="45.6972879" lon="8.1818905"><ele>724.0</ele><time>2026-04-12T09:24:40.763Z</time></trkpt><trkpt lat="45.6972267" lon="8.1817565"><ele>724.0</ele><time>2026-04-12T09:24:41.764Z</time></trkpt><trkpt lat="45.6971665" lon="8.1816228"><ele>724.0</ele><time>2026-04-12T09:24:42.763Z</time></trkpt><trkpt lat="45.6971056" lon="8.1814861"><ele>724.0</ele><time>2026-04-12T09:24:43.762Z</time></trkpt><trkpt lat="45.6970544" lon="8.1813485"><ele>724.0</ele><time>2026-04-12T09:24:44.763Z</time></trkpt><trkpt lat="45.697014" lon="8.1811941"><ele>724.5</ele><time>2026-04-12T09:24:45.763Z</time></trkpt><trkpt lat="45.6969867" lon="8.1810363"><ele>725.0</ele><time>2026-04-12T09:24:46.764Z</time></trkpt><trkpt lat="45.696958" lon="8.1808732"><ele>725.5</ele><time>2026-04-12T09:24:47.764Z</time></trkpt><trkpt lat="45.6969296" lon="8.1807076"><ele>726.0</ele><time>2026-04-12T09:24:48.764Z</time></trkpt><trkpt lat="45.6969028" lon="8.1805429"><ele>721.0</ele><time>2026-04-12T09:24:49.763Z</time></trkpt><trkpt lat="45.6968848" lon="8.1803871"><ele>716.0</ele><time>2026-04-12T09:24:50.763Z</time></trkpt><trkpt lat="45.6968714" lon="8.1802327"><ele>711.0</ele><time>2026-04-12T09:24:51.763Z</time></trkpt><trkpt lat="45.6968702" lon="8.1800712"><ele>706.0</ele><time>2026-04-12T09:24:52.763Z</time></trkpt><trkpt lat="45.6968848" lon="8.1799156"><ele>701.0</ele><time>2026-04-12T09:24:53.763Z</time></trkpt><trkpt lat="45.6969019" lon="8.1797577"><ele>699.4</ele><time>2026-04-12T09:24:54.764Z</time></trkpt><trkpt lat="45.6969105" lon="8.1795968"><ele>697.8</ele><time>2026-04-12T09:24:55.762Z</time></trkpt><trkpt lat="45.6969292" lon="8.1794529"><ele>696.1999999999999</ele><time>2026-04-12T09:24:56.763Z</time></trkpt><trkpt lat="45.6969565" lon="8.1793158"><ele>694.5999999999999</ele><time>2026-04-12T09:24:57.763Z</time></trkpt><trkpt lat="45.6970314" lon="8.1792298"><ele>693.0</ele><time>2026-04-12T09:24:58.763Z</time></trkpt><trkpt lat="45.6971084" lon="8.1791562"><ele>696.8</ele><time>2026-04-12T09:24:59.764Z</time></trkpt><trkpt lat="45.6971766" lon="8.1790577"><ele>700.5999999999999</ele><time>2026-04-12T09:25:00.762Z</time></trkpt><trkpt lat="45.6972311" lon="8.1789377"><ele>704.4000000000001</ele><time>2026-04-12T09:25:01.764Z</time></trkpt><trkpt lat="45.6972711" lon="8.1788051"><ele>708.2</ele><time>2026-04-12T09:25:02.763Z</time></trkpt><trkpt lat="45.697312" lon="8.1786738"><ele>712.0</ele><time>2026-04-12T09:25:03.763Z</time></trkpt><trkpt lat="45.6973485" lon="8.178544"><ele>712.0</ele><time>2026-04-12T09:25:04.763Z</time></trkpt><trkpt lat="45.697383" lon="8.1784259"><ele>712.0</ele><time>2026-04-12T09:25:05.764Z</time></trkpt><trkpt lat="45.6974068" lon="8.1783283"><ele>712.0</ele><time>2026-04-12T09:25:06.764Z</time></trkpt><trkpt lat="45.6973609" lon="8.1781862"><ele>712.0</ele><time>2026-04-12T09:25:08.764Z</time></trkpt><trkpt lat="45.6972576" lon="8.1782442"><ele>712.0</ele><time>2026-04-12T09:25:10.764Z</time></trkpt><trkpt lat="45.697233" lon="8.1783303"><ele>712.0</ele><time>2026-04-12T09:25:11.763Z</time></trkpt><trkpt lat="45.6972238" lon="8.1784305"><ele>712.0</ele><time>2026-04-12T09:25:12.763Z</time></trkpt><trkpt lat="45.6972117" lon="8.1785395"><ele>712.0</ele><time>2026-04-12T09:25:13.762Z</time></trkpt><trkpt lat="45.6971908" lon="8.1786579"><ele>712.0</ele><time>2026-04-12T09:25:14.763Z</time></trkpt><trkpt lat="45.6971508" lon="8.1787601"><ele>712.0</ele><time>2026-04-12T09:25:15.764Z</time></trkpt><trkpt lat="45.6970879" lon="8.1788443"><ele>712.0</ele><time>2026-04-12T09:25:16.763Z</time></trkpt><trkpt lat="45.6970102" lon="8.1789054"><ele>712.0</ele><time>2026-04-12T09:25:17.762Z</time></trkpt><trkpt lat="45.6969239" lon="8.1789558"><ele>708.2</ele><time>2026-04-12T09:25:18.762Z</time></trkpt><trkpt lat="45.6968362" lon="8.1790166"><ele>704.4000000000001</ele><time>2026-04-12T09:25:19.763Z</time></trkpt><trkpt lat="45.6967453" lon="8.1790769"><ele>700.5999999999999</ele><time>2026-04-12T09:25:20.763Z</time></trkpt><trkpt lat="45.6966559" lon="8.1791407"><ele>696.8</ele><time>2026-04-12T09:25:21.764Z</time></trkpt><trkpt lat="45.6965673" lon="8.1791974"><ele>693.0</ele><time>2026-04-12T09:25:22.764Z</time></trkpt><trkpt lat="45.6964803" lon="8.1792516"><ele>693.0</ele><time>2026-04-12T09:25:23.764Z</time></trkpt><trkpt lat="45.6964116" lon="8.1793135"><ele>693.0</ele><time>2026-04-12T09:25:24.764Z</time></trkpt><trkpt lat="45.6963594" lon="8.1793984"><ele>693.0</ele><time>2026-04-12T09:25:25.764Z</time></trkpt><trkpt lat="45.6963178" lon="8.179486"><ele>693.0</ele><time>2026-04-12T09:25:26.763Z</time></trkpt><trkpt lat="45.696274" lon="8.179566"><ele>693.0</ele><time>2026-04-12T09:25:27.763Z</time></trkpt><trkpt lat="45.6962163" lon="8.1796232"><ele>693.0</ele><time>2026-04-12T09:25:28.763Z</time></trkpt><trkpt lat="45.6961443" lon="8.1796468"><ele>693.0</ele><time>2026-04-12T09:25:29.763Z</time></trkpt><trkpt lat="45.6960647" lon="8.1796411"><ele>691.8</ele><time>2026-04-12T09:25:30.764Z</time></trkpt><trkpt lat="45.695986" lon="8.1796253"><ele>690.5999999999999</ele><time>2026-04-12T09:25:31.764Z</time></trkpt><trkpt lat="45.6959288" lon="8.1795188"><ele>689.4000000000001</ele><time>2026-04-12T09:25:32.764Z</time></trkpt><trkpt lat="45.6958794" lon="8.1794059"><ele>688.2</ele><time>2026-04-12T09:25:33.763Z</time></trkpt><trkpt lat="45.6958365" lon="8.1792781"><ele>687.0</ele><time>2026-04-12T09:25:34.763Z</time></trkpt><trkpt lat="45.6957956" lon="8.1791339"><ele>683.5</ele><time>2026-04-12T09:25:35.764Z</time></trkpt><trkpt lat="45.6957561" lon="8.1789824"><ele>680.0</ele><time>2026-04-12T09:25:36.763Z</time></trkpt><trkpt lat="45.6957183" lon="8.1788269"><ele>676.5</ele><time>2026-04-12T09:25:37.763Z</time></trkpt><trkpt lat="45.6956779" lon="8.1786729"><ele>673.0</ele><time>2026-04-12T09:25:38.763Z</time></trkpt><trkpt lat="45.695633" lon="8.1785299"><ele>673.0</ele><time>2026-04-12T09:25:39.764Z</time></trkpt><trkpt lat="45.6955712" lon="8.1783856"><ele>673.0</ele><time>2026-04-12T09:25:40.764Z</time></trkpt><trkpt lat="45.6955098" lon="8.1782579"><ele>673.0</ele><time>2026-04-12T09:25:41.763Z</time></trkpt><trkpt lat="45.6954056" lon="8.1781936"><ele>673.0</ele><time>2026-04-12T09:25:42.763Z</time></trkpt><trkpt lat="45.6953108" lon="8.1781262"><ele>673.0</ele><time>2026-04-12T09:25:43.764Z</time></trkpt><trkpt lat="45.6952113" lon="8.1780605"><ele>670.4</ele><time>2026-04-12T09:25:44.764Z</time></trkpt><trkpt lat="45.6951115" lon="8.1780034"><ele>667.8</ele><time>2026-04-12T09:25:45.763Z</time></trkpt><trkpt lat="45.6950213" lon="8.1779432"><ele>665.2</ele><time>2026-04-12T09:25:46.764Z</time></trkpt><trkpt lat="45.6949478" lon="8.1778706"><ele>662.6</ele><time>2026-04-12T09:25:47.763Z</time></trkpt><trkpt lat="45.6948996" lon="8.1777645"><ele>660.0</ele><time>2026-04-12T09:25:48.763Z</time></trkpt><trkpt lat="45.6948707" lon="8.1776505"><ele>660.0</ele><time>2026-04-12T09:25:49.764Z</time></trkpt><trkpt lat="45.6948226" lon="8.1775575"><ele>660.0</ele><time>2026-04-12T09:25:50.763Z</time></trkpt><trkpt lat="45.6947598" lon="8.1774933"><ele>660.0</ele><time>2026-04-12T09:25:51.764Z</time></trkpt><trkpt lat="45.694683" lon="8.1774978"><ele>660.0</ele><time>2026-04-12T09:25:52.763Z</time></trkpt><trkpt lat="45.6946145" lon="8.1775504"><ele>660.0</ele><time>2026-04-12T09:25:53.764Z</time></trkpt><trkpt lat="45.6945468" lon="8.1776277"><ele>660.0</ele><time>2026-04-12T09:25:54.764Z</time></trkpt><trkpt lat="45.6944697" lon="8.1777138"><ele>657.2</ele><time>2026-04-12T09:25:55.763Z</time></trkpt><trkpt lat="45.6943846" lon="8.1777953"><ele>654.4</ele><time>2026-04-12T09:25:56.763Z</time></trkpt><trkpt lat="45.6942897" lon="8.1778806"><ele>651.5999999999999</ele><time>2026-04-12T09:25:57.764Z</time></trkpt><trkpt lat="45.6941912" lon="8.1779639"><ele>648.8</ele><time>2026-04-12T09:25:58.763Z</time></trkpt><trkpt lat="45.6940936" lon="8.1780632"><ele>646.0</ele><time>2026-04-12T09:25:59.763Z</time></trkpt><trkpt lat="45.6939991" lon="8.1781615"><ele>645.0</ele><time>2026-04-12T09:26:00.763Z</time></trkpt><trkpt lat="45.6938983" lon="8.1782533"><ele>644.0</ele><time>2026-04-12T09:26:01.763Z</time></trkpt><trkpt lat="45.6937949" lon="8.1783285"><ele>643.0</ele><time>2026-04-12T09:26:02.764Z</time></trkpt><trkpt lat="45.6936827" lon="8.1783622"><ele>642.0</ele><time>2026-04-12T09:26:03.763Z</time></trkpt><trkpt lat="45.6935756" lon="8.1783811"><ele>642.0</ele><time>2026-04-12T09:26:04.763Z</time></trkpt><trkpt lat="45.6934723" lon="8.1784046"><ele>642.0</ele><time>2026-04-12T09:26:05.764Z</time></trkpt><trkpt lat="45.6933829" lon="8.178471"><ele>642.0</ele><time>2026-04-12T09:26:06.763Z</time></trkpt><trkpt lat="45.6933092" lon="8.1785715"><ele>642.0</ele><time>2026-04-12T09:26:07.763Z</time></trkpt><trkpt lat="45.693249" lon="8.1786895"><ele>642.0</ele><time>2026-04-12T09:26:08.764Z</time></trkpt><trkpt lat="45.6931828" lon="8.1788118"><ele>642.0</ele><time>2026-04-12T09:26:09.763Z</time></trkpt><trkpt lat="45.693124" lon="8.178941"><ele>642.0</ele><time>2026-04-12T09:26:10.763Z</time></trkpt><trkpt lat="45.6930555" lon="8.1790523"><ele>642.0</ele><time>2026-04-12T09:26:11.763Z</time></trkpt><trkpt lat="45.6929707" lon="8.1791348"><ele>642.0</ele><time>2026-04-12T09:26:12.764Z</time></trkpt><trkpt lat="45.6928729" lon="8.1791811"><ele>642.0</ele><time>2026-04-12T09:26:13.763Z</time></trkpt><trkpt lat="45.6927725" lon="8.1791896"><ele>640.0</ele><time>2026-04-12T09:26:14.763Z</time></trkpt><trkpt lat="45.692671" lon="8.1791723"><ele>638.0</ele><time>2026-04-12T09:26:15.762Z</time></trkpt><trkpt lat="45.6925745" lon="8.1791639"><ele>636.0</ele><time>2026-04-12T09:26:16.763Z</time></trkpt><trkpt lat="45.6924834" lon="8.1791472"><ele>634.0</ele><time>2026-04-12T09:26:17.763Z</time></trkpt><trkpt lat="45.6924086" lon="8.1791247"><ele>632.0</ele><time>2026-04-12T09:26:18.763Z</time></trkpt><trkpt lat="45.6923476" lon="8.1790945"><ele>630.0</ele><time>2026-04-12T09:26:19.762Z</time></trkpt><trkpt lat="45.6923358" lon="8.1789826"><ele>630.0</ele><time>2026-04-12T09:26:21.763Z</time></trkpt><trkpt lat="45.6924311" lon="8.1789905"><ele>630.0</ele><time>2026-04-12T09:26:23.763Z</time></trkpt><trkpt lat="45.692487" lon="8.1790447"><ele>630.0</ele><time>2026-04-12T09:26:24.764Z</time></trkpt><trkpt lat="45.6925533" lon="8.1790915"><ele>630.0</ele><time>2026-04-12T09:26:25.763Z</time></trkpt><trkpt lat="45.6926276" lon="8.1791143"><ele>630.0</ele><time>2026-04-12T09:26:26.763Z</time></trkpt><trkpt lat="45.6927101" lon="8.1791085"><ele>630.0</ele><time>2026-04-12T09:26:27.763Z</time></trkpt><trkpt lat="45.6927913" lon="8.1790842"><ele>632.0</ele><time>2026-04-12T09:26:28.763Z</time></trkpt><trkpt lat="45.6928669" lon="8.1790384"><ele>634.0</ele><time>2026-04-12T09:26:29.763Z</time></trkpt><trkpt lat="45.6929385" lon="8.178968"><ele>636.0</ele><time>2026-04-12T09:26:30.764Z</time></trkpt><trkpt lat="45.6929898" lon="8.1788677"><ele>638.0</ele><time>2026-04-12T09:26:31.764Z</time></trkpt><trkpt lat="45.6930224" lon="8.1787491"><ele>640.0</ele><time>2026-04-12T09:26:32.764Z</time></trkpt><trkpt lat="45.6930556" lon="8.1786229"><ele>642.0</ele><time>2026-04-12T09:26:33.764Z</time></trkpt><trkpt lat="45.6930895" lon="8.178494"><ele>642.0</ele><time>2026-04-12T09:26:34.763Z</time></trkpt><trkpt lat="45.6931342" lon="8.1783696"><ele>642.0</ele><time>2026-04-12T09:26:35.763Z</time></trkpt><trkpt lat="45.6931849" lon="8.1782506"><ele>642.0</ele><time>2026-04-12T09:26:36.763Z</time></trkpt><trkpt lat="45.6932533" lon="8.1781551"><ele>642.0</ele><time>2026-04-12T09:26:37.764Z</time></trkpt><trkpt lat="45.6933371" lon="8.178091"><ele>642.0</ele><time>2026-04-12T09:26:38.764Z</time></trkpt><trkpt lat="45.6934299" lon="8.178044"><ele>642.8</ele><time>2026-04-12T09:26:39.763Z</time></trkpt><trkpt lat="45.6935237" lon="8.1779903"><ele>643.6</ele><time>2026-04-12T09:26:40.764Z</time></trkpt><trkpt lat="45.6936138" lon="8.1779148"><ele>644.4</ele><time>2026-04-12T09:26:41.764Z</time></trkpt><trkpt lat="45.6936999" lon="8.1778292"><ele>645.1999999999999</ele><time>2026-04-12T09:26:42.763Z</time></trkpt><trkpt lat="45.6937886" lon="8.1777507"><ele>646.0</ele><time>2026-04-12T09:26:43.764Z</time></trkpt><trkpt lat="45.6938731" lon="8.1776689"><ele>646.0</ele><time>2026-04-12T09:26:44.763Z</time></trkpt><trkpt lat="45.6939377" lon="8.1775663"><ele>646.0</ele><time>2026-04-12T09:26:45.763Z</time></trkpt><trkpt lat="45.6939725" lon="8.1774388"><ele>646.0</ele><time>2026-04-12T09:26:46.764Z</time></trkpt><trkpt lat="45.6939715" lon="8.1773128"><ele>646.0</ele><time>2026-04-12T09:26:47.763Z</time></trkpt><trkpt lat="45.6939613" lon="8.1771884"><ele>646.0</ele><time>2026-04-12T09:26:48.763Z</time></trkpt><trkpt lat="45.6939637" lon="8.177068"><ele>641.8333333333334</ele><time>2026-04-12T09:26:49.763Z</time></trkpt><trkpt lat="45.6939929" lon="8.1769536"><ele>637.6666666666667</ele><time>2026-04-12T09:26:50.763Z</time></trkpt><trkpt lat="45.6940477" lon="8.1768621"><ele>633.5</ele><time>2026-04-12T09:26:51.763Z</time></trkpt><trkpt lat="45.6941219" lon="8.1768005"><ele>629.3333333333334</ele><time>2026-04-12T09:26:52.762Z</time></trkpt><trkpt lat="45.6942125" lon="8.1767737"><ele>625.1666666666666</ele><time>2026-04-12T09:26:53.763Z</time></trkpt><trkpt lat="45.6943073" lon="8.1767497"><ele>621.0</ele><time>2026-04-12T09:26:54.763Z</time></trkpt><trkpt lat="45.694405" lon="8.1767142"><ele>623.0</ele><time>2026-04-12T09:26:55.764Z</time></trkpt><trkpt lat="45.6944992" lon="8.1766554"><ele>625.0</ele><time>2026-04-12T09:26:56.763Z</time></trkpt><trkpt lat="45.6945842" lon="8.1765798"><ele>627.0</ele><time>2026-04-12T09:26:57.764Z</time></trkpt><trkpt lat="45.6946705" lon="8.1764986"><ele>629.0</ele><time>2026-04-12T09:26:58.763Z</time></trkpt><trkpt lat="45.6947607" lon="8.1764593"><ele>631.0</ele><time>2026-04-12T09:26:59.763Z</time></trkpt><trkpt lat="45.6948514" lon="8.1764429"><ele>631.0</ele><time>2026-04-12T09:27:00.764Z</time></trkpt><trkpt lat="45.6949414" lon="8.1764602"><ele>631.0</ele><time>2026-04-12T09:27:01.764Z</time></trkpt><trkpt lat="45.6950256" lon="8.1764827"><ele>631.0</ele><time>2026-04-12T09:27:02.763Z</time></trkpt><trkpt lat="45.6951177" lon="8.1765063"><ele>631.0</ele><time>2026-04-12T09:27:03.763Z</time></trkpt><trkpt lat="45.6952103" lon="8.1765347"><ele>631.0</ele><time>2026-04-12T09:27:04.764Z</time></trkpt><trkpt lat="45.6952932" lon="8.1765902"><ele>629.5</ele><time>2026-04-12T09:27:05.762Z</time></trkpt><trkpt lat="45.6953522" lon="8.1766694"><ele>628.0</ele><time>2026-04-12T09:27:06.763Z</time></trkpt><trkpt lat="45.6953888" lon="8.1767752"><ele>626.5</ele><time>2026-04-12T09:27:07.763Z</time></trkpt><trkpt lat="45.695408" lon="8.1768875"><ele>625.0</ele><time>2026-04-12T09:27:08.764Z</time></trkpt><trkpt lat="45.6954381" lon="8.177"><ele>623.5</ele><time>2026-04-12T09:27:09.764Z</time></trkpt><trkpt lat="45.6954718" lon="8.1770889"><ele>622.0</ele><time>2026-04-12T09:27:10.764Z</time></trkpt><trkpt lat="45.6955188" lon="8.1771489"><ele>622.0</ele><time>2026-04-12T09:27:11.762Z</time></trkpt><trkpt lat="45.6956401" lon="8.1771249"><ele>622.0</ele><time>2026-04-12T09:27:13.763Z</time></trkpt><trkpt lat="45.6956309" lon="8.1769959"><ele>622.0</ele><time>2026-04-12T09:27:14.763Z</time></trkpt><trkpt lat="45.6956063" lon="8.1768804"><ele>622.0</ele><time>2026-04-12T09:27:15.764Z</time></trkpt><trkpt lat="45.6955605" lon="8.1767644"><ele>622.0</ele><time>2026-04-12T09:27:16.764Z</time></trkpt><trkpt lat="45.6955089" lon="8.176642"><ele>622.0</ele><time>2026-04-12T09:27:17.763Z</time></trkpt><trkpt lat="45.6954444" lon="8.1765322"><ele>622.0</ele><time>2026-04-12T09:27:18.764Z</time></trkpt><trkpt lat="45.695364" lon="8.1764352"><ele>622.0</ele><time>2026-04-12T09:27:19.764Z</time></trkpt><trkpt lat="45.6952681" lon="8.1763642"><ele>622.0</ele><time>2026-04-12T09:27:20.764Z</time></trkpt><trkpt lat="45.6951677" lon="8.1763003"><ele>622.0</ele><time>2026-04-12T09:27:21.763Z</time></trkpt><trkpt lat="45.6950677" lon="8.1762334"><ele>617.0</ele><time>2026-04-12T09:27:22.764Z</time></trkpt><trkpt lat="45.6949637" lon="8.1761789"><ele>612.0</ele><time>2026-04-12T09:27:23.764Z</time></trkpt><trkpt lat="45.6948571" lon="8.176134"><ele>607.0</ele><time>2026-04-12T09:27:24.765Z</time></trkpt><trkpt lat="45.6947554" lon="8.1761221"><ele>602.0</ele><time>2026-04-12T09:27:25.763Z</time></trkpt><trkpt lat="45.6946601" lon="8.1761572"><ele>597.0</ele><time>2026-04-12T09:27:26.763Z</time></trkpt><trkpt lat="45.6945731" lon="8.1762259"><ele>597.0</ele><time>2026-04-12T09:27:27.764Z</time></trkpt><trkpt lat="45.6944803" lon="8.1762808"><ele>597.0</ele><time>2026-04-12T09:27:28.764Z</time></trkpt><trkpt lat="45.6943838" lon="8.1763037"><ele>597.0</ele><time>2026-04-12T09:27:29.763Z</time></trkpt><trkpt lat="45.6942838" lon="8.1763123"><ele>597.0</ele><time>2026-04-12T09:27:30.762Z</time></trkpt><trkpt lat="45.6941829" lon="8.1763138"><ele>597.0</ele><time>2026-04-12T09:27:31.763Z</time></trkpt><trkpt lat="45.694083" lon="8.1763195"><ele>594.8000000000001</ele><time>2026-04-12T09:27:32.764Z</time></trkpt><trkpt lat="45.6939839" lon="8.1763406"><ele>592.6</ele><time>2026-04-12T09:27:33.764Z</time></trkpt><trkpt lat="45.6938879" lon="8.1763755"><ele>590.4000000000001</ele><time>2026-04-12T09:27:34.764Z</time></trkpt><trkpt lat="45.6938093" lon="8.176459"><ele>588.2</ele><time>2026-04-12T09:27:35.763Z</time></trkpt><trkpt lat="45.6937208" lon="8.176526"><ele>586.0</ele><time>2026-04-12T09:27:36.764Z</time></trkpt><trkpt lat="45.6936379" lon="8.1765831"><ele>586.4285714285713</ele><time>2026-04-12T09:27:37.763Z</time></trkpt><trkpt lat="45.6935798" lon="8.1766671"><ele>586.8571428571429</ele><time>2026-04-12T09:27:38.763Z</time></trkpt><trkpt lat="45.6935575" lon="8.1767839"><ele>587.2857142857142</ele><time>2026-04-12T09:27:39.763Z</time></trkpt><trkpt lat="45.6935423" lon="8.1768935"><ele>587.7142857142857</ele><time>2026-04-12T09:27:40.764Z</time></trkpt><trkpt lat="45.6935287" lon="8.1769873"><ele>588.1428571428571</ele><time>2026-04-12T09:27:41.763Z</time></trkpt><trkpt lat="45.69349" lon="8.1770707"><ele>588.5714285714286</ele><time>2026-04-12T09:27:42.764Z</time></trkpt><trkpt lat="45.6934308" lon="8.1771133"><ele>589.0</ele><time>2026-04-12T09:27:43.764Z</time></trkpt><trkpt lat="45.693363" lon="8.1771333"><ele>589.0</ele><time>2026-04-12T09:27:44.763Z</time></trkpt><trkpt lat="45.6932891" lon="8.1771677"><ele>589.0</ele><time>2026-04-12T09:27:45.763Z</time></trkpt><trkpt lat="45.6932117" lon="8.1772137"><ele>589.0</ele><time>2026-04-12T09:27:46.764Z</time></trkpt><trkpt lat="45.6931311" lon="8.1772289"><ele>589.0</ele><time>2026-04-12T09:27:47.764Z</time></trkpt><trkpt lat="45.6930565" lon="8.177191"><ele>589.0</ele><time>2026-04-12T09:27:48.764Z</time></trkpt><trkpt lat="45.6929784" lon="8.1771625"><ele>589.0</ele><time>2026-04-12T09:27:49.764Z</time></trkpt><trkpt lat="45.6929066" lon="8.1771853"><ele>589.0</ele><time>2026-04-12T09:27:50.762Z</time></trkpt><trkpt lat="45.6928444" lon="8.1772483"><ele>589.0</ele><time>2026-04-12T09:27:51.764Z</time></trkpt><trkpt lat="45.6927884" lon="8.1773324"><ele>589.0</ele><time>2026-04-12T09:27:52.763Z</time></trkpt><trkpt lat="45.6927435" lon="8.177443"><ele>589.0</ele><time>2026-04-12T09:27:53.761Z</time></trkpt><trkpt lat="45.692709" lon="8.1775595"><ele>589.0</ele><time>2026-04-12T09:27:54.763Z</time></trkpt><trkpt lat="45.6926764" lon="8.1776774"><ele>589.0</ele><time>2026-04-12T09:27:55.763Z</time></trkpt><trkpt lat="45.692642" lon="8.1777822"><ele>590.3333333333334</ele><time>2026-04-12T09:27:56.762Z</time></trkpt><trkpt lat="45.6925985" lon="8.1778598"><ele>591.6666666666667</ele><time>2026-04-12T09:27:57.762Z</time></trkpt><trkpt lat="45.6925415" lon="8.1779016"><ele>593.0</ele><time>2026-04-12T09:27:58.764Z</time></trkpt><trkpt lat="45.6924219" lon="8.1778343"><ele>594.3333333333334</ele><time>2026-04-12T09:28:00.763Z</time></trkpt><trkpt lat="45.6923698" lon="8.1777449"><ele>595.6666666666666</ele><time>2026-04-12T09:28:01.763Z</time></trkpt><trkpt lat="45.6923214" lon="8.177639"><ele>597.0</ele><time>2026-04-12T09:28:02.764Z</time></trkpt><trkpt lat="45.6922832" lon="8.177508"><ele>597.0</ele><time>2026-04-12T09:28:03.764Z</time></trkpt><trkpt lat="45.6922366" lon="8.1773899"><ele>597.0</ele><time>2026-04-12T09:28:04.762Z</time></trkpt><trkpt lat="45.6921735" lon="8.1772857"><ele>597.0</ele><time>2026-04-12T09:28:05.763Z</time></trkpt><trkpt lat="45.6921042" lon="8.1771829"><ele>597.0</ele><time>2026-04-12T09:28:06.763Z</time></trkpt><trkpt lat="45.6920356" lon="8.1770958"><ele>597.0</ele><time>2026-04-12T09:28:07.763Z</time></trkpt><trkpt lat="45.69196" lon="8.1770322"><ele>592.3333333333334</ele><time>2026-04-12T09:28:08.764Z</time></trkpt><trkpt lat="45.6918764" lon="8.1770237"><ele>587.6666666666666</ele><time>2026-04-12T09:28:09.763Z</time></trkpt><trkpt lat="45.6917922" lon="8.1770452"><ele>583.0</ele><time>2026-04-12T09:28:10.763Z</time></trkpt><trkpt lat="45.691709" lon="8.1770622"><ele>578.3333333333333</ele><time>2026-04-12T09:28:11.764Z</time></trkpt><trkpt lat="45.6916215" lon="8.1770611"><ele>573.6666666666666</ele><time>2026-04-12T09:28:12.764Z</time></trkpt><trkpt lat="45.6915418" lon="8.1770353"><ele>569.0</ele><time>2026-04-12T09:28:13.763Z</time></trkpt><trkpt lat="45.691482" lon="8.1769667"><ele>569.0</ele><time>2026-04-12T09:28:14.763Z</time></trkpt><trkpt lat="45.6914441" lon="8.1768618"><ele>569.0</ele><time>2026-04-12T09:28:15.762Z</time></trkpt><trkpt lat="45.6913901" lon="8.176779"><ele>569.0</ele><time>2026-04-12T09:28:16.764Z</time></trkpt><trkpt lat="45.691318" lon="8.1767201"><ele>569.0</ele><time>2026-04-12T09:28:17.764Z</time></trkpt><trkpt lat="45.6912403" lon="8.1766735"><ele>569.0</ele><time>2026-04-12T09:28:18.764Z</time></trkpt><trkpt lat="45.6911633" lon="8.1766316"><ele>569.0</ele><time>2026-04-12T09:28:19.763Z</time></trkpt><trkpt lat="45.6910832" lon="8.1766199"><ele>568.3333333333333</ele><time>2026-04-12T09:28:20.763Z</time></trkpt><trkpt lat="45.691003" lon="8.1766532"><ele>567.6666666666666</ele><time>2026-04-12T09:28:21.763Z</time></trkpt><trkpt lat="45.6909359" lon="8.1767251"><ele>567.0</ele><time>2026-04-12T09:28:22.764Z</time></trkpt><trkpt lat="45.690875" lon="8.1768165"><ele>566.3333333333334</ele><time>2026-04-12T09:28:23.763Z</time></trkpt><trkpt lat="45.6908176" lon="8.1769123"><ele>565.6666666666667</ele><time>2026-04-12T09:28:24.764Z</time></trkpt><trkpt lat="45.6907554" lon="8.1769695"><ele>565.0</ele><time>2026-04-12T09:28:25.764Z</time></trkpt><trkpt lat="45.6906815" lon="8.1769826"><ele>565.0</ele><time>2026-04-12T09:28:26.763Z</time></trkpt><trkpt lat="45.6906165" lon="8.1769391"><ele>565.0</ele><time>2026-04-12T09:28:27.763Z</time></trkpt><trkpt lat="45.6905577" lon="8.1768633"><ele>565.0</ele><time>2026-04-12T09:28:28.764Z</time></trkpt><trkpt lat="45.6904997" lon="8.1767736"><ele>565.0</ele><time>2026-04-12T09:28:29.763Z</time></trkpt><trkpt lat="45.6904382" lon="8.1766766"><ele>565.0</ele><time>2026-04-12T09:28:30.762Z</time></trkpt><trkpt lat="45.690379" lon="8.1765825"><ele>565.0</ele><time>2026-04-12T09:28:31.763Z</time></trkpt><trkpt lat="45.6903201" lon="8.1765005"><ele>562.5</ele><time>2026-04-12T09:28:32.764Z</time></trkpt><trkpt lat="45.690251" lon="8.176451"><ele>560.0</ele><time>2026-04-12T09:28:33.765Z</time></trkpt><trkpt lat="45.6901766" lon="8.1764323"><ele>557.5</ele><time>2026-04-12T09:28:34.764Z</time></trkpt><trkpt lat="45.6901112" lon="8.1764823"><ele>555.0</ele><time>2026-04-12T09:28:35.764Z</time></trkpt><trkpt lat="45.6900674" lon="8.1766075"><ele>552.5</ele><time>2026-04-12T09:28:36.763Z</time></trkpt><trkpt lat="45.6900117" lon="8.1767128"><ele>550.0</ele><time>2026-04-12T09:28:37.762Z</time></trkpt><trkpt lat="45.6899505" lon="8.1768207"><ele>550.0</ele><time>2026-04-12T09:28:38.763Z</time></trkpt><trkpt lat="45.6898782" lon="8.176909"><ele>550.0</ele><time>2026-04-12T09:28:39.764Z</time></trkpt><trkpt lat="45.6897994" lon="8.1769921"><ele>550.0</ele><time>2026-04-12T09:28:40.764Z</time></trkpt><trkpt lat="45.6897225" lon="8.1770952"><ele>550.0</ele><time>2026-04-12T09:28:41.764Z</time></trkpt><trkpt lat="45.689668" lon="8.1772127"><ele>550.0</ele><time>2026-04-12T09:28:42.764Z</time></trkpt><trkpt lat="45.6896683" lon="8.1773627"><ele>552.8333333333334</ele><time>2026-04-12T09:28:43.764Z</time></trkpt><trkpt lat="45.6896706" lon="8.1774846"><ele>555.6666666666667</ele><time>2026-04-12T09:28:44.763Z</time></trkpt><trkpt lat="45.6896726" lon="8.1776128"><ele>558.5</ele><time>2026-04-12T09:28:45.764Z</time></trkpt><trkpt lat="45.6896389" lon="8.1777317"><ele>561.3333333333334</ele><time>2026-04-12T09:28:46.763Z</time></trkpt><trkpt lat="45.6895987" lon="8.1778288"><ele>564.1666666666666</ele><time>2026-04-12T09:28:47.764Z</time></trkpt><trkpt lat="45.6895387" lon="8.1779191"><ele>567.0</ele><time>2026-04-12T09:28:48.764Z</time></trkpt><trkpt lat="45.6894806" lon="8.1780126"><ele>567.0</ele><time>2026-04-12T09:28:49.764Z</time></trkpt><trkpt lat="45.6894269" lon="8.1780891"><ele>567.0</ele><time>2026-04-12T09:28:50.764Z</time></trkpt><trkpt lat="45.689372" lon="8.1781525"><ele>567.0</ele><time>2026-04-12T09:28:51.763Z</time></trkpt><trkpt lat="45.6892688" lon="8.1782016"><ele>567.0</ele><time>2026-04-12T09:28:53.763Z</time></trkpt><trkpt lat="45.6892123" lon="8.1781293"><ele>567.0</ele><time>2026-04-12T09:28:55.763Z</time></trkpt><trkpt lat="45.6892666" lon="8.1780605"><ele>567.0</ele><time>2026-04-12T09:28:56.764Z</time></trkpt><trkpt lat="45.6893223" lon="8.1780178"><ele>567.0</ele><time>2026-04-12T09:28:57.764Z</time></trkpt><trkpt lat="45.6893877" lon="8.1779709"><ele>567.0</ele><time>2026-04-12T09:28:58.763Z</time></trkpt><trkpt lat="45.6894507" lon="8.1779125"><ele>567.0</ele><time>2026-04-12T09:28:59.762Z</time></trkpt><trkpt lat="45.6895019" lon="8.1778316"><ele>567.0</ele><time>2026-04-12T09:29:00.764Z</time></trkpt><trkpt lat="45.6895326" lon="8.1777345"><ele>567.0</ele><time>2026-04-12T09:29:01.763Z</time></trkpt><trkpt lat="45.6895488" lon="8.1776235"><ele>567.0</ele><time>2026-04-12T09:29:02.762Z</time></trkpt><trkpt lat="45.6895448" lon="8.1775047"><ele>567.0</ele><time>2026-04-12T09:29:03.764Z</time></trkpt><trkpt lat="45.6895391" lon="8.1773882"><ele>567.0</ele><time>2026-04-12T09:29:04.764Z</time></trkpt><trkpt lat="45.6895508" lon="8.177269"><ele>567.0</ele><time>2026-04-12T09:29:05.762Z</time></trkpt><trkpt lat="45.6895749" lon="8.1771561"><ele>567.0</ele><time>2026-04-12T09:29:06.764Z</time></trkpt><trkpt lat="45.6896198" lon="8.177043"><ele>567.0</ele><time>2026-04-12T09:29:07.764Z</time></trkpt><trkpt lat="45.6896691" lon="8.1769261"><ele>567.0</ele><time>2026-04-12T09:29:08.763Z</time></trkpt><trkpt lat="45.6897151" lon="8.1768152"><ele>563.6</ele><time>2026-04-12T09:29:09.763Z</time></trkpt><trkpt lat="45.6897576" lon="8.176696"><ele>560.2</ele><time>2026-04-12T09:29:10.763Z</time></trkpt><trkpt lat="45.689795" lon="8.1765702"><ele>556.8</ele><time>2026-04-12T09:29:11.764Z</time></trkpt><trkpt lat="45.6898264" lon="8.1764517"><ele>553.4</ele><time>2026-04-12T09:29:12.764Z</time></trkpt><trkpt lat="45.6898606" lon="8.1763286"><ele>550.0</ele><time>2026-04-12T09:29:13.764Z</time></trkpt><trkpt lat="45.6898932" lon="8.1762119"><ele>548.2857142857143</ele><time>2026-04-12T09:29:14.765Z</time></trkpt><trkpt lat="45.6899267" lon="8.1761034"><ele>546.5714285714286</ele><time>2026-04-12T09:29:15.762Z</time></trkpt><trkpt lat="45.689972" lon="8.1760136"><ele>544.8571428571429</ele><time>2026-04-12T09:29:16.763Z</time></trkpt><trkpt lat="45.6900301" lon="8.1759558"><ele>543.1428571428571</ele><time>2026-04-12T09:29:17.764Z</time></trkpt><trkpt lat="45.6900953" lon="8.1759263"><ele>541.4285714285714</ele><time>2026-04-12T09:29:18.763Z</time></trkpt><trkpt lat="45.6901674" lon="8.1759346"><ele>539.7142857142858</ele><time>2026-04-12T09:29:19.764Z</time></trkpt><trkpt lat="45.6902363" lon="8.1759801"><ele>538.0</ele><time>2026-04-12T09:29:20.764Z</time></trkpt><trkpt lat="45.6903033" lon="8.1760425"><ele>538.0</ele><time>2026-04-12T09:29:21.764Z</time></trkpt><trkpt lat="45.6903738" lon="8.1760829"><ele>538.0</ele><time>2026-04-12T09:29:22.764Z</time></trkpt><trkpt lat="45.6904467" lon="8.1760851"><ele>538.0</ele><time>2026-04-12T09:29:23.764Z</time></trkpt><trkpt lat="45.6905103" lon="8.1760432"><ele>538.0</ele><time>2026-04-12T09:29:24.764Z</time></trkpt><trkpt lat="45.6905564" lon="8.1759674"><ele>538.0</ele><time>2026-04-12T09:29:25.763Z</time></trkpt><trkpt lat="45.6905734" lon="8.1758691"><ele>538.0</ele><time>2026-04-12T09:29:26.764Z</time></trkpt><trkpt lat="45.6905711" lon="8.1757626"><ele>538.0</ele><time>2026-04-12T09:29:27.762Z</time></trkpt><trkpt lat="45.6905712" lon="8.1756547"><ele>536.0</ele><time>2026-04-12T09:29:28.763Z</time></trkpt><trkpt lat="45.6905991" lon="8.1755623"><ele>534.0</ele><time>2026-04-12T09:29:29.763Z</time></trkpt><trkpt lat="45.6906413" lon="8.1754732"><ele>532.0</ele><time>2026-04-12T09:29:30.764Z</time></trkpt><trkpt lat="45.690688" lon="8.1753891"><ele>530.0</ele><time>2026-04-12T09:29:31.763Z</time></trkpt><trkpt lat="45.6907401" lon="8.1753101"><ele>528.0</ele><time>2026-04-12T09:29:32.764Z</time></trkpt><trkpt lat="45.6907962" lon="8.1752401"><ele>526.0</ele><time>2026-04-12T09:29:33.763Z</time></trkpt><trkpt lat="45.6908549" lon="8.175183"><ele>524.0</ele><time>2026-04-12T09:29:34.764Z</time></trkpt><trkpt lat="45.6909156" lon="8.1751296"><ele>524.0</ele><time>2026-04-12T09:29:35.765Z</time></trkpt><trkpt lat="45.6910219" lon="8.175127"><ele>524.0</ele><time>2026-04-12T09:29:37.764Z</time></trkpt><trkpt lat="45.6910931" lon="8.1752548"><ele>524.0</ele><time>2026-04-12T09:29:39.763Z</time></trkpt><trkpt lat="45.6911059" lon="8.1753539"><ele>524.0</ele><time>2026-04-12T09:29:40.763Z</time></trkpt><trkpt lat="45.6911277" lon="8.1754496"><ele>524.0</ele><time>2026-04-12T09:29:41.764Z</time></trkpt><trkpt lat="45.6911843" lon="8.1755251"><ele>524.0</ele><time>2026-04-12T09:29:42.763Z</time></trkpt><trkpt lat="45.6912551" lon="8.1755551"><ele>521.8333333333333</ele><time>2026-04-12T09:29:43.764Z</time></trkpt><trkpt lat="45.6913256" lon="8.1755171"><ele>519.6666666666666</ele><time>2026-04-12T09:29:44.763Z</time></trkpt><trkpt lat="45.6913864" lon="8.175448"><ele>517.5</ele><time>2026-04-12T09:29:45.763Z</time></trkpt><trkpt lat="45.6914475" lon="8.1753816"><ele>515.3333333333334</ele><time>2026-04-12T09:29:46.763Z</time></trkpt><trkpt lat="45.6915161" lon="8.1753156"><ele>513.1666666666667</ele><time>2026-04-12T09:29:47.762Z</time></trkpt><trkpt lat="45.6915868" lon="8.1752743"><ele>511.0</ele><time>2026-04-12T09:29:48.763Z</time></trkpt><trkpt lat="45.6916678" lon="8.1752767"><ele>511.00000000000006</ele><time>2026-04-12T09:29:49.763Z</time></trkpt><trkpt lat="45.6917336" lon="8.1753192"><ele>511.0</ele><time>2026-04-12T09:29:50.763Z</time></trkpt><trkpt lat="45.691797" lon="8.1753918"><ele>511.0</ele><time>2026-04-12T09:29:51.764Z</time></trkpt><trkpt lat="45.6918599" lon="8.1754754"><ele>511.0</ele><time>2026-04-12T09:29:52.763Z</time></trkpt><trkpt lat="45.6919271" lon="8.1755576"><ele>511.00000000000006</ele><time>2026-04-12T09:29:53.764Z</time></trkpt><trkpt lat="45.6920016" lon="8.1756271"><ele>511.0</ele><time>2026-04-12T09:29:54.763Z</time></trkpt><trkpt lat="45.6920764" lon="8.1756685"><ele>511.4</ele><time>2026-04-12T09:29:55.763Z</time></trkpt><trkpt lat="45.6921408" lon="8.1756615"><ele>511.8</ele><time>2026-04-12T09:29:56.763Z</time></trkpt><trkpt lat="45.692214" lon="8.17553"><ele>512.1999999999999</ele><time>2026-04-12T09:29:58.764Z</time></trkpt><trkpt lat="45.692163" lon="8.1753721"><ele>512.6</ele><time>2026-04-12T09:30:00.764Z</time></trkpt><trkpt lat="45.692044" lon="8.1753086"><ele>513.0</ele><time>2026-04-12T09:30:02.763Z</time></trkpt><trkpt lat="45.6919791" lon="8.1752782"><ele>512.7142857142858</ele><time>2026-04-12T09:30:03.764Z</time></trkpt><trkpt lat="45.6919148" lon="8.1752405"><ele>512.4285714285714</ele><time>2026-04-12T09:30:04.764Z</time></trkpt><trkpt lat="45.6918595" lon="8.1751824"><ele>512.1428571428571</ele><time>2026-04-12T09:30:05.763Z</time></trkpt><trkpt lat="45.6917996" lon="8.1751316"><ele>511.8571428571429</ele><time>2026-04-12T09:30:06.763Z</time></trkpt><trkpt lat="45.6917429" lon="8.1750873"><ele>511.57142857142856</ele><time>2026-04-12T09:30:07.764Z</time></trkpt><trkpt lat="45.6916819" lon="8.1750368"><ele>511.2857142857143</ele><time>2026-04-12T09:30:08.763Z</time></trkpt><trkpt lat="45.691618" lon="8.1749941"><ele>511.0</ele><time>2026-04-12T09:30:09.763Z</time></trkpt><trkpt lat="45.6915526" lon="8.1749454"><ele>511.0</ele><time>2026-04-12T09:30:10.764Z</time></trkpt><trkpt lat="45.6914975" lon="8.1748761"><ele>511.0</ele><time>2026-04-12T09:30:11.764Z</time></trkpt><trkpt lat="45.6914608" lon="8.1747903"><ele>511.0</ele><time>2026-04-12T09:30:12.764Z</time></trkpt><trkpt lat="45.6914182" lon="8.1747031"><ele>511.0</ele><time>2026-04-12T09:30:13.763Z</time></trkpt><trkpt lat="45.6913667" lon="8.1746294"><ele>511.0</ele><time>2026-04-12T09:30:14.763Z</time></trkpt><trkpt lat="45.691314" lon="8.1745623"><ele>511.0</ele><time>2026-04-12T09:30:15.764Z</time></trkpt><trkpt lat="45.6912514" lon="8.1745002"><ele>511.0</ele><time>2026-04-12T09:30:16.764Z</time></trkpt><trkpt lat="45.6911874" lon="8.1744515"><ele>509.1428571428571</ele><time>2026-04-12T09:30:17.764Z</time></trkpt><trkpt lat="45.691119" lon="8.17441"><ele>507.2857142857143</ele><time>2026-04-12T09:30:18.763Z</time></trkpt><trkpt lat="45.691049" lon="8.1743603"><ele>505.42857142857144</ele><time>2026-04-12T09:30:19.763Z</time></trkpt><trkpt lat="45.690979" lon="8.1743165"><ele>503.57142857142856</ele><time>2026-04-12T09:30:20.763Z</time></trkpt><trkpt lat="45.6909071" lon="8.1743153"><ele>501.71428571428567</ele><time>2026-04-12T09:30:21.763Z</time></trkpt><trkpt lat="45.690841" lon="8.1743531"><ele>499.85714285714283</ele><time>2026-04-12T09:30:22.764Z</time></trkpt><trkpt lat="45.6907777" lon="8.1744004"><ele>498.0</ele><time>2026-04-12T09:30:23.764Z</time></trkpt><trkpt lat="45.6907124" lon="8.174456"><ele>498.0</ele><time>2026-04-12T09:30:24.764Z</time></trkpt><trkpt lat="45.6906453" lon="8.174506"><ele>498.0</ele><time>2026-04-12T09:30:25.764Z</time></trkpt><trkpt lat="45.6905813" lon="8.1745593"><ele>498.0</ele><time>2026-04-12T09:30:26.762Z</time></trkpt><trkpt lat="45.6905161" lon="8.174605"><ele>498.0</ele><time>2026-04-12T09:30:27.763Z</time></trkpt><trkpt lat="45.6904481" lon="8.1746492"><ele>498.0</ele><time>2026-04-12T09:30:28.764Z</time></trkpt><trkpt lat="45.6903747" lon="8.1746787"><ele>498.0</ele><time>2026-04-12T09:30:29.763Z</time></trkpt><trkpt lat="45.6902978" lon="8.1746958"><ele>498.85714285714283</ele><time>2026-04-12T09:30:30.763Z</time></trkpt><trkpt lat="45.6902244" lon="8.1747057"><ele>499.71428571428567</ele><time>2026-04-12T09:30:31.762Z</time></trkpt><trkpt lat="45.69015" lon="8.1747215"><ele>500.57142857142856</ele><time>2026-04-12T09:30:32.764Z</time></trkpt><trkpt lat="45.6900802" lon="8.1747524"><ele>501.42857142857144</ele><time>2026-04-12T09:30:33.763Z</time></trkpt><trkpt lat="45.6900142" lon="8.1748061"><ele>502.2857142857143</ele><time>2026-04-12T09:30:34.764Z</time></trkpt><trkpt lat="45.6899544" lon="8.1748725"><ele>503.1428571428571</ele><time>2026-04-12T09:30:35.763Z</time></trkpt><trkpt lat="45.6898963" lon="8.17494"><ele>504.0</ele><time>2026-04-12T09:30:36.764Z</time></trkpt><trkpt lat="45.6898368" lon="8.1750053"><ele>504.0</ele><time>2026-04-12T09:30:37.764Z</time></trkpt><trkpt lat="45.6897763" lon="8.1750708"><ele>504.0</ele><time>2026-04-12T09:30:38.765Z</time></trkpt><trkpt lat="45.6897138" lon="8.1751406"><ele>504.0</ele><time>2026-04-12T09:30:39.763Z</time></trkpt><trkpt lat="45.689651" lon="8.1751981"><ele>504.0</ele><time>2026-04-12T09:30:40.763Z</time></trkpt><trkpt lat="45.6895878" lon="8.175248"><ele>504.0</ele><time>2026-04-12T09:30:41.764Z</time></trkpt><trkpt lat="45.6895254" lon="8.1753052"><ele>504.0</ele><time>2026-04-12T09:30:42.763Z</time></trkpt><trkpt lat="45.6894614" lon="8.1753593"><ele>503.0</ele><time>2026-04-12T09:30:43.764Z</time></trkpt><trkpt lat="45.6893973" lon="8.1754214"><ele>502.0</ele><time>2026-04-12T09:30:44.763Z</time></trkpt><trkpt lat="45.6893368" lon="8.1754911"><ele>501.0</ele><time>2026-04-12T09:30:45.764Z</time></trkpt><trkpt lat="45.6892756" lon="8.1755633"><ele>500.0</ele><time>2026-04-12T09:30:46.763Z</time></trkpt><trkpt lat="45.6892195" lon="8.1756493"><ele>499.0</ele><time>2026-04-12T09:30:47.764Z</time></trkpt><trkpt lat="45.6891658" lon="8.1757418"><ele>498.0</ele><time>2026-04-12T09:30:48.764Z</time></trkpt><trkpt lat="45.689116" lon="8.1758416"><ele>498.0</ele><time>2026-04-12T09:30:49.763Z</time></trkpt><trkpt lat="45.6890731" lon="8.1759515"><ele>498.0</ele><time>2026-04-12T09:30:50.764Z</time></trkpt><trkpt lat="45.6890334" lon="8.1760581"><ele>498.0</ele><time>2026-04-12T09:30:51.764Z</time></trkpt><trkpt lat="45.6889944" lon="8.1761675"><ele>498.0</ele><time>2026-04-12T09:30:52.764Z</time></trkpt><trkpt lat="45.6889514" lon="8.1762691"><ele>498.0</ele><time>2026-04-12T09:30:53.765Z</time></trkpt><trkpt lat="45.6889129" lon="8.1763649"><ele>498.0</ele><time>2026-04-12T09:30:54.762Z</time></trkpt><trkpt lat="45.6888779" lon="8.1764598"><ele>499.4</ele><time>2026-04-12T09:30:55.763Z</time></trkpt><trkpt lat="45.6888442" lon="8.176545"><ele>500.79999999999995</ele><time>2026-04-12T09:30:56.764Z</time></trkpt><trkpt lat="45.6888032" lon="8.1766161"><ele>502.2</ele><time>2026-04-12T09:30:57.764Z</time></trkpt><trkpt lat="45.6886984" lon="8.1766848"><ele>503.6</ele><time>2026-04-12T09:30:59.763Z</time></trkpt><trkpt lat="45.6885573" lon="8.1766519"><ele>505.0</ele><time>2026-04-12T09:31:01.764Z</time></trkpt><trkpt lat="45.6884916" lon="8.1765781"><ele>500.83333333333337</ele><time>2026-04-12T09:31:15.763Z</time></trkpt><trkpt lat="45.6884335" lon="8.1766726"><ele>496.6666666666667</ele><time>2026-04-12T09:31:18.764Z</time></trkpt><trkpt lat="45.6883713" lon="8.1768007"><ele>492.5</ele><time>2026-04-12T09:31:20.764Z</time></trkpt><trkpt lat="45.6883398" lon="8.1768814"><ele>488.33333333333337</ele><time>2026-04-12T09:31:21.764Z</time></trkpt><trkpt lat="45.6883061" lon="8.1769658"><ele>484.1666666666667</ele><time>2026-04-12T09:31:22.764Z</time></trkpt><trkpt lat="45.6882653" lon="8.1770449"><ele>480.0</ele><time>2026-04-12T09:31:23.764Z</time></trkpt><trkpt lat="45.6881573" lon="8.1771054"><ele>480.0</ele><time>2026-04-12T09:31:25.764Z</time></trkpt><trkpt lat="45.6880552" lon="8.177007"><ele>480.0</ele><time>2026-04-12T09:31:27.764Z</time></trkpt><trkpt lat="45.6880032" lon="8.1769275"><ele>480.0</ele><time>2026-04-12T09:31:28.763Z</time></trkpt><trkpt lat="45.6879428" lon="8.1768348"><ele>480.0</ele><time>2026-04-12T09:31:29.764Z</time></trkpt><trkpt lat="45.6878793" lon="8.17674"><ele>480.0</ele><time>2026-04-12T09:31:30.764Z</time></trkpt><trkpt lat="45.6878156" lon="8.1766408"><ele>478.4</ele><time>2026-04-12T09:31:31.764Z</time></trkpt><trkpt lat="45.6877501" lon="8.1765489"><ele>476.8</ele><time>2026-04-12T09:31:32.764Z</time></trkpt><trkpt lat="45.6876909" lon="8.1764662"><ele>475.20000000000005</ele><time>2026-04-12T09:31:33.763Z</time></trkpt><trkpt lat="45.6876327" lon="8.1763911"><ele>473.6</ele><time>2026-04-12T09:31:34.764Z</time></trkpt><trkpt lat="45.6875282" lon="8.1763716"><ele>472.0</ele><time>2026-04-12T09:31:36.764Z</time></trkpt><trkpt lat="45.6874401" lon="8.1762221"><ele>471.83333333333337</ele><time>2026-04-12T09:32:49.763Z</time></trkpt><trkpt lat="45.6873745" lon="8.1761574"><ele>471.6666666666667</ele><time>2026-04-12T09:32:50.764Z</time></trkpt><trkpt lat="45.6872892" lon="8.1761276"><ele>471.5</ele><time>2026-04-12T09:32:51.764Z</time></trkpt><trkpt lat="45.6872015" lon="8.176113"><ele>471.33333333333337</ele><time>2026-04-12T09:32:52.763Z</time></trkpt><trkpt lat="45.6871194" lon="8.1761079"><ele>471.1666666666667</ele><time>2026-04-12T09:32:53.764Z</time></trkpt><trkpt lat="45.6870411" lon="8.1760965"><ele>471.0</ele><time>2026-04-12T09:32:54.764Z</time></trkpt><trkpt lat="45.6869664" lon="8.1760822"><ele>471.1666666666667</ele><time>2026-04-12T09:32:55.764Z</time></trkpt><trkpt lat="45.686887" lon="8.1760682"><ele>471.33333333333337</ele><time>2026-04-12T09:32:56.764Z</time></trkpt><trkpt lat="45.6868085" lon="8.1760438"><ele>471.5</ele><time>2026-04-12T09:32:57.764Z</time></trkpt><trkpt lat="45.6867411" lon="8.1760217"><ele>471.6666666666667</ele><time>2026-04-12T09:32:58.764Z</time></trkpt><trkpt lat="45.6866773" lon="8.1760032"><ele>471.83333333333337</ele><time>2026-04-12T09:32:59.764Z</time></trkpt><trkpt lat="45.6866134" lon="8.1760017"><ele>472.0</ele><time>2026-04-12T09:33:00.764Z</time></trkpt><trkpt lat="45.6865202" lon="8.1761054"><ele>472.0</ele><time>2026-04-12T09:33:02.764Z</time></trkpt><trkpt lat="45.6864841" lon="8.176185"><ele>472.00000000000006</ele><time>2026-04-12T09:33:03.764Z</time></trkpt><trkpt lat="45.6864491" lon="8.1762863"><ele>472.00000000000006</ele><time>2026-04-12T09:33:04.764Z</time></trkpt><trkpt lat="45.6864074" lon="8.1764096"><ele>472.0</ele><time>2026-04-12T09:33:05.764Z</time></trkpt><trkpt lat="45.6863571" lon="8.176543"><ele>472.0</ele><time>2026-04-12T09:33:06.765Z</time></trkpt><trkpt lat="45.6863075" lon="8.1766753"><ele>471.40000000000003</ele><time>2026-04-12T09:33:07.764Z</time></trkpt><trkpt lat="45.6862558" lon="8.1767979"><ele>470.80000000000007</ele><time>2026-04-12T09:33:08.764Z</time></trkpt><trkpt lat="45.6862037" lon="8.1769162"><ele>470.2</ele><time>2026-04-12T09:33:09.764Z</time></trkpt><trkpt lat="45.6861423" lon="8.1770308"><ele>469.6</ele><time>2026-04-12T09:33:10.764Z</time></trkpt><trkpt lat="45.6860764" lon="8.1771344"><ele>469.0</ele><time>2026-04-12T09:33:11.763Z</time></trkpt><trkpt lat="45.6860129" lon="8.1772373"><ele>470.2</ele><time>2026-04-12T09:33:12.763Z</time></trkpt><trkpt lat="45.6859485" lon="8.1773412"><ele>471.4</ele><time>2026-04-12T09:33:13.764Z</time></trkpt><trkpt lat="45.6858827" lon="8.1774476"><ele>472.6</ele><time>2026-04-12T09:33:14.764Z</time></trkpt><trkpt lat="45.6858196" lon="8.1775483"><ele>473.8</ele><time>2026-04-12T09:33:15.764Z</time></trkpt><trkpt lat="45.6857616" lon="8.1776588"><ele>475.0</ele><time>2026-04-12T09:33:16.764Z</time></trkpt><trkpt lat="45.685696" lon="8.1777662"><ele>475.0</ele><time>2026-04-12T09:33:17.764Z</time></trkpt><trkpt lat="45.6856305" lon="8.1778711"><ele>475.0</ele><time>2026-04-12T09:33:18.764Z</time></trkpt><trkpt lat="45.6855686" lon="8.17798"><ele>475.0</ele><time>2026-04-12T09:33:19.763Z</time></trkpt><trkpt lat="45.6855101" lon="8.1780913"><ele>475.0</ele><time>2026-04-12T09:33:20.764Z</time></trkpt><trkpt lat="45.6854555" lon="8.1782064"><ele>475.0</ele><time>2026-04-12T09:33:21.763Z</time></trkpt><trkpt lat="45.6854032" lon="8.1783294"><ele>475.8</ele><time>2026-04-12T09:33:22.764Z</time></trkpt><trkpt lat="45.6853417" lon="8.1784565"><ele>476.6</ele><time>2026-04-12T09:33:23.763Z</time></trkpt><trkpt lat="45.6852813" lon="8.1785842"><ele>477.4</ele><time>2026-04-12T09:33:24.764Z</time></trkpt><trkpt lat="45.6852146" lon="8.1787081"><ele>478.2</ele><time>2026-04-12T09:33:25.764Z</time></trkpt><trkpt lat="45.6851448" lon="8.1788362"><ele>479.0</ele><time>2026-04-12T09:33:26.763Z</time></trkpt><trkpt lat="45.685074" lon="8.1789719"><ele>476.25</ele><time>2026-04-12T09:33:27.763Z</time></trkpt><trkpt lat="45.6850045" lon="8.1791052"><ele>473.5</ele><time>2026-04-12T09:33:28.764Z</time></trkpt><trkpt lat="45.684936" lon="8.1792448"><ele>470.75</ele><time>2026-04-12T09:33:29.764Z</time></trkpt><trkpt lat="45.6848639" lon="8.1793875"><ele>468.0</ele><time>2026-04-12T09:33:30.764Z</time></trkpt><trkpt lat="45.6847933" lon="8.1795265"><ele>468.0</ele><time>2026-04-12T09:33:31.764Z</time></trkpt><trkpt lat="45.6847241" lon="8.1796673"><ele>468.0</ele><time>2026-04-12T09:33:32.764Z</time></trkpt><trkpt lat="45.6846547" lon="8.1798083"><ele>468.0</ele><time>2026-04-12T09:33:33.763Z</time></trkpt><trkpt lat="45.6845849" lon="8.1799406"><ele>468.0</ele><time>2026-04-12T09:33:34.764Z</time></trkpt><trkpt lat="45.6845164" lon="8.180072"><ele>467.0</ele><time>2026-04-12T09:33:35.763Z</time></trkpt><trkpt lat="45.6844517" lon="8.1802108"><ele>466.0</ele><time>2026-04-12T09:33:36.764Z</time></trkpt><trkpt lat="45.68438" lon="8.1803482"><ele>465.0</ele><time>2026-04-12T09:33:37.765Z</time></trkpt><trkpt lat="45.6843009" lon="8.1804871"><ele>464.0</ele><time>2026-04-12T09:33:38.764Z</time></trkpt><trkpt lat="45.6842216" lon="8.1806284"><ele>462.5</ele><time>2026-04-12T09:33:39.764Z</time></trkpt><trkpt lat="45.6841433" lon="8.1807709"><ele>461.0</ele><time>2026-04-12T09:33:40.764Z</time></trkpt><trkpt lat="45.6840722" lon="8.180917"><ele>459.5</ele><time>2026-04-12T09:33:41.764Z</time></trkpt><trkpt lat="45.6840002" lon="8.1810668"><ele>458.0</ele><time>2026-04-12T09:33:42.764Z</time></trkpt><trkpt lat="45.683929" lon="8.1812227"><ele>458.0</ele><time>2026-04-12T09:33:43.764Z</time></trkpt><trkpt lat="45.6838593" lon="8.1813929"><ele>458.0</ele><time>2026-04-12T09:33:44.764Z</time></trkpt><trkpt lat="45.6837806" lon="8.1815681"><ele>458.0</ele><time>2026-04-12T09:33:45.763Z</time></trkpt><trkpt lat="45.6836951" lon="8.1817462"><ele>458.0</ele><time>2026-04-12T09:33:46.764Z</time></trkpt><trkpt lat="45.6836132" lon="8.181917"><ele>458.25</ele><time>2026-04-12T09:33:47.764Z</time></trkpt><trkpt lat="45.6835326" lon="8.1820748"><ele>458.5</ele><time>2026-04-12T09:33:48.764Z</time></trkpt><trkpt lat="45.6834552" lon="8.1822276"><ele>458.75</ele><time>2026-04-12T09:33:49.763Z</time></trkpt><trkpt lat="45.6833753" lon="8.1823707"><ele>459.0</ele><time>2026-04-12T09:33:50.763Z</time></trkpt><trkpt lat="45.6832954" lon="8.1825173"><ele>458.5</ele><time>2026-04-12T09:33:51.763Z</time></trkpt><trkpt lat="45.6832216" lon="8.1826579"><ele>458.0</ele><time>2026-04-12T09:33:52.763Z</time></trkpt><trkpt lat="45.6831427" lon="8.1828027"><ele>457.5</ele><time>2026-04-12T09:33:53.763Z</time></trkpt><trkpt lat="45.6830634" lon="8.1829505"><ele>457.0</ele><time>2026-04-12T09:33:54.764Z</time></trkpt><trkpt lat="45.6829864" lon="8.1830954"><ele>456.25</ele><time>2026-04-12T09:33:55.764Z</time></trkpt><trkpt lat="45.6829083" lon="8.1832418"><ele>455.5</ele><time>2026-04-12T09:33:56.764Z</time></trkpt><trkpt lat="45.6828318" lon="8.1833786"><ele>454.75</ele><time>2026-04-12T09:33:57.764Z</time></trkpt><trkpt lat="45.682759" lon="8.1835137"><ele>454.0</ele><time>2026-04-12T09:33:58.764Z</time></trkpt><trkpt lat="45.6826849" lon="8.1836489"><ele>455.0</ele><time>2026-04-12T09:33:59.763Z</time></trkpt><trkpt lat="45.6826107" lon="8.1837695"><ele>456.0</ele><time>2026-04-12T09:34:00.764Z</time></trkpt><trkpt lat="45.6825283" lon="8.1838579"><ele>457.0</ele><time>2026-04-12T09:34:01.764Z</time></trkpt><trkpt lat="45.6824396" lon="8.1839062"><ele>458.0</ele><time>2026-04-12T09:34:02.764Z</time></trkpt><trkpt lat="45.6823619" lon="8.1839659"><ele>459.0</ele><time>2026-04-12T09:34:03.764Z</time></trkpt><trkpt lat="45.6822966" lon="8.1840577"><ele>459.0</ele><time>2026-04-12T09:34:04.764Z</time></trkpt><trkpt lat="45.6822488" lon="8.1841822"><ele>459.0</ele><time>2026-04-12T09:34:05.764Z</time></trkpt><trkpt lat="45.6822076" lon="8.1843252"><ele>459.0</ele><time>2026-04-12T09:34:06.764Z</time></trkpt><trkpt lat="45.6821795" lon="8.1844774"><ele>459.0</ele><time>2026-04-12T09:34:07.763Z</time></trkpt><trkpt lat="45.6821545" lon="8.1846349"><ele>459.0</ele><time>2026-04-12T09:34:08.763Z</time></trkpt><trkpt lat="45.6821311" lon="8.1848094"><ele>457.5</ele><time>2026-04-12T09:34:09.764Z</time></trkpt><trkpt lat="45.6821023" lon="8.1849985"><ele>456.0</ele><time>2026-04-12T09:34:10.764Z</time></trkpt><trkpt lat="45.6820748" lon="8.1851905"><ele>454.5</ele><time>2026-04-12T09:34:11.764Z</time></trkpt><trkpt lat="45.6820474" lon="8.1853796"><ele>453.0</ele><time>2026-04-12T09:34:12.764Z</time></trkpt><trkpt lat="45.6820194" lon="8.1855684"><ele>452.5</ele><time>2026-04-12T09:34:13.764Z</time></trkpt><trkpt lat="45.6819904" lon="8.1857585"><ele>452.0</ele><time>2026-04-12T09:34:14.764Z</time></trkpt><trkpt lat="45.6819626" lon="8.1859485"><ele>451.5</ele><time>2026-04-12T09:34:15.763Z</time></trkpt><trkpt lat="45.6819339" lon="8.186139"><ele>451.0</ele><time>2026-04-12T09:34:16.765Z</time></trkpt><trkpt lat="45.6819042" lon="8.1863297"><ele>458.5</ele><time>2026-04-12T09:34:17.765Z</time></trkpt><trkpt lat="45.6818745" lon="8.1865174"><ele>466.0</ele><time>2026-04-12T09:34:18.764Z</time></trkpt><trkpt lat="45.6818458" lon="8.1867055"><ele>473.5</ele><time>2026-04-12T09:34:19.764Z</time></trkpt><trkpt lat="45.6818175" lon="8.1868975"><ele>481.0</ele><time>2026-04-12T09:34:20.764Z</time></trkpt><trkpt lat="45.6817925" lon="8.187088"><ele>481.0</ele><time>2026-04-12T09:34:21.765Z</time></trkpt><trkpt lat="45.6817673" lon="8.1872728"><ele>481.0</ele><time>2026-04-12T09:34:22.763Z</time></trkpt><trkpt lat="45.681736" lon="8.1874612"><ele>481.0</ele><time>2026-04-12T09:34:23.764Z</time></trkpt><trkpt lat="45.6817066" lon="8.1876591"><ele>481.0</ele><time>2026-04-12T09:34:24.764Z</time></trkpt><trkpt lat="45.6816703" lon="8.1878614"><ele>477.25</ele><time>2026-04-12T09:34:25.764Z</time></trkpt><trkpt lat="45.6816363" lon="8.1880565"><ele>473.5</ele><time>2026-04-12T09:34:26.763Z</time></trkpt><trkpt lat="45.6816045" lon="8.1882502"><ele>469.75</ele><time>2026-04-12T09:34:27.764Z</time></trkpt><trkpt lat="45.6815724" lon="8.1884459"><ele>466.0</ele><time>2026-04-12T09:34:28.764Z</time></trkpt><trkpt lat="45.68153" lon="8.1886361"><ele>462.25</ele><time>2026-04-12T09:34:29.764Z</time></trkpt><trkpt lat="45.681484" lon="8.1888203"><ele>458.5</ele><time>2026-04-12T09:34:30.764Z</time></trkpt><trkpt lat="45.6814371" lon="8.1890065"><ele>454.75</ele><time>2026-04-12T09:34:31.764Z</time></trkpt><trkpt lat="45.6813863" lon="8.1891815"><ele>451.0</ele><time>2026-04-12T09:34:32.763Z</time></trkpt><trkpt lat="45.6813253" lon="8.18935"><ele>450.25</ele><time>2026-04-12T09:34:33.764Z</time></trkpt><trkpt lat="45.6812666" lon="8.1895154"><ele>449.5</ele><time>2026-04-12T09:34:34.765Z</time></trkpt><trkpt lat="45.6812035" lon="8.1896749"><ele>448.75</ele><time>2026-04-12T09:34:35.764Z</time></trkpt><trkpt lat="45.6811339" lon="8.1898277"><ele>448.0</ele><time>2026-04-12T09:34:36.764Z</time></trkpt><trkpt lat="45.681061" lon="8.18998"><ele>448.0</ele><time>2026-04-12T09:34:37.764Z</time></trkpt><trkpt lat="45.6809946" lon="8.1901299"><ele>448.0</ele><time>2026-04-12T09:34:38.764Z</time></trkpt><trkpt lat="45.6809236" lon="8.1902872"><ele>448.0</ele><time>2026-04-12T09:34:39.764Z</time></trkpt><trkpt lat="45.6808533" lon="8.1904403"><ele>448.0</ele><time>2026-04-12T09:34:40.764Z</time></trkpt><trkpt lat="45.6807833" lon="8.1905998"><ele>447.75</ele><time>2026-04-12T09:34:41.764Z</time></trkpt><trkpt lat="45.6807139" lon="8.1907528"><ele>447.5</ele><time>2026-04-12T09:34:42.764Z</time></trkpt><trkpt lat="45.6806425" lon="8.1909029"><ele>447.25</ele><time>2026-04-12T09:34:43.763Z</time></trkpt><trkpt lat="45.680577" lon="8.1910553"><ele>447.0</ele><time>2026-04-12T09:34:44.764Z</time></trkpt><trkpt lat="45.6805097" lon="8.1912098"><ele>447.0</ele><time>2026-04-12T09:34:45.764Z</time></trkpt><trkpt lat="45.6804398" lon="8.1913646"><ele>447.0</ele><time>2026-04-12T09:34:46.763Z</time></trkpt><trkpt lat="45.6803699" lon="8.1915103"><ele>447.0</ele><time>2026-04-12T09:34:47.763Z</time></trkpt><trkpt lat="45.6803002" lon="8.1916596"><ele>447.0</ele><time>2026-04-12T09:34:48.764Z</time></trkpt><trkpt lat="45.6802336" lon="8.191815"><ele>446.5</ele><time>2026-04-12T09:34:49.764Z</time></trkpt><trkpt lat="45.680164" lon="8.1919629"><ele>446.0</ele><time>2026-04-12T09:34:50.764Z</time></trkpt><trkpt lat="45.6800947" lon="8.1921174"><ele>445.5</ele><time>2026-04-12T09:34:51.764Z</time></trkpt><trkpt lat="45.6800263" lon="8.1922739"><ele>445.0</ele><time>2026-04-12T09:34:52.764Z</time></trkpt><trkpt lat="45.6799518" lon="8.1924316"><ele>444.25</ele><time>2026-04-12T09:34:53.764Z</time></trkpt><trkpt lat="45.6798782" lon="8.1925838"><ele>443.5</ele><time>2026-04-12T09:34:54.764Z</time></trkpt><trkpt lat="45.6798074" lon="8.192739"><ele>442.75</ele><time>2026-04-12T09:34:55.764Z</time></trkpt><trkpt lat="45.6797376" lon="8.1928932"><ele>442.0</ele><time>2026-04-12T09:34:56.764Z</time></trkpt><trkpt lat="45.6796633" lon="8.1930547"><ele>441.75</ele><time>2026-04-12T09:34:57.764Z</time></trkpt><trkpt lat="45.679597" lon="8.1932136"><ele>441.5</ele><time>2026-04-12T09:34:58.763Z</time></trkpt><trkpt lat="45.6795257" lon="8.1933734"><ele>441.25</ele><time>2026-04-12T09:34:59.764Z</time></trkpt><trkpt lat="45.6794529" lon="8.1935356"><ele>441.0</ele><time>2026-04-12T09:35:00.764Z</time></trkpt><trkpt lat="45.6793795" lon="8.1936938"><ele>440.75</ele><time>2026-04-12T09:35:01.763Z</time></trkpt><trkpt lat="45.6793044" lon="8.1938536"><ele>440.5</ele><time>2026-04-12T09:35:02.764Z</time></trkpt><trkpt lat="45.6792281" lon="8.1940115"><ele>440.25</ele><time>2026-04-12T09:35:03.764Z</time></trkpt><trkpt lat="45.6791519" lon="8.1941709"><ele>440.0</ele><time>2026-04-12T09:35:04.764Z</time></trkpt><trkpt lat="45.6790804" lon="8.1943351"><ele>440.0</ele><time>2026-04-12T09:35:05.764Z</time></trkpt><trkpt lat="45.6790075" lon="8.1944982"><ele>440.0</ele><time>2026-04-12T09:35:06.764Z</time></trkpt><trkpt lat="45.6789339" lon="8.1946618"><ele>440.0</ele><time>2026-04-12T09:35:07.765Z</time></trkpt><trkpt lat="45.6788635" lon="8.1948208"><ele>440.0</ele><time>2026-04-12T09:35:08.764Z</time></trkpt><trkpt lat="45.6787901" lon="8.1949822"><ele>440.0</ele><time>2026-04-12T09:35:09.764Z</time></trkpt><trkpt lat="45.678719" lon="8.1951366"><ele>440.0</ele><time>2026-04-12T09:35:10.764Z</time></trkpt><trkpt lat="45.6786489" lon="8.1952894"><ele>440.0</ele><time>2026-04-12T09:35:11.764Z</time></trkpt><trkpt lat="45.6785825" lon="8.1954358"><ele>440.0</ele><time>2026-04-12T09:35:12.764Z</time></trkpt><trkpt lat="45.6785126" lon="8.1955807"><ele>439.5</ele><time>2026-04-12T09:35:13.764Z</time></trkpt><trkpt lat="45.6784391" lon="8.1957235"><ele>439.0</ele><time>2026-04-12T09:35:14.764Z</time></trkpt><trkpt lat="45.6783605" lon="8.1958677"><ele>438.5</ele><time>2026-04-12T09:35:15.763Z</time></trkpt><trkpt lat="45.6782756" lon="8.1960022"><ele>438.0</ele><time>2026-04-12T09:35:16.764Z</time></trkpt><trkpt lat="45.6781836" lon="8.1961368"><ele>438.0</ele><time>2026-04-12T09:35:17.765Z</time></trkpt><trkpt lat="45.6780911" lon="8.1962705"><ele>438.0</ele><time>2026-04-12T09:35:18.764Z</time></trkpt><trkpt lat="45.6779964" lon="8.1964043"><ele>438.0</ele><time>2026-04-12T09:35:19.764Z</time></trkpt><trkpt lat="45.6778952" lon="8.196532"><ele>438.0</ele><time>2026-04-12T09:35:20.764Z</time></trkpt><trkpt lat="45.6777971" lon="8.196655"><ele>438.5</ele><time>2026-04-12T09:35:21.764Z</time></trkpt><trkpt lat="45.6776955" lon="8.1967799"><ele>439.0</ele><time>2026-04-12T09:35:22.765Z</time></trkpt><trkpt lat="45.6775934" lon="8.1968926"><ele>439.5</ele><time>2026-04-12T09:35:23.763Z</time></trkpt><trkpt lat="45.677491" lon="8.1970045"><ele>440.0</ele><time>2026-04-12T09:35:24.764Z</time></trkpt><trkpt lat="45.6773848" lon="8.1971144"><ele>440.0</ele><time>2026-04-12T09:35:25.764Z</time></trkpt><trkpt lat="45.6772732" lon="8.1972193"><ele>440.0</ele><time>2026-04-12T09:35:26.764Z</time></trkpt><trkpt lat="45.6771612" lon="8.1973316"><ele>440.0</ele><time>2026-04-12T09:35:27.764Z</time></trkpt><trkpt lat="45.6770452" lon="8.1974361"><ele>440.0</ele><time>2026-04-12T09:35:28.764Z</time></trkpt><trkpt lat="45.6769255" lon="8.1975459"><ele>439.25</ele><time>2026-04-12T09:35:29.764Z</time></trkpt><trkpt lat="45.6768112" lon="8.1976484"><ele>438.5</ele><time>2026-04-12T09:35:30.764Z</time></trkpt><trkpt lat="45.6766974" lon="8.1977504"><ele>437.75</ele><time>2026-04-12T09:35:31.764Z</time></trkpt><trkpt lat="45.6765864" lon="8.1978519"><ele>437.0</ele><time>2026-04-12T09:35:32.765Z</time></trkpt><trkpt lat="45.6764735" lon="8.197954"><ele>437.0</ele><time>2026-04-12T09:35:33.764Z</time></trkpt><trkpt lat="45.6763677" lon="8.198049"><ele>437.0</ele><time>2026-04-12T09:35:34.764Z</time></trkpt><trkpt lat="45.6762629" lon="8.1981416"><ele>437.0</ele><time>2026-04-12T09:35:35.764Z</time></trkpt><trkpt lat="45.6761602" lon="8.198234"><ele>437.0</ele><time>2026-04-12T09:35:36.765Z</time></trkpt><trkpt lat="45.6760575" lon="8.1983311"><ele>436.25</ele><time>2026-04-12T09:35:37.763Z</time></trkpt><trkpt lat="45.6759557" lon="8.1984269"><ele>435.5</ele><time>2026-04-12T09:35:38.764Z</time></trkpt><trkpt lat="45.6758542" lon="8.1985169"><ele>434.75</ele><time>2026-04-12T09:35:39.764Z</time></trkpt><trkpt lat="45.6757496" lon="8.198607"><ele>434.0</ele><time>2026-04-12T09:35:40.764Z</time></trkpt><trkpt lat="45.6756442" lon="8.1986952"><ele>434.0</ele><time>2026-04-12T09:35:41.763Z</time></trkpt><trkpt lat="45.6755441" lon="8.1987775"><ele>434.0</ele><time>2026-04-12T09:35:42.764Z</time></trkpt><trkpt lat="45.6754484" lon="8.1988467"><ele>434.0</ele><time>2026-04-12T09:35:43.763Z</time></trkpt><trkpt lat="45.6753546" lon="8.1988973"><ele>434.0</ele><time>2026-04-12T09:35:44.764Z</time></trkpt><trkpt lat="45.6752634" lon="8.1989241"><ele>434.0</ele><time>2026-04-12T09:35:45.765Z</time></trkpt><trkpt lat="45.6751819" lon="8.1989653"><ele>434.16666666666663</ele><time>2026-04-12T09:35:46.763Z</time></trkpt><trkpt lat="45.6751251" lon="8.1990497"><ele>434.3333333333333</ele><time>2026-04-12T09:35:47.763Z</time></trkpt><trkpt lat="45.6751104" lon="8.1991508"><ele>434.5</ele><time>2026-04-12T09:35:48.764Z</time></trkpt><trkpt lat="45.6751408" lon="8.1992352"><ele>434.66666666666663</ele><time>2026-04-12T09:35:49.764Z</time></trkpt><trkpt lat="45.6752009" lon="8.1993015"><ele>434.8333333333333</ele><time>2026-04-12T09:35:50.764Z</time></trkpt><trkpt lat="45.6752693" lon="8.1993787"><ele>435.0</ele><time>2026-04-12T09:35:51.764Z</time></trkpt><trkpt lat="45.6753305" lon="8.1994788"><ele>435.0</ele><time>2026-04-12T09:35:52.763Z</time></trkpt><trkpt lat="45.675388" lon="8.1996067"><ele>435.0</ele><time>2026-04-12T09:35:53.764Z</time></trkpt><trkpt lat="45.6754526" lon="8.1997522"><ele>435.0</ele><time>2026-04-12T09:35:54.764Z</time></trkpt><trkpt lat="45.6755194" lon="8.199901"><ele>435.0</ele><time>2026-04-12T09:35:55.764Z</time></trkpt><trkpt lat="45.6755936" lon="8.20006"><ele>434.25</ele><time>2026-04-12T09:35:56.764Z</time></trkpt><trkpt lat="45.6756719" lon="8.2002284"><ele>433.5</ele><time>2026-04-12T09:35:57.765Z</time></trkpt><trkpt lat="45.6757532" lon="8.2004111"><ele>432.75</ele><time>2026-04-12T09:35:58.764Z</time></trkpt><trkpt lat="45.6758329" lon="8.2005824"><ele>432.0</ele><time>2026-04-12T09:35:59.764Z</time></trkpt><trkpt lat="45.6759157" lon="8.2007513"><ele>431.0</ele><time>2026-04-12T09:36:00.763Z</time></trkpt><trkpt lat="45.675995" lon="8.2009174"><ele>430.0</ele><time>2026-04-12T09:36:01.764Z</time></trkpt><trkpt lat="45.6760712" lon="8.2010673"><ele>429.0</ele><time>2026-04-12T09:36:02.762Z</time></trkpt><trkpt lat="45.676143" lon="8.2012123"><ele>428.0</ele><time>2026-04-12T09:36:03.764Z</time></trkpt><trkpt lat="45.6762051" lon="8.2013426"><ele>427.8333333333333</ele><time>2026-04-12T09:36:04.764Z</time></trkpt><trkpt lat="45.6762614" lon="8.2014546"><ele>427.66666666666663</ele><time>2026-04-12T09:36:05.764Z</time></trkpt><trkpt lat="45.6763106" lon="8.201551"><ele>427.5</ele><time>2026-04-12T09:36:06.764Z</time></trkpt><trkpt lat="45.6763395" lon="8.2016533"><ele>427.33333333333337</ele><time>2026-04-12T09:36:07.765Z</time></trkpt><trkpt lat="45.6763386" lon="8.2017523"><ele>427.1666666666667</ele><time>2026-04-12T09:36:08.765Z</time></trkpt><trkpt lat="45.6763023" lon="8.2018355"><ele>427.0</ele><time>2026-04-12T09:36:09.765Z</time></trkpt><trkpt lat="45.6762386" lon="8.2019197"><ele>427.20000000000005</ele><time>2026-04-12T09:36:10.764Z</time></trkpt><trkpt lat="45.6761662" lon="8.2020108"><ele>427.40000000000003</ele><time>2026-04-12T09:36:11.763Z</time></trkpt><trkpt lat="45.6760884" lon="8.2021143"><ele>427.59999999999997</ele><time>2026-04-12T09:36:12.764Z</time></trkpt><trkpt lat="45.676008" lon="8.2022178"><ele>427.79999999999995</ele><time>2026-04-12T09:36:13.764Z</time></trkpt><trkpt lat="45.6759335" lon="8.2023312"><ele>428.0</ele><time>2026-04-12T09:36:14.764Z</time></trkpt><trkpt lat="45.6758541" lon="8.2024507"><ele>429.0</ele><time>2026-04-12T09:36:15.763Z</time></trkpt><trkpt lat="45.675778" lon="8.2025613"><ele>429.99999999999994</ele><time>2026-04-12T09:36:16.765Z</time></trkpt><trkpt lat="45.6756993" lon="8.2026853"><ele>430.99999999999994</ele><time>2026-04-12T09:36:17.764Z</time></trkpt><trkpt lat="45.675626" lon="8.2028037"><ele>432.0</ele><time>2026-04-12T09:36:18.764Z</time></trkpt><trkpt lat="45.6755559" lon="8.2029223"><ele>433.0</ele><time>2026-04-12T09:36:19.764Z</time></trkpt><trkpt lat="45.6754942" lon="8.2030453"><ele>434.4</ele><time>2026-04-12T09:36:20.765Z</time></trkpt><trkpt lat="45.6754452" lon="8.2031769"><ele>435.79999999999995</ele><time>2026-04-12T09:36:21.764Z</time></trkpt><trkpt lat="45.6754172" lon="8.2033206"><ele>437.2</ele><time>2026-04-12T09:36:22.763Z</time></trkpt><trkpt lat="45.6754028" lon="8.2034646"><ele>438.6</ele><time>2026-04-12T09:36:23.764Z</time></trkpt><trkpt lat="45.6754002" lon="8.2036003"><ele>440.0</ele><time>2026-04-12T09:36:24.764Z</time></trkpt><trkpt lat="45.6753985" lon="8.2037397"><ele>440.0</ele><time>2026-04-12T09:36:25.764Z</time></trkpt><trkpt lat="45.6754003" lon="8.2038708"><ele>440.0</ele><time>2026-04-12T09:36:26.764Z</time></trkpt></trkseg></trk></gpx>